     2.11           OBSERVATION DATA    G (GPS)             RINEX VERSION / TYPE
teqc 2010Oct21 OPUS Account 20111028 14:55:11UTC            PGM / RUN BY / DATE
K 1526                                                      MARKER NAME
3044                                                        MARKER NUMBER
CSMIDDLETON NGS                                             OBSERVER / AGENCY
0220379089 TRIMBLE R7 2.28                                  REC # / TYPE / VERS
60124975 TRM41249.00 NONE                                   ANT # / TYPE
  -753190.5562 -5568260.2124  3007840.0414                  APPROX POSITION XYZ
        2.0010        0.0000        0.0000                  ANTENNA: DELTA H/E/N
     1     1                                                WAVELENGTH FACT L1/2
     5    L1    L2    C1    P1    P2                        # / TYPES OF OBSERV
    15                                                      LEAP SECONDS
  2011     8    22     0     0   30.0000000     GPS         TIME OF FIRST OBS
                                                            END OF HEADER
 11  8 22  0  0 30.0000000  0  8G10G12G09G17G05G04G25G02
 -28098893.99258 -21882944.27056  20822551.3444                   20822549.0514
 -20328213.90658 -15826999.69156  21648327.3444                   21648324.3984
 -15440246.26656 -12017092.45754  23212548.2894                   23212548.3794
 -30648734.67257 -23868342.65255  22860004.9384                   22860003.8634
 -15365924.35557 -11959350.35555  22292523.6254                   22292522.3554
 -32767068.51658 -25517886.08656  21271419.6724                   21271418.0824
   -443002.21157   -331793.71554  24508780.6334                   24508782.5354
 -32077981.28558 -24981363.11756  20543993.7734                   20543989.1604
 11  8 22  0  1  0.0000000  0  9G10G12G09G17G05G04G25G02G30
 -28137504.69948 -21913030.52046  20815204.0864                   20815201.7664
 -20422574.39848 -15900527.30546  21630370.9614                   21630368.0274
 -15391772.64446 -11979320.85444  23221772.9924                   23221772.9844
 -30624494.75047 -23849454.42645  22864617.3834                   22864615.7974
 -15486502.75047 -12053307.45345  22269577.9064                   22269576.6454
 -32718603.52348 -25480121.17646  21280642.2504                   21280640.0084
   -570476.30547   -431124.10944  24484523.4064                   24484524.9964
 -32109750.22748 -25006118.12147  20537948.2974                   20537943.7814
   -188553.21156   -133691.94153  24244308.6884                   24244307.2154
 11  8 22  0  1 30.0000000  0  9G10G12G09G17G05G04G25G02G30
 -28175455.94148 -21942602.89546  20807982.0704                   20807979.8754
 -20516523.20348 -15973734.12946  21612493.2504                   21612490.3134
 -15343010.29846 -11941324.30844  23231053.0704                   23231052.5314
 -30600071.13347 -23830423.05945  22869265.5164                   22869264.0124
 -15606802.23447 -12147047.20745  22246685.4844                   22246684.0434
 -32669912.16848 -25442179.89146  21289907.8284                   21289906.0784
   -697796.60547   -530334.67644  24460295.2344                   24460297.0984
 -32141164.00448 -25030596.37547  20531970.6644                   20531966.0394
   -317813.62146   -234414.24243  24219710.6884                   24219710.8484
 11  8 22  0  2  0.0000000  0  9G10G12G09G17G05G04G25G02G30
 -28212766.21548 -21971675.80946  20800881.8444                   20800879.6994
 -20610076.94548 -16046633.10246  21594690.4694                   21594687.9264
 -15293981.62546 -11903120.20744  23240382.4144                   23240382.3094
 -30575482.22347 -23811262.89545  22873944.6024                   22873942.6374
 -15726838.97347 -12240582.22745  22223843.6484                   22223841.4844
 -32621015.94548 -25404078.95746  21299212.3524                   21299210.4804
   -824979.93047   -629438.52744  24436093.0234                   24436094.5434
 -32172242.72348 -25054813.54347  20526056.7034                   20526052.0514
   -446869.23846   -334977.01244  24195152.6884                   24195152.2234
 11  8 22  0  2 30.0000000  0  9G10G12G09G17G05G04G25G02G30
 -28249437.97748 -22000251.19146  20793903.4694                   20793901.0864
 -20703236.69548 -16119225.07446  21576962.9534                   21576960.0234
 -15244693.50846 -11864713.91844  23249761.8754                   23249760.8754
 -30550730.95347 -23791976.23045  22878654.8594                   22878653.6994
 -15846613.12147 -12333912.64545  22201050.8524                   22201049.8404
 -32571920.37947 -25365822.68746  21308554.7664                   21308553.1954
   -952027.10546   -728436.28544  24411916.5314                   24411918.1294
 -32202990.60948 -25078772.91446  20520205.3594                   20520200.4694
   -575720.35547   -435380.44544  24170632.4064                   24170631.9454
 11  8 22  0  3  0.0000000  0  9G10G12G09G17G05G04G25G02G30
 -28285469.46948 -22028327.66846  20787047.3134                   20787044.6684
 -20795998.65648 -16191507.08646  21559310.9454                   21559307.5474
 -15195148.03147 -11826107.10944  23259190.3204                   23259189.1724
 -30525815.43047 -23772561.54745  22883395.2974                   22883394.1764
 -15966120.75047 -12427035.38745  22178309.6804                   22178308.1524
 -32522626.43747 -25327411.83246  21317935.0704                   21317933.5554
  -1078934.48846   -827325.09443  24387766.9614                   24387768.4574
 -32233408.05548 -25102474.80946  20514417.2894                   20514412.4264
   -704363.19547   -535621.57844  24146152.9304                   24146151.3954
 11  8 22  0  3 30.0000000  0  9G10G12G09G17G05G04G25G02G30
 -28320857.71148 -22055902.90646  20780313.0234                   20780310.9804
 -20888358.10548 -16263475.45746  21541735.1484                   21541732.4534
 -15145346.82447 -11787301.03944  23268666.8834                   23268666.7384
 -30500733.30947 -23753017.05145  22888169.0704                   22888167.6294
 -16085356.69147 -12519946.41045  22155619.4454                   22155618.3164
 -32473134.45348 -25288846.67246  21327353.4694                   21327351.1764
  -1205697.49246   -926101.39143  24363644.4454                   24363645.8134
 -32263493.78548 -25125918.21147  20508691.9534                   20508687.3134
   -832793.02046   -635696.71144  24121713.0554                   24121711.7974
 11  8 22  0  4  0.0000000  0  9G10G12G09G17G05G04G25G02G30
 -28355599.20748 -22082974.18746  20773701.7424                   20773699.4454
 -20980310.54348 -16335126.66846  21524237.1804                   21524234.1884
 -15095291.00047 -11748296.55144  23278191.9924                   23278191.5824
 -30475481.32447 -23733340.19945  22892974.0634                   22892972.8204
 -16204316.09047 -12612641.96546  22132982.1804                   22132981.2274
 -32423443.92248 -25250126.78146  21336809.0394                   21336807.6844
  -1332311.36346  -1024761.47343  24339549.0234                   24339550.7344
 -32293246.32448 -25149101.99246  20503030.3594                   20503025.6844
   -961004.56646   -735601.78143  24097315.6024                   24097314.3674
 11  8 22  0  4 30.0000000  0  9G10G12G09G17G05G04G25G02G30
 -28389692.45348 -22109540.33246  20767213.9144                   20767212.0004
 -21071852.35248 -16406457.92246  21506817.5394                   21506814.5784
 -15044982.84847 -11709095.48444  23287765.6024                   23287765.6994
 -30450057.88347 -23713529.75445  22897811.7974                   22897810.4964
 -16322994.58247 -12705118.61346  22110398.7344                   22110397.7034
 -32373556.11748 -25211253.16446  21346302.4304                   21346300.2934
  -1458772.45346  -1123302.50843  24315485.9844                   24315486.6454
 -32322666.23448 -25172026.58247  20497431.8834                   20497427.2194
  -1088994.07046   -835333.78143  24072959.1484                   24072959.3364
 11  8 22  0  5  0.0000000  0  9G10G12G09G17G05G04G25G02G30
 -28423136.38348 -22135600.51646  20760849.7974                   20760847.5984
 -21162980.43447 -16477466.78546  21489476.6724                   21489473.1914
 -14994425.17247 -11669699.96544  23297386.8284                   23297386.6254
 -30424461.92647 -23693584.87945  22902682.6094                   22902681.1294
 -16441388.97347 -12797373.88745  22087868.4384                   22087867.2774
 -32323472.75048 -25172227.16846  21355832.8594                   21355831.2384
  -1585077.87947  -1221722.27343  24291450.5704                   24291451.7304
 -32351753.52048 -25194691.98046  20491896.4844                   20491892.0314
  -1216758.30146   -934890.24243  24048647.4224                   24048645.5784
 11  8 22  0  5 30.0000000  0  9G10G12G09G17G05G04G25G02G30
 -28455930.36748 -22161154.24246  20754609.4614                   20754607.3594
 -21253692.66848 -16548151.61746  21472214.5394                   21472211.4924
 -14943621.81646 -11630113.01644  23307053.4064                   23307054.0434
 -30398692.94147 -23673505.18045  22907586.4224                   22907585.0824
 -16559496.27047 -12889405.46546  22065393.7664                   22065392.3984
 -32273196.09048 -25133050.55146  21365400.2274                   21365398.7934
  -1711225.20747  -1320018.85544  24267445.5864                   24267446.3554
 -32380509.45348 -25217099.18046  20486424.5634                   20486419.9844
  -1344294.72746  -1034269.23043  24024376.9924                   24024376.1374
 11  8 22  0  6  0.0000000  0  9G10G12G09G17G05G04G25G02G30
 -26912653.53148 -20958600.84446  21048284.9224                   21048283.0634
 -19768564.11747 -15390908.57446  21754824.8834                   21754821.7074
 -13317158.06646 -10362738.75444  23616559.0784                   23616559.7194
 -28797331.84047 -22425691.35945  23212315.6884                   23212314.5944
 -15101890.37947 -11753608.56646  22342766.4924                   22342765.4654
 -30647310.52348 -23866126.72345  21674795.9454                   21674793.9494
   -261788.27347   -190587.39544  24543264.3524                   24543266.0744
 -30833514.88348 -24011648.85247  20780807.9774                   20780803.0434
    103823.21146     94134.45743  24299944.6884                   24299943.8284
 11  8 22  0  6 30.0000000  0  9G10G12G09G17G05G04G25G02G30
 -26944147.07848 -20983141.25046  21042292.1954                   21042289.6254
 -19858438.34848 -15460940.41846  21737722.7664                   21737719.5634
 -13265874.36346 -10322777.52744  23626319.3674                   23626319.1334
 -28771216.53147 -22405341.77345  23217284.6724                   23217283.6414
 -15219416.13747 -11845187.00046  22320402.0164                   22320400.9344
 -30596654.71548 -23826654.65646  21684435.4924                   21684433.1884
   -387613.09047   -288632.62144  24519320.5394                   24519321.5434
 -30861612.88348 -24033543.37547  20775461.3054                   20775456.4804
    -23250.17647     -4883.72343  24275764.3134                   24275762.6844
 11  8 22  0  7  0.0000000  0  9G10G12G09G17G05G04G25G02G30
 -26974991.35548 -21007175.72746  21036422.6094                   21036420.1914
 -19947891.73048 -15530644.33646  21720699.9064                   21720697.1054
 -13214357.42647 -10282634.53944  23636122.6414                   23636122.0004
 -28744928.93047 -22384857.94545  23222287.4144                   23222286.2034
 -15336648.73047 -11936536.98846  22298093.7584                   22298091.7034
 -30545814.32048 -23787038.75845  21694110.3914                   21694108.1914
   -513274.70347   -386550.66844  24495408.0164                   24495409.4224
 -30889385.65248 -24055184.48447  20770176.1644                   20770171.1644
   -150089.71147   -103719.64143  24251627.1954                   24251625.6604
 11  8 22  0  7 30.0000000  0  9G10G12G09G17G05G04G25G02G30
 -27005186.96148 -21030704.73846  21030676.3594                   21030674.1374
 -20036923.34047 -15600019.60546  21703757.9384                   21703754.8834
 -13162611.82847 -10242313.35244  23645969.0784                   23645969.4414
 -28718469.43447 -22364240.17245  23227322.3054                   23227321.5704
 -15453586.02047 -12027656.87146  22275840.8524                   22275839.7734
 -30494792.78948 -23747281.71545  21703819.2584                   21703817.2234
   -638771.80946   -484340.51644  24471526.1884                   24471527.8134
 -30916835.18748 -24076573.71547  20764952.5704                   20764947.6994
   -276693.92647   -202372.20344  24227535.0234                   24227534.2034
 11  8 22  0  8  0.0000000  0  9G10G12G09G17G05G04G25G02G30
 -27034734.88747 -21053729.06246  21025053.6644                   21025051.3954
 -20125531.99247 -15669065.28946  21686896.0004                   21686893.1024
 -13110642.46947 -10201817.82044  23655859.3054                   23655858.6604
 -28691839.20747 -22343489.35245  23232390.6644                   23232388.5084
 -15570226.85547 -12118545.74246  22253644.5634                   22253643.2584
 -30443593.52048 -23707386.17245  21713561.7894                   21713560.0704
   -764103.32447   -582001.32443  24447676.5314                   24447677.3834
 -30943964.09848 -24097713.11747  20759789.9304                   20759784.8484
   -403061.32846   -300840.24643  24203488.1644                   24203486.9024
 11  8 22  0  8 30.0000000  0  9G10G12G09G17G05G04G25G02G30
 -27063635.46148 -21076248.97746  21019553.9224                   21019551.5164
 -20213716.14847 -15737780.20746  21670115.5474                   21670112.4104
 -13058453.97347 -10161151.50444  23665790.0864                   23665789.3834
 -28665038.43447 -22322605.64545  23237490.1564                   23237488.4344
 -15686569.18747 -12209202.03146  22231505.6334                   22231503.8404
 -30392219.57048 -23667354.53145  21723338.1564                   21723336.1134
   -889267.62147   -679531.84843  24423858.7504                   24423859.9534
 -30970774.18748 -24118604.09447  20754688.1644                   20754683.4734
   -529190.14846   -399122.33243  24179487.0234                   24179485.0554
 11  8 22  0  9  0.0000000  0  9G10G12G09G17G05G04G25G02G30
 -27091890.13747 -21098265.57046  21014177.4924                   21014175.2624
 -20301475.62548 -15806164.19546  21653415.0864                   21653412.1914
 -13006051.74247 -10120318.64544  23675761.7894                   23675761.1954
 -28638068.58647 -22301590.20745  23242622.7894                   23242620.8914
 -15802612.30147 -12299625.14546  22209423.6094                   22209421.8984
 -30340675.31248 -23627190.17646  21733146.8134                   21733145.1254
  -1014264.38747   -776931.88344  24400072.2814                   24400073.4224
 -30997269.00848 -24139249.39147  20749646.3594                   20749641.3404
   -655079.73446   -497218.04343  24155530.5314                   24155528.9454
 11  8 22  0  9 30.0000000  0  9G10G12G09G17G05G04G25G02G30
 -27119504.27047 -21119783.05946  21008922.4454                   21008920.3954
 -20388813.91847 -15874220.00046  21636795.3834                   21636792.5824
 -12953444.89147 -10079326.33244  23685772.9224                   23685771.6644
 -28610934.92247 -22280447.10945  23247785.7274                   23247784.1994
 -15918359.06247 -12389817.35246  22187397.2274                   22187395.5984
 -30288968.34848 -23586899.05545  21742985.8914                   21742984.9614
  -1139096.54347   -874203.65643  24376317.7584                   24376318.1374
 -31023455.23848 -24159654.23846  20744663.0394                   20744658.6684
   -780732.96146   -595129.52743  24131618.9454                   24131617.2934
 11  8 22  0 10  0.0000000  0  9G10G12G09G17G05G04G25G02G30
 -27146479.62948 -21140802.78946  21003789.3364                   21003786.7194
 -20475730.12947 -15941946.90246  21620255.8914                   21620252.7504
 -12900638.41847 -10038178.48844  23695821.6954                   23695820.9574
 -28583638.79747 -22259177.42644  23252979.7584                   23252978.0434
 -16033808.30947 -12479777.73046  22165427.8834                   22165426.4844
 -30237102.53148 -23546484.14545  21752855.8204                   21752854.3364
  -1263763.50047   -971346.72343  24352594.4144                   24352594.1334
 -31049335.46148 -24179820.63747  20739738.2584                   20739733.5434
   -906148.91846   -692856.14543  24107753.2814                   24107751.1844
 11  8 22  0 10 30.0000000  0  9G10G12G09G17G05G04G25G02G30
 -27172820.71947 -21161328.28546  20998776.8204                   20998774.4184
 -20562226.89147 -16009346.95746  21603795.7034                   21603793.0744
 -12847641.00447  -9996881.84844  23705906.3284                   23705905.8874
 -28556184.60547 -22237784.57845  23258204.7424                   23258202.7734
 -16148962.02347 -12569507.82046  22143515.0944                   22143513.1094
 -30185084.88348 -23505950.93045  21762754.7114                   21762753.0944
  -1388267.57447  -1068362.87544  24328902.2664                   24328902.3524
 -31074916.50448 -24199753.91447  20734870.5944                   20734865.7584
  -1031329.56246   -790399.44543  24083932.1564                   24083929.8954
 11  8 22  0 11  0.0000000  0  9G10G12G09G17G05G04G25G02G30
 -27198532.68747 -21181363.56246  20993884.1094                   20993881.3834
 -20648307.35547 -16076422.62946  21587415.2584                   21587412.2934
 -12794461.59046  -9955443.44944  23716026.1174                   23716026.0784
 -28528577.06247 -22216272.22344  23263457.4614                   23263455.8634
 -16263822.98047 -12659009.78146  22121657.5234                   22121656.1604
 -30132923.21548 -23465305.48445  21772680.4694                   21772679.1454
  -1512611.87547  -1165254.45744  24305240.1254                   24305241.2464
 -31100204.62548 -24219458.94947  20730058.0474                   20730053.8324
  -1156277.76247   -887761.66843  24060155.5234                   24060152.4454
 11  8 22  0 11 30.0000000  0  9G10G12G09G17G05G04G25G02G30
 -27223621.90647 -21200913.57446  20989109.6024                   20989106.8554
 -20733976.21148 -16143177.55146  21571112.9844                   21571109.9304
 -12741110.54346  -9913871.26244  23726178.9924                   23726178.4734
 -28500822.76247 -22194645.53144  23268739.0474                   23268738.0044
 -16378395.22347 -12748286.77046  22099855.1414                   22099853.6024
 -30080626.27347 -23424554.64845  21782632.4774                   21782630.9184
  -1636800.67647  -1262024.86344  24281607.3364                   24281608.2424
 -31125208.02348 -24238942.10947  20725300.3364                   20725295.4534
  -1280997.66047   -984945.99243  24036422.4304                   24036419.6094
 11  8 22  0 12  0.0000000  0  9G10G12G09G17G05G04G25G02G30
 -27248092.64547 -21219981.65246  20984452.7814                   20984450.6024
 -20819235.56247 -16209613.39146  21554888.7194                   21554885.9734
 -12687595.59846  -9872171.39544  23736362.3284                   23736362.3244
 -28472925.44147 -22172907.38344  23274047.8914                   23274046.6484
 -16492680.21947 -12837339.93746  22078107.9144                   22078105.6644
 -30028200.85248 -23383703.71145  21792608.8364                   21792607.1724
  -1760835.82846  -1358675.52344  24258004.0234                   24258005.8444
 -31149932.22348 -24258207.71547  20720595.1804                   20720590.7154
  -1405490.82047  -1081953.62143  24012732.1174                   24012730.2424
 11  8 22  0 12 30.0000000  0  9G10G12G09G17G05G04G25G02G30
 -27271952.98847 -21238574.10546  20979912.5004                   20979910.3874
 -20904091.30147 -16275734.71946  21538740.7974                   21538738.1914
 -12633928.39846  -9830352.88744  23746575.0864                   23746575.6054
 -28444892.66047 -22151063.69544  23279382.5864                   23279380.9804
 -16606683.10247 -12926173.27346  22056413.4774                   22056411.5984
 -29975656.72348 -23342760.27045  21802607.6334                   21802606.0004
  -1884723.05946  -1455210.86744  24234429.2344                   24234430.4804
 -31174386.54748 -24277263.03947  20715941.9454                   20715937.4454
  -1529762.59447  -1178788.67644  23989083.2734                   23989082.5744
 11  8 22  0 13  0.0000000  0  9G10G12G09G17G05G04G25G02G30
 -27295207.87947 -21256694.77746  20975487.1644                   20975485.0004
 -20988546.59847 -16341544.01246  21522669.6804                   21522666.4384
 -12580118.09046  -9788422.87544  23756814.5164                   23756815.2234
 -28416729.22747 -22129118.18444  23284741.9534                   23284740.4454
 -16720406.67247 -13014788.96146  22034772.7424                   22034771.0004
 -29923001.51648 -23301730.26245  21812627.7344                   21812625.6214
  -2008465.09846  -1551633.07044  24210880.9774                   24210883.1294
 -31198577.59448 -24296113.19546  20711338.2274                   20711334.0164
  -1653815.69546  -1275453.33243  23965476.5394                   23965476.1254
 11  8 22  0 13 30.0000000  0  9G10G12G09G17G05G04G25G02G30
 -27317863.73047 -21274348.67246  20971175.9534                   20971173.7074
 -21072605.05548 -16407044.08246  21506673.6724                   21506670.2624
 -12526173.90647  -9746388.55145  23767080.1024                   23767080.4494
 -28388440.95347 -22107075.40244  23290124.6644                   23290123.3404
 -16833854.60247 -13103189.86346  22013183.9144                   22013182.2114
 -29870243.48448 -23260620.14145  21822667.2114                   21822665.4574
  -2132065.45747  -1647944.91844  24187361.5704                   24187362.4534
 -31222512.59448 -24314763.84846  20706783.8054                   20706778.9574
  -1777653.43046  -1371950.13343  23941910.8134                   23941910.5784
 11  8 22  0 14  0.0000000  0  9G10G12G09G17G05G04G25G02G30
 -27339925.97747 -21291540.01646  20966977.4224                   20966975.4184
 -21156270.41047 -16472237.84046  21490753.4064                   21490750.5394
 -12472105.28947  -9704257.26244  23777369.5314                   23777369.4384
 -28360033.30547 -22084939.62944  23295530.5234                   23295528.9654
 -16947029.57847 -13191378.07846  21991647.3134                   21991645.7424
 -29817390.77048 -23219436.23045  21832724.7194                   21832722.5084
  -2255527.59847  -1744149.09445  24163867.5164                   24163868.6094
 -31246198.61748 -24333220.48447  20702276.6334                   20702271.1024
  -1901279.00446  -1468281.57444  23918384.4224                   23918385.0004
 11  8 22  0 14 30.0000000  0  9G10G12G09G17G05G04G25G02G30
 -27361402.00047 -21308274.55546  20962890.7344                   20962888.6764
 -21239548.24247 -16537129.62946  21474905.2504                   21474902.5084
 -12417923.53947  -9662037.77045  23787679.4454                   23787679.8054
 -28331513.36747 -22062716.35944  23300957.6954                   23300956.7154
 -17059936.81247 -13279357.66446  21970162.0314                   21970160.0904
 -29764452.77348 -23178185.87545  21842798.7114                   21842797.1764
  -2378856.77747  -1840249.67645  24140398.8444                   24140400.0824
 -31269644.74248 -24351490.18747  20697815.1884                   20697810.3204
  -2024697.32846  -1564451.57443  23894899.7194                   23894899.7384
 11  8 22  0 15  0.0000000  0  9G10G12G09G17G05G04G25G02G30
 -27382298.60948 -21324557.60546  20958914.4774                   20958912.1454
 -21322442.49248 -16601722.52746  21459131.4844                   21459128.2234
 -12363638.17247  -9619737.58244  23798010.0004                   23798009.7934
 -28302887.12547 -22040410.25444  23306405.2344                   23306404.6764
 -17172579.31247 -13367130.97346  21948726.4534                   21948725.0204
 -29711438.04348 -23136875.73045  21852886.8674                   21852885.0594
  -2502056.69547  -1936249.54744  24116954.3834                   24116954.9024
 -31292858.56248 -24369578.87146  20693397.6334                   20693392.7544
  -2147911.96147  -1660462.85944  23871453.4454                   23871452.3404
 11  8 22  0 15 30.0000000  0  9G10G12G09G17G05G04G25G02G30
 -27402620.21148 -21340392.61346  20955047.3674                   20955045.0864
 -21404955.63748 -16666018.46546  21443429.8204                   21443426.6374
 -12309257.29747  -9577362.94944  23808357.8364                   23808358.7664
 -28274158.39847 -22018024.28544  23311873.1024                   23311871.4574
 -17284959.49647 -13454699.86346  21927341.0474                   21927339.7624
 -29658353.14148 -23095510.88345  21862988.5704                   21862986.7114
  -2625129.35247  -2032150.26644  24093534.5864                   24093535.0274
 -31315845.63748 -24387490.87147  20689023.1024                   20689018.5434
  -2270924.62947  -1756316.79344  23848044.1954                   23848043.2304
 11  8 22  0 16  0.0000000  0  9G10G12G09G17G05G04G25G02G30
 -27422372.47348 -21355783.96946  20951288.4924                   20951286.1564
 -21487091.43747 -16730020.36346  21427799.2974                   21427796.9384
 -12254790.22347  -9534921.16044  23818723.0474                   23818723.3484
 -28245332.84447 -21995562.83244  23317357.7814                   23317356.4574
 -17397080.28147 -13542066.63346  21906005.5864                   21906003.3714
 -29605205.89148 -23054097.46945  21873102.4224                   21873100.6174
  -2748078.21547  -2127954.54744  24070137.4224                   24070137.4224
 -31338613.30948 -24405231.91046  20684690.7274                   20684685.8134
  -2393738.65647  -1852015.94944  23824674.4144                   23824672.3794
 11  8 22  0 16 30.0000000  0  9G10G12G09G17G05G04G25G02G30
 -27441561.78148 -21370736.66446  20947636.7974                   20947634.2774
 -21568853.49648 -16793731.04746  21412240.9694                   21412237.5044
 -12200246.63347  -9492419.74644  23829102.1254                   23829102.5984
 -28216415.76247 -21973030.07845  23322860.0704                   23322859.4804
 -17508944.85547 -13629233.76646  21884717.8364                   21884716.0514
 -29552004.59048 -23012641.93745  21883226.2344                   21883224.1134
  -2870906.66447  -2223664.96544  24046764.3914                   24046764.3444
 -31361168.80548 -24422807.61347  20680398.6094                   20680393.5984
  -2516357.21947  -1947562.81244  23801340.3054                   23801339.2154
 11  8 22  0 17  0.0000000  0  9G10G12G09G17G05G04G25G02G30
 -27460194.09048 -21385255.34046  20944091.3674                   20944089.4494
 -21650245.92247 -16857153.69546  21396752.7114                   21396749.1884
 -12145635.88347  -9449865.98843  23839494.1954                   23839494.7934
 -28187412.91447 -21950430.48444  23328379.6174                   23328378.6954
 -17620556.52347 -13716203.83646  21863478.9384                   21863477.4614
 -29498756.90648 -22971150.25445  21893358.6484                   21893357.0124
  -2993618.15247  -2319284.22744  24023412.3204                   24023413.1844
 -31383519.22348 -24440223.52047  20676145.1414                   20676140.6174
  -2638783.48847  -2042959.87943  23778043.5944                   23778040.6094
 11  8 22  0 17 30.0000000  0  9G10G12G09G17G05G04G25G02G30
 -27478275.69148 -21399344.86746  20940650.4304                   20940648.0984
 -21731272.58647 -16920291.35246  21381333.3594                   21381330.4804
 -12090967.71946  -9407267.52743  23849896.6414                   23849897.5164
 -28158330.24247 -21927768.68744  23333914.1414                   23333912.4304
 -17731918.57047 -13802979.38746  21842287.4534                   21842285.7814
 -29445471.32848 -22929629.05945  21903498.3674                   21903497.4694
  -3116216.35247  -2414815.18744  24000082.5944                   24000083.6254
 -31405672.15248 -24457485.53147  20671929.8054                   20671924.8754
  -2761021.04347  -2138209.89543  23754782.0864                   23754779.3754
 11  8 22  0 18  0.0000000  0  9G10G12G09G17G05G04G25G02G30
 -27495813.38348 -21413010.59446  20937313.1724                   20937310.6214
 -21811938.14548 -16983147.61746  21365983.0944                   21365980.4844
 -12036252.05546  -9364632.02343  23860308.8984                   23860308.9304
 -28129173.71547 -21905049.37144  23339462.5234                   23339460.7464
 -17843035.28547 -13889563.76646  21821142.9144                   21821141.0164
 -29392156.41048 -22888084.97345  21913644.0234                   21913642.5314
  -3238705.39847  -2510261.08644  23976774.2504                   23976775.1724
 -31427635.42248 -24474599.75847  20667750.3284                   20667745.5434
  -2883073.70346  -2233315.80543  23731555.9384                   23731553.8754
 11  8 22  0 18 30.0000000  0  9G10G12G09G17G05G04G25G02G30
 -27512814.35948 -21426258.08646  20934078.1334                   20934075.5204
 -21892247.77348 -17045726.54746  21350701.1484                   21350697.6134
 -11981499.58646  -9321967.84843  23870727.9614                   23870728.1804
 -28099949.55547 -21882277.32445  23345023.1724                   23345022.3244
 -17953910.57447 -13975960.03546  21800043.4304                   21800042.1334
 -29338821.11748 -22846525.02345  21923793.2034                   21923791.7034
  -3361089.66847  -2605625.36344  23953485.1954                   23953486.3054
 -31449417.39148 -24491572.71147  20663605.3134                   20663600.6564
  -3004945.76646  -2328280.97343  23708365.2424                   23708362.6564
 11  8 22  0 19  0.0000000  0  9G10G12G09G17G05G04G25G02G30
 -27529287.58648 -21439094.35246  20930943.4144                   20930941.1644
 -21972207.52748 -17108032.84446  21335485.5314                   21335482.3634
 -11926722.70347  -9279284.64843  23881152.1414                   23881152.7704
 -28070666.39147 -21859459.31245  23350596.3204                   23350594.3284
 -18064550.98047 -14062173.28146  21778989.0164                   21778987.7234
 -29285476.46148 -22804957.77345  21933944.4774                   21933943.3094
  -3483375.55947  -2700912.99644  23930215.1644                   23930216.0314
 -31471028.07448 -24508412.19947  20659493.0394                   20659487.9924
  -3126643.34446  -2423110.14143  23685205.6884                   23685204.4414
 11  8 22  0 19 30.0000000  0  9G10G12G09G17G05G04G25G02G30
 -27545241.44948 -21451525.91846  20927907.0634                   20927904.8134
 -22051823.36348 -17170071.15246  21320334.9454                   21320331.8284
 -11871932.82447  -9236591.32044  23891578.9454                   23891579.0124
 -28041331.86747 -21836601.30545  23356178.0864                   23356177.1804
 -18174961.65647 -14148207.50446  21757978.9454                   21757976.6414
 -29232132.30948 -22763390.91845  21944095.7664                   21944093.9104
  -3605568.46547  -2796128.17245  23906962.3054                   23906963.5274
 -31492476.77748 -24525125.46146  20655411.7504                   20655406.6254
  -3248171.74646  -2517807.49644  23662080.6724                   23662079.0164
 11  8 22  0 20  0.0000000  0  9G10G12G09G17G05G04G25G02G30
 -27560680.59448 -21463556.41046  20924968.9384                   20924966.8094
 -22131097.79747 -17231843.42646  21305249.1254                   21305246.4064
 -11817137.51647  -9193893.78144  23902005.8984                   23902006.4844
 -28011950.03147 -21813706.39145  23361769.5474                   23361767.7544
 -18285144.43447 -14234064.14546  21737011.9144                   21737010.3524
 -29178794.89848 -22721829.31245  21954245.3134                   21954243.5944
  -3727670.25847  -2891272.34044  23883726.7504                   23883727.6094
 -31513769.33248 -24541717.05547  20651359.6174                   20651354.8954
  -3369532.55147  -2612374.25844  23638985.7504                   23638984.7304
 11  8 22  0 20 30.0000000  0  9G10G12G09G17G05G04G25G02G30
 -27575613.94148 -21475192.77746  20922127.5084                   20922125.3524
 -22210037.66848 -17293355.00446  21290227.6094                   21290224.4344
 -11762349.03547  -9151201.55144  23912432.4384                   23912432.6804
 -27982529.33647 -21790781.20345  23367367.7734                   23367366.7074
 -18395105.07047 -14319747.69946  21716087.1024                   21716085.6024
 -29125475.19148 -22680281.51245  21964392.0634                   21964390.6524
  -3849687.19147  -2986350.39845  23860508.3054                   23860509.2894
 -31534915.68448 -24558194.71946  20647335.5314                   20647331.1954
  -3490731.80547  -2706815.16444  23615923.1254                   23615921.3484
 11  8 22  0 21  0.0000000  0  9G10G12G09G17G05G04G25G02G30
 -27590048.38348 -21486440.37546  20919380.7894                   20919378.1644
 -22288646.88748 -17354608.92646  21275269.0704                   21275265.6174
 -11707577.28547  -9108522.37944  23922854.7114                   23922854.8444
 -27953075.29747 -21767830.04745  23372973.0554                   23372971.9844
 -18504847.25447 -14405261.03546  21695203.7194                   21695201.8484
 -29072181.43748 -22638753.91845  21974533.5004                   21974532.3954
  -3971622.97347  -3081365.25044  23837303.9694                   23837305.2544
 -31555923.39148 -24574564.35947  20643337.9844                   20643333.2504
  -3611773.14147  -2801133.02344  23592889.3754                   23592887.4024
 11  8 22  0 21 30.0000000  0  9G10G12G09G17G05G04G25G02G30
 -27603988.60948 -21497302.87946  20916727.8674                   20916725.5704
 -22366928.05948 -17415607.22746  21260372.3834                   21260369.3324
 -11652830.10547  -9065862.32044  23933273.4304                   23933273.4144
 -27923591.96547 -21744856.06245  23378583.6174                   23378582.0434
 -18614372.85547 -14490605.59846  21674361.5704                   21674360.1094
 -29018919.87948 -22597251.42645  21984668.8054                   21984667.2074
  -4093479.35947  -3176318.22744  23814115.9224                   23814116.5904
 -31576797.98848 -24590830.27347  20639365.7034                   20639360.9384
  -3732658.13347  -2895329.05144  23569885.3134                   23569883.6374
 11  8 22  0 22  0.0000000  0  9G10G12G09G17G05G04G25G02G30
 -27617438.34848 -21507783.18746  20914168.2894                   20914165.9774
 -22444882.44148 -17476350.89546  21245538.3754                   21245535.1524
 -11598114.29347  -9023226.73044  23943685.4614                   23943686.3834
 -27894082.71147 -21721861.89145  23384199.2344                   23384198.0634
 -18723682.73448 -14575782.05546  21653560.9304                   21653558.5634
 -28965695.98048 -22555778.27745  21994797.1334                   21994795.1564
  -4215257.43747  -3271210.18744  23790942.0704                   23790942.5664
 -31597544.44548 -24606996.34447  20635417.7194                   20635412.7034
  -3853387.57847  -2989403.89544  23546911.5554                   23546909.7274
 11  8 22  0 22 30.0000000  0  9G10G12G09G17G05G04G25G02G30
 -27630400.35948 -21517883.44946  20911701.8444                   20911699.6564
 -22522510.78548 -17536840.50046  21230765.8054                   21230763.1564
 -11543435.73047  -8980620.18444  23954090.1644                   23954091.0004
 -27864549.21947 -21698848.82445  23389819.1804                   23389817.5984
 -18832776.56647 -14660790.18046  21632800.4534                   21632799.0204
 -28912514.06248 -22514337.84845  22004917.5084                   22004915.6454
  -4336957.01247  -3366040.95744  23767782.8054                   23767783.0664
 -31618166.56648 -24623065.53146  20631492.9924                   20631488.3164
  -3973961.13747  -3083357.25444  23523966.9064                   23523964.8364
 11  8 22  0 23  0.0000000  0  9G10G12G09G17G05G04G25G02G30
 -27642875.50448 -21527604.34446  20909327.9224                   20909325.8834
 -22599810.84848 -17597074.29346  21216055.8754                   21216053.3164
 -11488798.10547  -8938045.52744  23964487.3364                   23964488.0514
 -27834991.53547 -21675816.89145  23395443.7814                   23395442.9924
 -18941652.18047 -14745628.25446  21612082.3524                   21612080.4304
 -28859376.14148 -22472931.69945  22015028.4774                   22015027.1994
  -4458575.72347  -3460808.73044  23744640.4384                   23744640.4614
 -31638665.69148 -24639038.88347  20627592.4454                   20627588.2854
  -4094376.30146  -3177187.20744  23501052.5004                   23501051.1954
 11  8 22  0 23 30.0000000  0  9G10G12G09G17G05G04G25G02G30
 -27654864.67248 -21536946.54746  20907046.7424                   20907044.2774
 -22676781.27048 -17657051.22746  21201409.1954                   21201406.0474
 -11434205.45747  -8895505.92644  23974876.6334                   23974877.0554
 -27805409.35947 -21652765.92644  23401072.8364                   23401071.9384
 -19050307.30547 -14830294.52346  21591406.0634                   21591404.0554
 -28806284.77348 -22431561.82045  22025131.8754                   22025130.3444
  -4580111.41847  -3555511.83644  23721512.3984                   23721512.2544
 -31659043.59048 -24654917.75847  20623714.9924                   20623710.1174
  -4214630.93047  -3270892.07443  23478168.5704                   23478167.3794
 11  8 22  0 24  0.0000000  0  9G10G12G09G17G05G04G25G02G30
 -27666365.79748 -21545908.45746  20904857.8054                   20904855.5984
 -22753417.52048 -17716767.77346  21186825.4064                   21186822.6254
 -11379658.41446  -8853001.84844  23985256.4064                   23985256.2114
 -27775800.11347 -21629693.83245  23406707.5704                   23406706.8054
 -19158736.59047 -14914784.81646  21570772.5784                   21570770.8594
 -28753239.22747 -22390227.65245  22035226.3444                   22035224.5044
  -4701558.96547  -3650146.24645  23698402.2664                   23698402.7274
 -31679298.82048 -24670701.07446  20619860.2114                   20619855.6994
  -4334719.60546  -3364467.60943  23455316.0004                   23455315.3404
 11  8 22  0 24 30.0000000  0  9G10G12G09G17G05G04G25G02G30
 -27677375.61748 -21554487.53546  20902762.9304                   20902760.2584
 -22829713.61748 -17776219.25046  21172307.1334                   21172303.8364
 -11325156.74247  -8810533.10243  23995627.4534                   23995628.0664
 -27746159.26647 -21606597.10944  23412348.7664                   23412346.6484
 -19266933.55948 -14999094.07046  21550183.4694                   21550181.3134
 -28700237.66847 -22348927.75845  22045312.2504                   22045310.4144
  -4822911.91447  -3744706.96545  23675309.5784                   23675309.7624
 -31699429.00048 -24686386.93746  20616030.1334                   20616025.3404
  -4454635.66846  -3457908.66443  23432497.2424                   23432495.3794
 11  8 22  0 25  0.0000000  0  9G10G12G09G17G05G04G25G02G30
 -27687888.64548 -21562679.50446  20900762.2034                   20900759.7734
 -22905661.94948 -17835399.74646  21157854.7814                   21157851.6054
 -11270697.77746  -8768097.64843  24005990.1174                   24005991.6054
 -27716480.61746 -21583470.94544  23417995.6954                   23417994.2704
 -19374889.88348 -15083215.83246  21529639.7274                   21529637.8984
 -28647275.77748 -22307658.77745  22055390.5554                   22055388.9144
  -4944161.76247  -3839187.34845  23652236.5394                   23652237.0004
 -31719429.63748 -24701971.86347  20612223.7584                   20612219.1564
  -4574370.53547  -3551208.52044  23409712.3914                   23409711.2304
 11  8 22  0 25 30.0000000  0  9G10G12G09G17G05G04G25G02G30
 -27697899.98048 -21570480.53946  20898857.2584                   20898854.9964
 -22981254.69548 -17894303.16446  21143469.7344                   21143466.8554
 -11216279.14846  -8725693.65643  24016346.6334                   24016346.6844
 -27686758.49646 -21560310.86744  23423651.8204                   23423650.9924
 -19482597.51248 -15167143.78546  21509143.7734                   21509141.8404
 -28594349.80147 -22266417.78545  22065461.7274                   22065460.6294
  -5065300.34447  -3933581.01645  23629184.2894                   23629184.8284
 -31739296.09048 -24717452.22346  20608443.5474                   20608438.5474
  -4693915.77047  -3644360.63344  23386964.1334                   23386962.1644
 11  8 22  0 26  0.0000000  0  9G10G12G09G17G05G04G25G02G30
 -27707402.92648 -21577885.42646  20897049.2194                   20897046.4264
 -23056482.82848 -17952922.46946  21129154.2894                   21129151.4224
 -11161897.05147  -8683318.10243  24026695.3834                   24026695.7934
 -27656984.84846 -21537110.66844  23429316.6644                   23429315.6214
 -19590046.19548 -15250869.98046  21488696.9064                   21488694.6054
 -28541454.49647 -22225200.69945  22075527.4304                   22075525.5824
  -5186317.73447  -4027880.23845  23606155.4614                   23606155.8984
 -31759022.55148 -24732823.50847  20604689.6564                   20604684.8524
  -4813261.43047  -3737357.23444  23364253.6024                   23364251.5554
 11  8 22  0 26 30.0000000  0  9G10G12G09G17G05G04G25G02G30
 -27716388.96548 -21584887.52746  20895338.7034                   20895336.2424
 -23131335.21148 -18011248.98846  21114910.2344                   21114907.3834
 -11107546.01647  -8640966.74244  24037037.7894                   24037038.4304
 -27627150.12546 -21513862.85944  23434994.8754                   23434993.3094
 -19697224.41848 -15334385.41846  21468301.4144                   21468299.2154
 -28488582.47347 -22184001.75445  22085588.7424                   22085587.6684
  -5307202.30147  -4122075.93744  23583151.3054                   23583151.9104
 -31778600.94948 -24748079.41847  20600963.7194                   20600959.3594
  -4932395.68047  -3830189.09844  23341582.9694                   23341580.7934
 11  8 22  0 27  0.0000000  0  9G10G12G09G17G05G04G25G02G30
 -27724848.84848 -21591479.64146  20893729.4614                   20893726.6644
 -23205800.02048 -18069273.50046  21100740.2974                   21100737.2664
 -11053219.35947  -8598634.37143  24047375.7894                   24047375.9924
 -27597243.99246 -21490559.44144  23440685.5314                   23440684.3164
 -19804119.56248 -15417680.27746  21447959.9064                   21447957.6334
 -28435725.50047 -22142814.53945  22095646.8284                   22095645.8244
  -5427941.48047  -4216158.35944  23560175.1334                   23560176.5634
 -31798022.98048 -24763213.47747  20597268.0004                   20597263.1684
  -5051305.77047  -3922846.24644  23318955.0004                   23318953.1054
 11  8 22  0 27 30.0000000  0  9G10G12G09G17G05G04G25G02G30
 -27732771.45748 -21597653.10546  20892221.7584                   20892219.2974
 -23279863.70748 -18126985.44546  21086646.5234                   21086643.1684
 -10998908.68746  -8556314.46543  24057711.0164                   24057711.3244
 -27567254.80546 -21467191.32444  23446392.6174                   23446390.8594
 -19910717.20748 -15500743.31646  21427675.0784                   21427672.9844
 -28382873.94947 -22101631.53545  22105704.7034                   22105703.0944
  -5548521.02747  -4310116.39144  23537229.6024                   23537230.3284
 -31817278.34448 -24778217.67247  20593604.0864                   20593599.0824
  -5169977.40646  -4015317.61744  23296371.8674                   23296370.4924
 11  8 22  0 28  0.0000000  0  9G10G12G09G17G05G04G25G02G30
 -27740147.80948 -21603400.90246  20890818.2424                   20890815.8984
 -23353514.84848 -18184375.93446  21072631.0634                   21072627.9884
 -10944607.80146  -8514002.19143  24068043.8754                   24068044.3094
 -27537172.20346 -21443750.36344  23452116.2814                   23452115.5234
 -20017005.85948 -15583565.59446  21407448.9614                   21407446.9184
 -28330020.16047 -22060446.79345  22115762.0634                   22115760.5204
  -5668928.87147  -4403940.64844  23514317.0634                   23514317.6524
 -31836358.55948 -24793085.37946  20589973.1414                   20589968.1914
  -5288398.44146  -4107593.68444  23273836.8984                   23273835.6254
 11  8 22  0 28 30.0000000  0  9G10G12G09G17G05G04G25G02G30
 -27746966.56248 -21608714.21146  20889520.1414                   20889517.5634
 -23426738.79348 -18241433.54346  21058697.1484                   21058693.6024
 -10890307.56646  -8471690.43444  24078377.1804                   24078378.4614
 -27506983.42246 -21420226.68444  23457862.0634                   23457860.4384
 -20122970.19948 -15666135.15246  21387284.6174                   21387282.5594
 -28277153.17647 -22019251.76645  22125822.2194                   22125820.7034
  -5789149.70747  -4497619.20744  23491440.1254                   23491439.5274
 -31855252.31248 -24807807.78947  20586378.0474                   20586372.8204
  -5406553.32846  -4199662.34444  23251353.1484                   23251351.2624
 11  8 22  0 29  0.0000000  0  9G10G12G09G17G05G04G25G02G30
 -27753217.25048 -21613584.87546  20888330.7814                   20888328.3094
 -23499522.69148 -18298148.27046  21044846.6334                   21044843.3324
 -10836000.06246  -8429372.99244  24088712.1174                   24088712.8714
 -27476676.72346 -21396611.16444  23463629.0314                   23463627.8594
 -20228596.31648 -15748441.15646  21367184.1804                   21367182.4184
 -28224263.35247 -21978038.93745  22135886.8524                   22135885.7664
  -5909169.74247  -4591141.26244  23468601.2274                   23468600.9534
 -31873949.72348 -24822377.21147  20582819.8444                   20582814.9384
  -5524428.24647  -4291512.85544  23228922.5234                   23228920.3954
 11  8 22  0 29 30.0000000  0  9G10G12G09G17G05G04G25G02G30
 -27758888.82448 -21618004.28546  20887251.6644                   20887249.4064
 -23571852.68748 -18354509.29746  21031082.5164                   21031079.5004
 -10781676.72346  -8387043.25444  24099048.9224                   24099050.5274
 -27446240.04747 -21372894.30544  23469421.2034                   23469419.3714
 -20333869.84848 -15830472.43046  21347151.6024                   21347149.3554
 -28171340.79747 -21936800.60245  22145958.2424                   22145956.2544
  -6028974.55147  -4684495.60544  23445802.7974                   23445803.3364
 -31892439.91848 -24836785.15647  20579301.2114                   20579296.6684
  -5642008.56647  -4383133.86744  23206547.0784                   23206545.3444
 11  8 22  0 30  0.0000000  0  9G10G12G09G17G05G04G25G02G30
 -27763971.64848 -21621964.93046  20886284.0944                   20886281.6524
 -23643716.87948 -18410507.36746  21017407.3204                   21017404.1844
 -10727330.70746  -8344695.82444  24109390.8914                   24109391.8204
 -27415662.66447 -21349067.79344  23475239.0944                   23475238.6604
 -20438778.03548 -15912219.02746  21327188.1094                   21327186.0274
 -28118377.06647 -21895530.18745  22156037.2194                   22156035.0784
  -6148551.31647  -4777672.24644  23423047.7894                   23423047.9964
 -31910714.41048 -24851025.03547  20575823.4614                   20575818.6374
  -5759281.44547  -4474515.27344  23184230.5554                   23184229.5594
 11  8 22  0 30 30.0000000  0  9G10G12G09G17G05G04G25G02G30
 -27768454.28948 -21625457.89846  20885431.2274                   20885429.1334
 -23715101.49248 -18466131.74646  21003823.3834                   21003820.2544
 -10672953.20746  -8302323.89543  24119738.7974                   24119739.5474
 -27384932.42647 -21325122.23044  23481087.3914                   23481085.7344
 -20543306.49248 -15993669.71946  21307297.2814                   21307294.9064
 -28065361.76647 -21854219.57845  22166125.2734                   22166124.1844
  -6267885.33647  -4870659.73045  23400339.6724                   23400340.2344
 -31928762.21148 -24865088.24646  20572389.2894                   20572384.2034
  -5876231.98447  -4565645.50444  23161975.6724                   23161974.1374
 11  8 22  0 31  0.0000000  0  9G10G12G09G17G05G04G25G02G30
 -27772328.44948 -21628476.71946  20884693.9144                   20884691.8524
 -23785995.07448 -18521373.50046  20990332.4614                   20990329.3284
 -10618538.42246  -8259922.90644  24130093.5234                   24130094.7194
 -27354039.43047 -21301049.84844  23486966.6954                   23486965.5314
 -20647443.26648 -16074815.20746  21287480.2894                   21287478.2974
 -28012287.47347 -21812863.01645  22176225.4064                   22176223.7304
  -6386964.71147  -4963448.79744  23377679.3984                   23377679.2304
 -31946575.62148 -24878968.83246  20568999.5704                   20568994.6994
  -5992848.15247  -4656515.20344  23139785.2504                   23139783.2664
 11  8 22  0 31 30.0000000  0  9G10G12G09G17G05G04G25G02G30
 -27775584.97348 -21631014.25846  20884073.8914                   20884072.0204
 -23856385.95748 -18576223.55146  20976937.7424                   20976934.5634
 -10564079.23447  -8217487.30144  24140457.1414                   24140458.3834
 -27322972.98846 -21276842.24644  23492878.2894                   23492876.6994
 -20751175.78148 -16155645.68746  21267740.9064                   21267739.0274
 -27959145.48847 -21771453.69145  22186337.7974                   22186336.0664
  -6505776.52347  -5056029.37945  23355070.2734                   23355070.9024
 -31964145.25448 -24892659.45347  20565655.8754                   20565651.1844
  -6109117.06246  -4747114.30944  23117659.6644                   23117657.2704
 11  8 22  0 32  0.0000000  0  9G10G12G09G17G05G04G25G02G30
 -27778214.25448 -21633063.04346  20883573.7114                   20883571.6524
 -23926261.59048 -18630672.10246  20963640.8834                   20963637.2504
 -10509568.53147  -8175011.55144  24150831.1484                   24150830.8674
 -27291722.41847 -21252491.19944  23498825.0394                   23498823.6454
 -20854490.75448 -16236150.82046  21248080.6954                   21248078.6994
 -27905926.92247 -21729984.69145  22196464.8984                   22196462.9574
  -6624307.62147  -5148391.21945  23332514.6954                   23332515.1844
 -31981461.94148 -24906152.96546  20562360.7274                   20562356.1524
  -6225025.35947  -4837432.38744  23095602.8134                   23095601.5704
 11  8 22  0 32 30.0000000  0  9G10G12G09G17G05G04G25G02G30
 -27780206.16848 -21634615.17246  20883194.8524                   20883192.5044
 -23995608.77748 -18684708.87946  20950444.5394                   20950441.2774
 -10454998.21547  -8132489.35944  24161215.1564                   24161215.6684
 -27260276.37546 -21227987.85245  23504809.1024                   23504808.9104
 -20957374.35948 -16316319.81246  21228502.5084                   21228500.4184
 -27852622.36347 -21688448.68745  22206608.2274                   22206606.6724
  -6742544.28547  -5240523.64545  23310014.4304                   23310015.3404
 -31998515.64848 -24919441.56246  20559115.5314                   20559110.5554
  -6340559.27047  -4927458.77344  23073617.0084                   23073615.8404
 11  8 22  0 33  0.0000000  0  9G10G12G09G17G05G04G25G02G30
 -27781552.62148 -21635664.35946  20882938.8834                   20882936.2114
 -24064417.24648 -18738325.88346  20937350.9304                   20937347.7584
 -10400362.87147  -8089916.47744  24171611.6334                   24171612.3874
 -27228625.06647 -21203324.55544  23510832.5164                   23510830.4024
 -21059815.72748 -16396144.20746  21209008.5314                   21209006.5864
 -27799224.96147 -21646840.33645  22216769.5084                   22216768.2774
  -6860475.12547  -5332417.77345  23287573.3054                   23287573.3984
 -32015299.11348 -24932519.57847  20555921.6884                   20555916.7304
  -6455707.32047  -5017184.49644  23051705.7114                   23051703.7424
 11  8 22  0 33 30.0000000  0  9G10G12G09G17G05G04G25G02G30
 -27782245.53548 -21636204.29346  20882806.8444                   20882804.4844
 -24132676.41448 -18791514.85246  20924361.5944                   20924358.2304
 -10345656.56247  -8047288.34043  24182021.9384                   24182022.5434
 -27196759.60246 -21178494.38744  23516896.1334                   23516895.5824
 -21161803.52748 -16475615.18046  21189600.7894                   21189598.6484
 -27745726.92647 -21605153.57845  22226949.6644                   22226948.5594
  -6978088.38347  -5424064.44945  23265192.2814                   23265192.2274
 -32031804.48848 -24945380.91046  20552780.9454                   20552776.1294
  -6570457.64547  -5106600.26644  23029869.3284                   23029867.5004
 11  8 22  0 34  0.0000000  0  9G10G12G09G17G05G04G25G02G30
 -27782279.73448 -21636230.94146  20882800.5704                   20882798.1414
 -24200378.28548 -18844269.57046  20911478.4924                   20911475.2114
 -10290876.41447  -8004602.61343  24192445.9224                   24192447.1094
 -27164673.14846 -21153492.03544  23523002.2114                   23523001.0164
 -21263328.84448 -16554725.77046  21170281.2664                   21170278.8054
 -27692123.69947 -21563384.85245  22237150.0704                   22237148.6024
  -7095375.10547  -5515456.67245  23242872.9144                   23242873.9534
 -32048026.67248 -24958021.56246  20549693.8594                   20549689.1094
  -6684801.21947  -5195699.13744  23008110.1094                   23008108.3164
 11  8 22  0 34 30.0000000  0  9G10G12G09G17G05G04G25G02G30
 -27781647.35248 -21635738.17246  20882920.9304                   20882918.6454
 -24267511.95748 -18896581.53146  20898703.1174                   20898699.6804
 -10236016.77746  -7961854.94543  24202886.5634                   24202885.9454
 -27132356.62946 -21128310.38744  23529151.2034                   23529150.7854
 -21364380.28548 -16633467.10246  21151051.4224                   21151049.3134
 -27638408.21547 -21521528.66445  22247371.6804                   22247370.2274
  -7212323.87947  -5606585.55145  23220618.3134                   23220618.7814
 -32063958.31248 -24970435.82046  20546662.3674                   20546657.3484
  -6798726.60547  -5284472.13344  22986430.9224                   22986429.1914
 11  8 22  0 35  0.0000000  0  9G10G12G09G17G05G04G25G02G30
 -27780341.73448 -21634720.79746  20883168.9454                   20883166.7894
 -24334067.94948 -18948443.35946  20886037.7814                   20886035.0984
 -10181072.84446  -7919041.59443  24213341.1334                   24213342.1564
 -27099801.82846 -21102943.04344  23535346.8984                   23535345.7074
 -21464947.54748 -16711831.16846  21131914.4924                   21131912.6294
 -27584574.13747 -21479580.04345  22257616.2034                   22257615.3484
  -7328924.14847  -5697442.90245  23198430.3204                   23198430.8914
 -32079592.62948 -24982618.40246  20543687.1094                   20543682.0234
  -6912223.12947  -5372910.96544  22964833.0704                   22964831.5664
 11  8 22  0 35 30.0000000  0  9G10G12G09G17G05G04G25G02G30
 -27778356.89547 -21633174.16446  20883546.4454                   20883544.3554
 -24400037.44548 -18999848.17246  20873484.3364                   20873481.5634
 -10126041.01246  -7876159.72343  24223814.2034                   24223814.0314
 -27067001.32446 -21077384.27744  23541588.8364                   23541586.8204
 -21565021.29748 -16789810.66846  21112870.8914                   21112868.4414
 -27530615.98847 -21437534.76245  22267883.9694                   22267882.7384
  -7445166.34847  -5788021.18745  23176309.5634                   23176309.5434
 -32094923.67248 -24994564.67646  20540769.6884                   20540764.5394
  -7025281.02347  -5461008.01644  22943318.8914                   22943316.9414
 11  8 22  0 36  0.0000000  0  9G10G12G09G17G05G04G25G02G30
 -27775687.82448 -21631094.34846  20884054.5084                   20884052.1174
 -24465413.07048 -19050790.22346  20861043.8914                   20861040.5124
 -10070918.26646  -7833207.06643  24234303.1334                   24234304.2304
 -27033948.54746 -21051628.90644  23547878.0944                   23547877.1374
 -21664592.99248 -16867398.95346  21093923.2034                   21093920.9574
 -27476529.25847 -21395389.28945  22278176.5944                   22278174.5594
  -7561041.64847  -5878313.60545  23154259.4064                   23154260.3594
 -32109946.65248 -25006270.89146  20537910.8204                   20537905.9494
  -7137891.64847  -5548756.53144  22921889.7814                   22921888.4414
 11  8 22  0 36 30.0000000  0  9G10G12G09G17G05G04G25G02G30
 -27772329.91048 -21628477.78946  20884693.7734                   20884691.4694
 -24530187.08248 -19101263.48046  20848717.6644                   20848714.3874
 -10015702.19546  -7790181.67643  24244810.3834                   24244812.4384
 -27000637.46146 -21025672.28144  23554216.5704                   23554216.5314
 -21763654.46148 -16944589.66846  21075072.3134                   21075069.9144
 -27422309.77747 -21353140.36745  22288494.4844                   22288492.7344
  -7676541.54747  -5968313.49645  23132280.8754                   23132281.3834
 -32124656.91048 -25017733.42646  20535111.8204                   20535107.0944
  -7250046.29347  -5636149.73444  22900547.5554                   22900545.2814
 11  8 22  0 37  0.0000000  0  9G10G12G09G17G05G04G25G02G30
 -26192858.15648 -20397720.57046  21185256.9304                   21185254.9224
 -23018929.44948 -17923660.13746  21136300.4844                   21136297.6174
  -8384971.53946  -6519482.62143  24555128.0004                   24555129.3714
 -25391642.76246 -19771910.25044  23860399.0394                   23860397.1804
 -20286773.81648 -15793773.53146  21356113.2194                   21356111.1844
 -25792534.65647 -20083185.74645  22598629.9224                   22598628.7344
  -6216233.44947  -4830411.03545  23410167.9224                   23410168.5044
 -30563629.15248 -23801348.15646  20832165.4384                   20832160.8404
  -5786312.46947  -4495577.87544  23179086.8674                   23179085.1844
 11  8 22  0 37 30.0000000  0  9G10G12G09G17G05G04G25G02G30
 -26188108.81648 -20394019.78546  21186160.7734                   21186158.7274
 -23082478.45348 -17973178.83646  21124207.4614                   21124204.0274
  -8329560.90246  -6476305.67243  24565673.3984                   24565673.9884
 -25357797.14546 -19745537.09044  23866838.9534                   23866838.8914
 -20384790.32048 -15870149.98446  21337461.1564                   21337459.0514
 -25738037.08647 -20040720.15645  22609000.5704                   22608999.1914
  -6330957.66847  -4919806.48845  23388337.0314                   23388336.9144
 -30577700.80948 -23812313.08246  20829487.7194                   20829482.9884
  -5897530.23847  -4582241.04344  23157923.0704                   23157921.0514
 11  8 22  0 38  0.0000000  0  9G10G12G09G17G05G04G25G02G30
 -26182658.45348 -20389772.73046  21187197.8754                   21187195.6094
 -23145405.09048 -18022212.57446  21112233.1644                   21112230.0164
  -8274050.84446  -6433051.18443  24576236.1414                   24576236.9264
 -25323676.22346 -19718949.42244  23873332.9454                   23873331.8134
 -20482274.06248 -15946111.29346  21318910.9844                   21318908.6644
 -25683395.78547 -19998142.54345  22619398.5394                   22619397.1024
  -6445282.94947  -5008891.08645  23366581.4224                   23366581.6884
 -30591448.21148 -23823025.34446  20826871.3054                   20826866.7734
  -6008268.40247  -4668530.47344  23136849.7664                   23136848.4384
 11  8 22  0 38 30.0000000  0  9G10G12G09G17G05G04G25G02G30
 -26176503.96948 -20384977.03146  21188369.2814                   21188366.7424
 -23207703.94148 -18070757.13346  21100378.0314                   21100374.9774
  -8218440.38746  -6389718.44943  24586818.2814                   24586819.3284
 -25289276.19146 -19692144.23844  23879878.3444                   23879877.6174
 -20579218.20748 -16021652.14846  21300462.8754                   21300460.9494
 -25628608.08647 -19955450.85245  22629824.1254                   22629823.0514
  -6559202.54747  -5097659.55945  23344903.5704                   23344903.4574
 -30604868.27048 -23833482.53546  20824318.0634                   20824312.8164
  -6118520.10947  -4754440.85544  23115869.7584                   23115868.2114
 11  8 22  0 39  0.0000000  0  9G10G12G09G17G05G04G25G02G30
 -26169644.27048 -20379631.80146  21189674.5474                   21189672.5204
 -23269370.96948 -18118809.34046  21088643.1724                   21088640.0514
  -8162729.92246  -6346307.80543  24597419.6804                   24597421.7344
 -25254593.79746 -19665119.04744  23886478.4454                   23886477.4144
 -20675618.04748 -16096768.86346  21282118.3914                   21282116.0164
 -25573672.91047 -19912644.25445  22640278.3284                   22640276.8794
  -6672711.34047  -5186107.93445  23323302.9924                   23323303.1564
 -30617959.64548 -23843683.60946  20821826.6484                   20821821.7934
  -6228280.26247  -4839968.20344  23094983.2424                   23094981.3324
 11  8 22  0 39 30.0000000  0  9G10G12G09G17G05G04G25G02G30
 -26162078.16448 -20373736.12546  21191113.8984                   21191111.8054
 -23330402.23448 -18166366.16446  21077029.4064                   21077026.2624
  -8106920.04746  -6302819.73843  24608040.2344                   24608041.3324
 -25219626.78146 -19637872.05144  23893132.0944                   23893131.2234
 -20771468.83648 -16171457.75046  21263878.7034                   21263876.4494
 -25518589.34047 -19869722.02745  22650760.5554                   22650758.7624
  -6785804.16447  -5274232.12945  23301782.0944                   23301781.9774
 -30630720.96948 -23853627.50047  20819398.0314                   20819393.3754
  -6337543.60947  -4925108.41444  23074191.0314                   23074189.0274
 11  8 22  0 40  0.0000000  0  9G10G12G09G17G05G04G25G02G30
 -26153804.64148 -20367289.20746  21192688.7814                   21192686.6254
 -23390793.53148 -18213424.29746  21065536.9924                   21065533.7344
  -8051011.56646  -6259254.80943  24618679.0784                   24618681.3364
 -25184371.88346 -19610400.73844  23899841.1334                   23899840.1684
 -20866765.50848 -16245714.85246  21245744.0164                   21245742.1764
 -25463356.40647 -19826683.41045  22661270.8984                   22661269.4804
  -6898475.78147  -5362028.15645  23280341.4774                   23280341.8014
 -30643150.84848 -23863313.11746  20817032.6254                   20817028.1024
  -6446305.02047  -5009857.51644  23053494.0234                   23053492.6484
 11  8 22  0 40 30.0000000  0  9G10G12G09G17G05G04G25G02G30
 -26144822.23048 -20360289.93046  21194397.6804                   21194395.6454
 -23450540.87548 -18259980.64846  21054167.7034                   21054164.3164
  -7995004.96946  -6215613.45343  24629337.7114                   24629338.7344
 -25148825.89546 -19582702.62144  23906605.5084                   23906604.8284
 -20961503.41048 -16319536.55146  21227716.0314                   21227713.8324
 -25407973.00847 -19783527.53945  22671810.3054                   22671808.5984
  -7010721.11347  -5449492.00045  23258981.9614                   23258982.0944
 -30655248.16848 -23872739.60246  20814730.7194                   20814725.8244
  -6554559.22347  -5094211.39844  23032894.0784                   23032892.2074
 11  8 22  0 41  0.0000000  0  9G10G12G09G17G05G04G25G02G30
 -26135131.40648 -20352738.62146  21196241.7734                   21196239.7074
 -23509641.80948 -18306033.29746  21042921.1644                   21042917.9884
  -7938902.59846  -6171897.44543  24640013.2504                   24640014.8754
 -25112988.12946 -19554777.11344  23913424.8204                   23913423.7464
 -21055679.32048 -16392920.34046  21209795.2034                   21209792.1994
 -25352439.59847 -19740254.78545  22682378.0314                   22682375.9884
  -7122536.68747  -5536620.97745  23237704.3364                   23237704.1334
 -30667013.39148 -23881907.31246  20812492.0234                   20812487.2854
  -6662302.80947  -5178167.39144  23012390.9614                   23012388.3954
 11  8 22  0 41 30.0000000  0  9G10G12G09G17G05G04G25G02G30
 -26124732.75048 -20344635.77346  21198220.8284                   21198219.1054
 -23568093.91048 -18351580.36346  21031798.1724                   21031794.7034
  -7882706.48846  -6128108.36344  24650707.1724                   24650709.3794
 -25076857.12546 -19526623.13344  23920300.7664                   23920299.3094
 -21149290.11748 -16465863.77746  21191981.5234                   21191979.0824
 -25296756.82447 -19696865.63345  22692973.9614                   22692972.0204
  -7233918.89847  -5623412.23845  23216508.7734                   23216508.9774
 -30678446.54748 -23890816.27046  20810316.2584                   20810311.0664
  -6769532.15247  -5261722.67644  22991985.8594                   22991983.6024
 11  8 22  0 42  0.0000000  0  9G10G12G09G17G05G04G25G02G30
 -26113626.00448 -20335981.16046  21200334.1334                   21200331.9064
 -23625894.18048 -18396619.51646  21020798.8984                   21020795.4534
  -7826418.32446  -6084247.58243  24661418.0704                   24661419.9804
 -25040431.34447 -19498239.46144  23927232.4924                   23927231.3404
 -21242331.89848 -16538363.82846  21174275.9924                   21174274.0664
 -25240924.68747 -19653360.09845  22703598.2814                   22703597.5084
  -7344863.48447  -5709862.52345  23195396.8054                   23195396.3204
 -30689547.49248 -23899466.35947  20808204.0234                   20808199.1844
  -6876243.00047  -5344873.94544  22971679.6564                   22971677.6914
 11  8 22  0 42 30.0000000  0  9G10G12G09G17G05G04G25G02G30
 -26101810.93048 -20326774.60546  21202582.7974                   21202580.5084
 -23683039.26248 -18441148.12946  21009924.2584                   21009921.4534
  -7770039.12546  -6040315.85243  24672146.8204                   24672148.7424
 -25003708.53947 -19469624.28944  23934220.7344                   23934218.8794
 -21334800.60248 -16610417.32446  21156680.0234                   21156677.5004
 -25184942.53147 -19609737.66844  22714250.9614                   22714249.8324
  -7455365.91447  -5795968.25045  23174368.5864                   23174368.5594
 -30700315.30948 -23907856.87146  20806154.8754                   20806150.0634
  -6982430.86347  -5427617.68044  22951472.3444                   22951471.0234
 11  8 22  0 43  0.0000000  0  9G10G12G09G17G05G04G25G02G30
 -26089288.84048 -20317017.13346  21204965.4304                   21204963.4964
 -23739528.12148 -18485165.40246  20999174.9384                   20999172.0204
  -7713572.34046  -5996315.87143  24682892.7584                   24682893.8914
 -24966688.53147 -19440777.53544  23941264.8134                   23941263.9654
 -21426694.30548 -16682022.77046  21139193.1414                   21139190.8484
 -25128811.89847 -19565999.53945  22724932.4454                   22724931.1684
  -7565423.90647  -5881727.68745  23153425.3754                   23153425.1884
 -30710751.60248 -23915989.03946  20804169.0084                   20804164.2774
  -7088093.34047  -5509952.03544  22931366.0634                   22931363.7234
 11  8 22  0 43 30.0000000  0  9G10G12G09G17G05G04G25G02G30
 -26076060.87548 -20306709.63746  21207482.7974                   21207480.2544
 -23795358.64848 -18528669.68746  20988550.7584                   20988548.0204
  -7657020.34446  -5952249.49243  24693654.0164                   24693655.5634
 -24929370.67247 -19411698.71544  23948366.0554                   23948365.7194
 -21518010.44548 -16753178.16846  21121815.9224                   21121813.9654
 -25072533.85247 -19522146.55544  22735642.2114                   22735640.4574
  -7675034.35247  -5967138.37145  23132567.2814                   23132567.1054
 -30720857.16848 -23923863.51246  20802245.9384                   20802240.9344
  -7193227.48847  -5591874.68745  22911359.2734                   22911357.5554
 11  8 22  0 44  0.0000000  0  9G10G12G09G17G05G04G25G02G30
 -26062127.55548 -20295852.49646  21210134.3754                   21210132.0984
 -23850528.57448 -18571659.22746  20978052.2194                   20978049.0004
  -7600385.13347  -5908118.28144  24704431.3444                   24704433.1374
 -24891753.47347 -19382386.61744  23955524.4454                   23955523.1914
 -21608745.27048 -16823880.59446  21104549.8364                   21104547.5744
 -25016108.94147 -19478179.11344  22746379.2504                   22746378.2504
  -7784193.48047  -6052197.37545  23111794.6254                   23111795.1764
 -30730631.78948 -23931480.10246  20800385.9694                   20800381.1804
  -7297829.41047  -5673382.63345  22891455.1254                   22891452.1024
 11  8 22  0 44 30.0000000  0  9G10G12G09G17G05G04G25G02G30
 -26047489.92648 -20284446.55946  21212919.7344                   21212917.4454
 -23905035.58648 -18614132.20346  20967679.7734                   20967676.8244
  -7543669.54747  -5863924.43044  24715224.2664                   24715226.3054
 -24853836.36747 -19352840.83244  23962740.1564                   23962739.6994
 -21698896.28148 -16894128.09446  21087394.7194                   21087392.1724
 -24959537.67647 -19434097.63344  22757144.3984                   22757143.4144
  -7892898.30947  -6136902.38745  23091108.9774                   23091108.6644
 -30740076.57048 -23938839.66846  20798588.7194                   20798583.9384
  -7401896.18747  -5754473.57445  22871651.3364                   22871649.0314
 11  8 22  0 45  0.0000000  0  9G10G12G09G17G05G04G25G02G30
 -26032149.32448 -20272492.83646  21215838.9454                   21215836.8404
 -23958879.57448 -18656088.55546  20957433.6954                   20957430.7304
  -7486876.44947  -5819670.17644  24726031.3444                   24726033.1254
 -24815618.56246 -19323060.78544  23970012.9614                   23970012.2464
 -21788461.82848 -16963919.39846  21070350.8364                   21070348.5354
 -24902821.70347 -19389903.39145  22767937.1954                   22767935.6094
  -8001146.12947  -6221251.28945  23070510.0314                   23070510.3324
 -30749192.41048 -23945942.92246  20796854.0164                   20796849.0744
  -7505425.18747  -5835145.48445  22851950.7034                   22851948.4574
 11  8 22  0 45 30.0000000  0  9G10G12G09G17G05G04G25G02G30
 -26016108.38348 -20259993.41046  21218891.4844                   21218889.0044
 -24012059.12948 -18697527.15646  20947313.9144                   20947310.8444
  -7430009.54747  -5775358.43043  24736853.6954                   24736855.1294
 -24777101.55146 -19293047.57044  23977342.4924                   23977341.4494
 -21877440.40648 -17033253.32846  21053419.0164                   21053416.9064
 -24845963.02747 -19345597.94545  22778757.0704                   22778755.5784
  -8108935.22747  -6305242.73845  23049997.7034                   23049998.3484
 -30757981.69548 -23952791.70747  20795181.3364                   20795176.9494
  -7608414.64547  -5915396.96145  22832352.3134                   22832349.5474
 11  8 22  0 46  0.0000000  0  9G10G12G09G17G05G04G25G02G30
 -25999367.41448 -20246948.50446  21222076.8984                   21222074.6604
 -24064571.75848 -18738446.07846  20937321.4384                   20937318.5084
  -7373070.77746  -5730990.70343  24747688.3444                   24747689.8134
 -24738283.55546 -19262799.76244  23984728.9224                   23984728.3364
 -21965828.31648 -17102126.98446  21036599.1804                   21036596.8244
 -24788961.81647 -19301181.44944  22789603.5634                   22789602.4964
  -8216261.76647  -6388873.76645  23029574.6174                   23029575.3914
 -30766444.17648 -23959385.84846  20793571.2274                   20793566.2464
  -7710860.78547  -5995225.07844  22812856.6484                   22812854.8324
 11  8 22  0 46 30.0000000  0  9G10G12G09G17G05G04G25G02G30
 -25981927.54748 -20233359.01246  21225395.5314                   21225393.5234
 -24116416.02348 -18778844.19946  20927455.5234                   20927452.7194
  -7316062.87546  -5686569.13743  24758536.9064                   24758538.6804
 -24699163.72746 -19232316.77343  23992173.7664                   23992172.3094
 -22053623.18048 -17170538.53146  21019892.3204                   21019889.8954
 -24731819.06247 -19256654.68045  22800477.6804                   22800476.6214
  -8323122.67247  -6472141.95745  23009239.8284                   23009240.1134
 -30774580.51248 -23965725.85246  20792022.9694                   20792017.7704
  -7812760.66447  -6074627.53944  22793465.9774                   22793464.5514
 11  8 22  0 47  0.0000000  0  9G10G12G09G17G05G04G25G02G30
 -25963790.27048 -20219226.07046  21228847.0554                   21228845.0514
 -24167590.19148 -18818720.17646  20917717.3134                   20917714.6484
  -7258988.51247  -5642095.71143  24769397.3204                   24769398.4384
 -24659741.40246 -19201598.11343  23999674.7274                   23999673.7114
 -22140822.69948 -17238486.18046  21003298.6954                   21003296.6134
 -24674535.80947 -19212018.40245  22811378.7194                   22811376.8444
  -8429515.20347  -6555045.18745  22988993.8364                   22988994.1644
 -30782391.87148 -23971812.62146  20790536.3204                   20790531.4224
  -7914111.49647  -6153602.17645  22774179.6954                   22774178.0044
 11  8 22  0 47 30.0000000  0  9G10G12G09G17G05G04G25G02G30
 -25944957.74648 -20204551.38746  21232430.5474                   21232428.5204
 -24218093.69548 -18858073.55146  20908106.8444                   20908103.8984
  -7201851.44546  -5597573.44143  24780271.1724                   24780271.9304
 -24620017.44946 -19170644.41043  24007234.9224                   24007233.1254
 -22227425.28148 -17305968.67646  20986818.7114                   20986816.5664
 -24617114.11747 -19167274.26644  22822305.6484                   22822304.7464
  -8535437.39147  -6637581.91845  22968837.4844                   22968837.9304
 -30789879.92648 -23977647.47346  20789111.3984                   20789106.7344
  -8014911.32047  -6232147.44544  22754997.8914                   22754995.6254
 11  8 22  0 48  0.0000000  0  9G10G12G09G17G05G04G25G02G30
 -25925430.52748 -20189335.37546  21236147.1254                   21236144.7584
 -24267924.59048 -18896902.81646  20898624.4144                   20898621.4104
  -7144653.50046  -5553003.75443  24791155.3524                   24791156.1884
 -24579990.53146 -19139454.61344  24014852.1024                   24014850.7464
 -22313428.28548 -17372983.96946  20970452.8914                   20970450.5394
 -24559554.23047 -19122422.42245  22833259.3444                   22833258.1604
  -8640885.68747  -6719749.39545  22948771.6884                   22948771.6604
 -30797045.16848 -23983230.78546  20787747.7504                   20787743.0634
  -8115156.72747  -6310260.72345  22735921.4924                   22735919.5664
 11  8 22  0 48 30.0000000  0  9G10G12G09G17G05G04G25G02G30
 -25905208.17648 -20173577.69946  21239994.8914                   21239992.9144
 -24317079.06648 -18935205.01246  20889270.6414                   20889267.5354
  -7087395.21946  -5508387.08643  24802050.7194                   24802052.9654
 -24539657.79346 -19108026.53943  24022526.3204                   24022525.3094
 -22398827.10548 -17439528.46946  20954202.3834                   20954200.0084
 -24501855.06647 -19077462.05945  22844239.0634                   22844237.5904
  -8745855.06247  -6801543.68045  22928796.7274                   22928796.7934
 -30803886.35548 -23988561.58246  20786445.8204                   20786441.3054
  -8214842.76647  -6387938.12544  22716952.3594                   22716950.2114
 11  8 22  0 49  0.0000000  0  9G10G12G09G17G05G04G25G02G30
 -25884295.46148 -20157282.08246  21243974.6254                   21243972.0394
 -24365559.34848 -18972981.85946  20880045.2034                   20880042.3834
  -7030082.66446  -5463728.09043  24812956.9774                   24812958.9384
 -24499022.59046 -19076362.76244  24030258.7894                   24030258.8524
 -22483622.83247 -17505603.02746  20938065.8594                   20938063.7114
 -24444020.86347 -19032396.47744  22855244.6414                   22855242.5984
  -8850346.02048  -6882965.18045  22908912.4774                   22908912.5004
 -30810407.31648 -23993642.85946  20785205.1884                   20785200.5124
  -8313969.97747  -6465180.06644  22698088.2114                   22698087.1844
 11  8 22  0 49 30.0000000  0  9G10G12G09G17G05G04G25G02G30
 -25862693.63748 -20140449.49646  21248085.3054                   21248083.1214
 -24413363.27048 -19010231.68046  20870948.5394                   20870945.1524
  -6972718.34445  -5419028.82443  24823873.4774                   24823875.1764
 -24458083.99246 -19044462.57844  24038049.9924                   24038049.3364
 -22567812.86748 -17571205.62546  20922044.8834                   20922042.7114
 -24386052.56647 -18987226.40244  22866275.5634                   22866274.4104
  -8954355.60947  -6964011.58645  22889119.8524                   22889120.2074
 -30816609.00848 -23998475.34446  20784024.9064                   20784020.2774
  -8412535.42647  -6541984.28144  22679332.3834                   22679331.3094
 11  8 22  0 50  0.0000000  0  9G10G12G09G17G05G04G25G02G30
 -25840404.30547 -20123081.18746  21252326.9694                   21252324.6644
 -24460489.90648 -19046953.74246  20861980.6334                   20861977.2704
  -6915304.96145  -5374291.35242  24834798.4774                   24834801.5164
 -24416841.37546 -19012325.49244  24045897.8364                   24045897.3164
 -22651395.26648 -17636334.73046  20906139.7194                   20906137.7464
 -24327951.28947 -18941952.69144  22877331.7194                   22877330.0904
  -9057880.98447  -7044680.69145  22869419.7114                   22869419.5634
 -30822492.25048 -24003059.69546  20782905.2504                   20782900.4264
  -8510536.35547  -6618348.60545  22660683.5554                   22660681.3594
 11  8 22  0 50 30.0000000  0  9G10G12G09G17G05G04G25G02G30
 -25817428.87147 -20105178.26246  21256699.0004                   21256696.3874
 -24506937.85548 -19083146.94146  20853141.4304                   20853138.7344
  -6857845.12946  -5329517.66442  24845732.5944                   24845736.1334
 -24375294.53546 -18979951.38744  24053803.8204                   24053803.5004
 -22734367.45748 -17700988.36346  20890350.7894                   20890348.7424
 -24269717.61347 -18896575.81244  22888412.9774                   22888411.6294
  -9160919.19147  -7124970.19145  22849812.1254                   22849812.4844
 -30828057.71548 -24007396.43046  20781846.6724                   20781841.8244
  -8607970.01647  -6694270.90645  22642142.0944                   22642140.5474
 11  8 22  0 51  0.0000000  0  9G10G12G09G17G05G04G25G02G30
 -25793769.22347 -20086742.17646  21261201.2114                   21261198.9734
 -24552706.05548 -19118810.48446  20844432.5634                   20844429.5984
  -6800341.89846  -5284710.16843  24856676.0394                   24856679.0234
 -24333443.34446 -18947340.09844  24061767.5234                   24061767.5554
 -22816727.40248 -17765164.91046  20874678.2424                   20874675.7664
 -24211353.14147 -18851097.05544  22899519.4694                   22899518.0234
  -9263467.78948  -7204878.17645  22830297.9694                   22830298.0274
 -30833307.02048 -24011486.80146  20780847.5394                   20780842.6604
  -8704833.88347  -6769749.21945  22623709.7894                   22623707.9414
 11  8 22  0 51 30.0000000  0  9G10G12G09G17G05G04G25G02G30
 -25769428.08248 -20067775.05146  21265832.9614                   21265831.2154
 -24597794.36748 -19153944.24246  20835852.3284                   20835849.1604
  -6742798.86346  -5239871.54743  24867626.1564                   24867629.0784
 -24291288.22747 -18914491.95344  24069789.5084                   24069788.9064
 -22898474.42248 -17828863.85946  20859121.9844                   20859119.9964
 -24152859.93747 -18805517.94544  22910650.6644                   22910649.2234
  -9365525.18748  -7284403.38745  22810876.9384                   22810877.2504
 -30838242.35548 -24015332.53146  20779908.5234                   20779903.8554
  -8801126.55547  -6844782.44145  22605386.0784                   22605383.9654
 11  8 22  0 52  0.0000000  0  8G10G12G17G05G04G25G02G30
 -25744406.28948 -20048277.54746  21270594.7274                   21270592.4144
 -24642200.16848 -19188546.16846  20827402.1414                   20827399.1294
 -24248828.57447 -18881406.53544  24077869.7734                   24077869.3554
 -22979605.40648 -17892082.78146  20843683.5554                   20843681.3874
 -24094238.24247 -18759838.73445  22921805.2424                   22921804.5514
  -9467087.73848  -7363543.02045  22791550.2114                   22791549.7194
 -30842863.61348 -24018933.51246  20779028.7424                   20779024.2384
  -8896844.47747  -6919367.81244  22587171.2814                   22587169.2894
 11  8 22  0 52 30.0000000  0  8G10G12G17G05G04G25G02G30
 -25718706.31648 -20028251.59446  21275485.3204                   21275482.6134
 -24685923.71148 -19222616.46146  20819081.8364                   20819079.0664
 -24206064.53947 -18848083.93744  24086007.5394                   24086006.2814
 -23060119.04748 -17954820.64846  20828362.5704                   20828359.7974
 -24035489.65247 -18714060.66844  22932985.2974                   22932984.0554
  -9568153.55148  -7442295.58245  22772318.0864                   22772317.9964
 -30847172.43748 -24022291.04346  20778208.8594                   20778204.2814
  -8991985.85247  -6993503.93444  22569066.4384                   22569063.8364
 11  8 22  0 53  0.0000000  0  8G10G12G17G05G04G25G02G30
 -25692326.64547 -20007696.01246  21280505.3524                   21280503.2894
 -24728960.47348 -19256151.60546  20810892.4224                   20810889.3444
 -24162992.26646 -18814521.16844  24094204.1094                   24094203.8444
 -23140010.13348 -18017073.41846  20813159.2274                   20813157.2504
 -23976612.19147 -18668182.14144  22944189.3134                   22944188.4064
  -9668716.75047  -7520656.50845  22753181.6414                   22753181.5234
 -30851166.66048 -24025403.43746  20777449.1804                   20777444.2814
  -9086544.98447  -7067186.35945  22551072.7584                   22551070.3674
 11  8 22  0 53 30.0000000  0  8G10G12G17G05G04G25G02G30
 -25665263.76247 -19986608.05146  21285654.7424                   21285652.7814
 -24771304.34848 -19289146.83646  20802834.4454                   20802831.3984
 -24119606.73046 -18780714.30544  24102459.5634                   24102458.5594
 -23219271.77048 -18078835.70346  20798076.5944                   20798074.1484
 -23917601.94547 -18622200.18045  22955418.7664                   22955417.5744
  -9768769.62147  -7598619.75845  22734142.2664                   22734142.1294
 -30854842.23848 -24028267.53146  20776749.2274                   20776745.0744
  -9180514.07847  -7140409.00445  22533190.4924                   22533188.9534
 11  8 22  0 54  0.0000000  0  8G10G12G17G05G04G25G02G30
 -25637520.09847 -19964989.61346  21290934.5084                   21290931.8984
 -24812954.43748 -19321601.44546  20794908.3914                   20794905.6804
 -24075908.31647 -18746663.63744  24110775.9304                   24110774.4844
 -23297902.27048 -18140106.19146  20783113.2814                   20783111.0234
 -23858460.22347 -18576115.73444  22966673.5394                   22966671.9844
  -9868309.99247  -7676183.67645  22715199.9844                   22715200.1804
 -30858200.57448 -24030884.42646  20776110.1174                   20776105.8954
  -9273891.27047  -7213170.42245  22515421.8524                   22515419.7344
 11  8 22  0 54 30.0000000  0  8G10G12G17G05G04G25G02G30
 -25609097.48847 -19942842.13746  21296343.1954                   21296340.8914
 -24853909.76648 -19353514.68746  20787114.9224                   20787112.1174
 -24031896.19146 -18712368.51644  24119150.5864                   24119150.4884
 -23375899.68448 -18200883.37146  20768270.9924                   20768268.6604
 -23799187.73447 -18529929.41444  22977952.4144                   22977950.7234
  -9967335.02347  -7753346.02345  22696356.2114                   22696356.2304
 -30861242.53548 -24033254.79346  20775531.6484                   20775526.8014
  -9366673.77747  -7285468.48445  22497766.0784                   22497763.5004
 11  8 22  0 55  0.0000000  0  8G10G12G17G05G04G25G02G30
 -25579998.02747 -19920167.23446  21301880.3284                   21301878.2194
 -24894169.74648 -19384886.10246  20779453.8204                   20779450.8714
 -23987570.72746 -18677829.23444  24127585.2974                   24127584.8054
 -23453262.25848 -18261165.87146  20753549.6254                   20753547.4574
 -23739786.23447 -18483642.57444  22989256.5234                   22989255.7774
 -10065842.55547  -7830105.11745  22677611.2274                   22677610.6484
 -30863969.69548 -24035379.86346  20775012.6564                   20775007.9654
  -9458859.57447  -7357301.53945  22480223.7894                   22480221.1414
 11  8 22  0 55 30.0000000  0  8G10G12G17G05G04G25G02G30
 -25550223.72347 -19896966.47346  21307546.3134                   21307544.4694
 -24933733.49248 -19415714.99246  20771925.4454                   20771922.3284
 -23942931.95746 -18643045.80144  24136080.2114                   24136079.7344
 -23529988.46548 -18320952.49246  20738948.9534                   20738946.9344
 -23680256.82047 -18437256.03544  23000584.5164                   23000582.9104
 -10163830.18047  -7906459.09445  22658964.2344                   22658964.2664
 -30866383.21148 -24037260.53546  20774553.1644                   20774548.8324
  -9550446.39847  -7428667.87545  22462794.8444                   22462793.1134
 11  8 22  0 56  0.0000000  0  8G10G12G17G05G04G25G02G30
 -25519776.78948 -19873241.60246  21313339.9924                   21313337.8364
 -24972600.23848 -19446000.76646  20764528.9304                   20764525.8954
 -23897979.77346 -18608018.15244  24144634.4384                   24144633.6094
 -23606076.57048 -18380241.89846  20724469.7734                   20724467.5554
 -23620600.45746 -18390770.57044  23011936.4224                   23011934.4694
 -10261295.35547  -7982405.96545  22640417.2344                   22640417.5434
 -30868484.05948 -24038897.57046  20774153.2664                   20774149.1254
  -9641431.81647  -7499565.60545  22445481.0944                   22445478.6994
 11  8 22  0 56 30.0000000  0  8G10G12G17G05G04G25G02G30
 -25488659.39148 -19848994.27746  21319261.5634                   21319259.6054
 -25010769.45748 -19475743.01246  20757265.9384                   20757262.4804
 -23852714.07046 -18572746.18044  24153248.6804                   24153247.1334
 -23681525.17648 -18439032.98847  20710112.2664                   20710109.8444
 -23560818.87147 -18344187.54344  23023312.1724                   23023311.1134
 -10358235.94947  -8057944.07845  22621970.3524                   22621970.0784
 -30870273.96148 -24040292.31646  20773812.8594                   20773808.6994
  -9731813.94547  -7569993.23445  22428282.0554                   22428280.1174
 11  8 22  0 57  0.0000000  0  8G10G12G17G05G04G25G02G30
 -25456873.44148 -19824226.01246  21325310.3594                   21325308.0274
 -25048240.40648 -19504941.14846  20750135.3054                   20750132.1844
 -23807135.03946 -18537230.05943  24161921.5474                   24161921.0864
 -23756332.15248 -18497324.10946  20695877.4064                   20695874.7344
 -23500912.92647 -18297507.60944  23034712.1414                   23034710.8244
 -10454649.48847  -8133071.49645  22603623.6094                   22603623.2734
 -30871753.82048 -24041445.46546  20773531.1094                   20773526.2774
  -9821590.37947  -7639948.87945  22411197.7274                   22411196.0824
 11  8 22  0 57 30.0000000  0  8G10G12G17G05G04G25G02G30
 -25424421.46948 -19798938.78146  21331485.5084                   21331483.6844
 -25085012.35948 -19533594.61746  20743137.9454                   20743134.4654
 -23761242.85546 -18501469.93743  24170653.9384                   24170653.2034
 -23830496.30548 -18555114.34046  20681763.9774                   20681761.4454
 -23440883.72347 -18250731.60944  23046134.9534                   23046134.2194
 -10550533.60247  -8207786.37145  22585377.3204                   22585377.2894
 -30872924.73448 -24042357.88346  20773308.1644                   20773303.7774
  -9910758.95347  -7709430.86345  22394229.8204                   22394227.7704
 11  8 22  0 58  0.0000000  0  8G10G12G17G05G04G25G02G30
 -25391304.65647 -19773133.46946  21337787.9304                   21337785.4414
 -25121083.76248 -19561702.21146  20736273.6484                   20736270.8594
 -23715036.73046 -18465465.16443  24179446.9144                   24179446.1764
 -23904015.46148 -18612401.97346  20667773.7424                   20667771.1644
 -23380732.19547 -18203860.29344  23057582.0314                   23057580.5784
 -10645885.34047  -8282086.40645  22567232.3834                   22567232.4024
 -30873787.30148 -24043030.03146  20773144.5864                   20773139.7584
  -9999316.80147  -7778436.96145  22377377.3054                   22377375.5314
 11  8 22  0 58 30.0000000  0  8G10G12G17G05G04G25G02G30
 -25357526.05948 -19746812.49246  21344215.8284                   21344213.2704
 -25156454.90648 -19589264.14146  20729542.5704                   20729539.9144
 -23668517.19546 -18429216.18043  24188299.8364                   24188298.5984
 -23976888.66448 -18669186.25847  20653906.2974                   20653904.2154
 -23320459.99247 -18156894.94144  23069051.6024                   23069049.8914
 -10740703.04347  -8355970.33245  22549189.2424                   22549189.0634
 -30874343.71548 -24043463.61746  20773038.7664                   20773033.9224
 -10087262.48847  -7846966.06245  22360642.4304                   22360640.0354
 11  8 22  0 59  0.0000000  0  8G10G12G17G05G04G25G02G30
 -25323087.86747 -19719977.53546  21350768.6884                   21350766.5434
 -25191125.22348 -19616279.96946  20722945.2664                   20722942.1134
 -23621684.53146 -18392723.19143  24197211.2194                   24197210.3874
 -24049114.26648 -18725465.92246  20640162.4614                   20640160.0824
 -23260068.12147 -18109836.35544  23080543.6644                   23080542.5704
 -10834984.27047  -8429436.20345  22531247.9614                   22531248.1644
 -30874595.15648 -24043659.56246  20772990.7894                   20772985.8444
 -10174593.79347  -7915016.41445  22344023.2664                   22344021.8324
 11  8 22  0 59 30.0000000  0  8G10G12G17G05G04G25G02G30
 -25287992.73047 -19692630.68746  21357447.3674                   21357445.1454
 -25225094.30148 -19642749.38746  20716481.0944                   20716478.2584
 -23574538.78546 -18355986.25043  24206182.7034                   24206181.8094
 -24120691.13348 -18781240.07846  20626541.5634                   20626539.1374
 -23199558.14547 -18062685.74644  23092058.3984                   23092057.6254
 -10928727.14847  -8502482.59445  22513409.7584                   22513409.2664
 -30874542.75048 -24043618.73846  20773000.6174                   20772995.9734
 -10261308.96947  -7982586.67245  22327522.6484                   22327520.6484
 11  8 22  1  0  0.0000000  0  8G10G12G17G05G04G25G02G30
 -25252243.49648 -19664774.14546  21364250.0234                   21364247.7544
 -25258362.24248 -19668672.45746  20710150.4064                   20710147.3554
 -23527080.95746 -18319006.09043  24215213.3914                   24215212.9344
 -24191618.15248 -18836507.85547  20613044.8834                   20613042.1484
 -23138931.87547 -18015444.50844  23103594.7664                   23103593.2504
 -11021929.82048  -8575108.04745  22495673.8594                   22495673.6254
 -30874188.34048 -24043342.59846  20773067.8134                   20773063.5864
 -10347406.43447  -8049675.59045  22311138.4774                   22311136.3554
 11  8 22  1  0 30.0000000  0  8G10G12G17G05G04G25G02G30
 -25215842.45747 -19636409.71546  21371177.3834                   21371174.7234
 -25290928.41848 -19694048.71146  20703953.4694                   20703950.6254
 -23479311.22346 -18281782.93043  24224303.8134                   24224303.2774
 -24261894.29748 -18891268.45747  20599671.6174                   20599669.3794
 -23078190.50846 -17968113.61344  23115153.5004                   23115152.3204
 -11114590.28147  -8647310.98045  22478040.7664                   22478040.4804
 -30873533.03548 -24042831.98446  20773192.7424                   20773188.0634
 -10432884.29747  -8116281.69145  22294872.4384                   22294870.6954
 11  8 22  1  1  0.0000000  0  8G10G12G17G05G04G25G02G30
 -25178793.78947 -19607540.63345  21378227.4454                   21378225.1134
 -25322794.52348 -19718879.44947  20697889.5314                   20697886.3324
 -23431231.12946 -18244317.93443  24233452.4454                   24233452.7624
 -24331519.80548 -18945522.07447  20586422.2344                   20586420.1024
 -23017336.86346 -17920695.25844  23126733.6254                   23126732.4844
 -11206707.92247  -8719090.95345  22460511.3834                   22460511.4574
 -30872580.17248 -24042089.50446  20773373.9844                   20773369.4734
 -10517742.19547  -8182404.72745  22278724.9384                   22278722.9344
 11  8 22  1  1 30.0000000  0  8G10G12G17G05G04G25G02G30
 -25141100.69947 -19578169.40246  21385399.8834                   21385397.7814
 -25353960.91848 -19743164.95746  20691958.9384                   20691955.2194
 -23382841.90646 -18206612.07443  24242661.3284                   24242661.2504
 -24400494.16848 -18999268.29747  20573297.2894                   20573294.5394
 -22956373.29746 -17873191.19544  23138334.7344                   23138333.3014
 -11298281.52747  -8790446.99245  22443085.6724                   22443085.6914
 -30871332.44948 -24041117.26646  20773611.1414                   20773606.8204
 -10601979.06647  -8248043.82845  22262694.8674                   22262693.3324
 11  8 22  1  2  0.0000000  0  8G10G12G17G05G04G25G02G30
 -25102766.69147 -19548298.76245  21392694.8834                   21392692.3754
 -25384428.52348 -19766905.95746  20686160.8674                   20686157.7734
 -23334144.87946 -18168666.38343  24251928.4144                   24251926.8484
 -24468817.16048 -19052506.96947  20560295.3754                   20560293.1414
 -22895301.66046 -17825602.93743  23149956.2894                   23149955.0004
 -11389309.89147  -8861378.16045  22425763.1564                   22425763.0044
 -30869791.37548 -24039916.43746  20773904.9304                   20773900.3204
 -10685593.85947  -8313198.19945  22246783.2734                   22246781.5354
 11  8 22  1  2 30.0000000  0  9G10G12G29G17G05G04G25G02G30
 -25063796.75848 -19517932.59446  21400110.6954                   21400108.2624
 -25414199.26648 -19790103.95346  20680495.7894                   20680492.3324
   3004797.71156   2351601.55553  24560999.5864                   24560998.3324
 -23285142.89846 -18130483.00443  24261252.8134                   24261252.1254
 -24536490.19548 -19105239.16847  20547417.7114                   20547415.0594
 -22834126.22346 -17777933.77344  23161597.3054                   23161595.7584
 -11479793.53547  -8931884.87945  22408545.1564                   22408544.7894
 -30867961.04748 -24038490.21946  20774253.1174                   20774248.6134
 -10768587.47347  -8377868.53545  22230990.4774                   22230988.5704
 11  8 22  1  3  0.0000000  0  9G10G12G29G17G05G04G25G02G30
 -25024197.46547 -19487076.01245  21407646.1884                   21407643.5044
 -25443277.31248 -19812762.17246  20674962.0864                   20674959.3794
   2904548.27746   2273485.16043  24541922.9224                   24541921.4774
 -23235840.21546 -18092065.35942  24270635.7034                   24270634.2704
 -24603516.02748 -19157467.05946  20534662.9384                   20534660.4414
 -22772852.02346 -17730187.67644  23173257.8204                   23173256.0664
 -11569734.53947  -9001968.77045  22391429.6334                   22391429.5664
 -30865846.93448 -24036842.86746  20774655.3834                   20774651.3164
 -10850962.14847  -8442056.57845  22215314.7344                   22215312.4574
 11  8 22  1  3 30.0000000  0  9G10G12G29G17G05G04G25G02G30
 -24983977.35547 -19455735.68046  21415299.3444                   21415297.5664
 -25471668.13748 -19834884.90646  20669559.7034                   20669556.5904
   2804326.81647   2195390.57444  24522851.4534                   24522850.1644
 -23186243.10546 -18053418.25843  24280073.0474                   24280073.9694
 -24669899.31248 -19209194.26247  20522030.6094                   20522028.3554
 -22711486.25047 -17682370.19544  23184935.5784                   23184933.3444
 -11659136.66447  -9071632.74245  22374416.9844                   22374416.9454
 -30863456.19548 -24034979.96546  20775110.0084                   20775106.0864
 -10932721.82447  -8505765.39545  22199756.3524                   22199754.9224
 11  8 22  1  4  0.0000000  0  9G10G12G29G17G05G04G25G02G30
 -24943141.20347 -19423915.31645  21423070.4384                   21423068.1094
 -25499373.78548 -19856473.73446  20664287.7034                   20664284.5634
   2704131.59847   2117316.40244  24503784.2424                   24503783.1954
 -23136354.12146 -18014543.71543  24289566.8204                   24289565.6054
 -24735641.30148 -19260421.76247  20509520.1564                   20509518.0394
 -22650032.36746 -17634484.06644  23196629.7424                   23196627.8204
 -11748000.09847  -9140876.95745  22357506.5944                   22357506.9384
 -30860792.43048 -24032904.30146  20775617.7034                   20775612.9614
 -11013867.03947  -8568995.41845  22184315.3834                   22184313.7154
 11  8 22  1  4 30.0000000  0  9G10G12G29G17G05G04G25G02G30
 -24901692.27047 -19391617.46145  21430957.7504                   21430955.4574
 -25526394.40248 -19877528.77046  20659145.8054                   20659142.6804
   2603962.36347   2039262.50444  24484723.1414                   24484722.2704
 -23086173.91446 -17975442.29743  24299116.1484                   24299115.0004
 -24800741.43448 -19311149.10546  20497132.0474                   20497129.8094
 -22588492.24246 -17586530.75044  23208340.9774                   23208339.3444
 -11836323.18047  -9209700.12545  22340699.5164                   22340699.4774
 -30857857.43448 -24030617.29346  20776175.7274                   20776171.2424
 -11094396.26247  -8631745.44545  22168990.8364                   22168988.7734
 11  8 22  1  5  0.0000000  0  9G10G12G29G17G05G04G25G02G30
 -24859633.47348 -19358844.38745  21438961.6724                   21438959.3554
 -25552730.69948 -19898050.57446  20654134.2584                   20654130.8594
   2503818.85547   1961228.62544  24465666.6414                   24465665.5864
 -23035703.28946 -17936114.56643  24308720.8834                   24308720.2624
 -24865198.84448 -19361375.63347  20484866.7034                   20484863.9184
 -22526867.12947 -17538511.21144  23220067.1174                   23220065.7814
 -11924104.41047  -9278101.05945  22323995.0704                   22323995.2344
 -30854652.82448 -24028120.19946  20776786.1804                   20776781.1134
 -11174308.18747  -8694014.45345  22153784.3594                   22153782.1374
 11  8 22  1  5 30.0000000  0  9G10G12G29G17G05G04G25G02G30
 -24816966.53148 -19325597.43445  21447080.6414                   21447079.0354
 -25578381.55548 -19918038.26646  20649252.6954                   20649249.9774
   2403702.30147   1883215.74244  24446614.1094                   24446613.3404
 -22984941.61746 -17896560.06243  24318379.8364                   24318379.3444
 -24929011.71148 -19411099.91847  20472723.4534                   20472720.8014
 -22465157.80146 -17490426.07844  23231809.6094                   23231809.6414
 -12011341.05547  -9346077.64145  22307394.5474                   22307394.0744
 -30851179.44548 -24025413.66446  20777446.7894                   20777442.3594
 -11253600.52747  -8755800.68045  22138695.4224                   22138693.5944
 11  8 22  1  6  0.0000000  0  9G10G12G29G17G05G04G25G02G30
 -24773693.48447 -19291878.18045  21455315.5474                   21455312.9064
 -25603346.48448 -19937491.46946  20644501.9224                   20644499.0124
   2303613.35247   1805224.38344  24427568.8524                   24427567.1954
 -22933889.01646 -17856778.82042  24328094.9614                   24328093.8984
 -24992178.60548 -19460320.84847  20460703.0004                   20460700.6524
 -22403364.98846 -17442275.90244  23243568.5474                   23243568.3134
 -12098030.62147  -9413627.91445  22290897.9774                   22290897.9184
 -30847438.12548 -24022498.35246  20778158.5004                   20778154.0474
 -11332270.91447  -8817102.26645  22123724.7734                   22123723.3164
 11  8 22  1  6 30.0000000  0  9G10G12G29G17G05G04G25G02G30
 -24729816.14847 -19257688.07445  21463664.7894                   21463663.1804
 -25627624.20748 -19956409.18446  20639882.4924                   20639879.4534
   2203553.30546   1727255.54344  24408528.0164                   24408526.2974
 -22882544.69946 -17816770.27342  24337865.7504                   24337864.2934
 -25054697.44148 -19509036.79747  20448806.3054                   20448803.8524
 -22341488.59847 -17394060.57044  23255343.3444                   23255342.6374
 -12184170.11747  -9480749.57045  22274506.4144                   22274506.4844
 -30843429.14148 -24019374.46546  20778921.3754                   20778916.9734
 -11410316.61747  -8877917.05945  22108873.3674                   22108870.8714
 11  8 22  1  7  0.0000000  0  9G10G12G29G17G05G04G25G02G30
 -24685335.41447 -19223027.76645  21472129.4844                   21472127.1724
 -25651213.38348 -19974790.36746  20635393.6174                   20635390.5354
   2103524.41046   1649310.99643  24389492.1884                   24389491.5594
 -22830907.17645 -17776533.32842  24347691.6954                   24347689.5474
 -25116565.40648 -19557245.57847  20437033.3134                   20437030.1914
 -22279528.23447 -17345779.84444  23267134.2664                   23267134.3634
 -12269755.64547  -9547439.57045  22258219.9844                   22258220.1414
 -30839151.77048 -24016041.44546  20779735.5634                   20779731.0124
 -11487734.11347  -8938242.36345  22094141.3444                   22094138.9924
 11  8 22  1  7 30.0000000  0  9G10G12G29G17G05G04G25G02G30
 -24640254.34847 -19187899.67645  21480708.2114                   21480705.9534
 -25674114.23848 -19992635.18746  20631035.7344                   20631032.0984
   2003526.46146   1571390.54743  24370463.6094                   24370462.0984
 -22778977.52346 -17736068.71542  24357573.4454                   24357572.5164
 -25177781.96948 -19604946.77347  20425383.8914                   20425381.5824
 -22217485.40647 -17297434.83244  23278941.4694                   23278939.7304
 -12354785.80147  -9613696.78545  22242039.2034                   22242039.1684
 -30834607.73048 -24012500.63346  20780600.0634                   20780595.6604
 -11564522.17647  -8998077.18745  22079528.7424                   22079526.9414
 11  8 22  1  8  0.0000000  0  9G10G12G29G17G05G04G25G02G30
 -24594573.70747 -19152304.37545  21489401.0704                   21489398.5274
 -25696324.80948 -20009942.13346  20626808.8444                   20626805.6414
   1903561.69946   1493495.96943  24351440.2424                   24351439.5594
 -22726754.05146 -17695375.16842  24367511.7424                   24367510.1254
 -25238344.25448 -19652138.14147  20413859.3284                   20413856.8324
 -22155359.34047 -17249024.94144  23290763.2584                   23290762.1724
 -12439256.71147  -9679518.24245  22225964.6884                   22225964.7234
 -30829796.56648 -24008751.66846  20781515.8524                   20781511.1024
 -11640677.27347  -9057418.78145  22065036.8754                   22065035.1254
 11  8 22  1  8 30.0000000  0  8G10G12G29G05G04G25G02G30
 -24548295.55947 -19116243.48845  21498207.3834                   21498205.3594
 -25717844.57048 -20026710.78546  20622714.1804                   20622711.0824
   1803631.35246   1415628.16843  24332425.3284                   24332423.9734
 -25298250.84048 -19698818.57047  20402459.2504                   20402456.6954
 -22093150.65247 -17200550.67644  23302601.1414                   23302600.0824
 -12523165.85547  -9744901.96145  22209997.5004                   22209997.1684
 -30824718.97348 -24004795.09046  20782481.8054                   20782477.4064
 -11716197.22347  -9116265.47345  22050666.0704                   22050663.7774
 11  8 22  1  9  0.0000000  0  8G10G12G29G05G04G25G02G30
 -24501422.81247 -19079719.27745  21507126.8674                   21507124.5704
 -25738673.27048 -20042940.93746  20618750.5784                   20618747.4064
   1703735.56646   1337787.38343  24313415.1564                   24313413.8204
 -25357500.46548 -19744987.09047  20391184.3444                   20391181.7664
 -22030860.56247 -17152012.98444  23314454.9924                   23314453.0904
 -12606511.32047  -9809846.44545  22194137.4384                   22194137.3054
 -30819376.41048 -24000632.05946  20783498.2194                   20783493.6454
 -11791080.27047  -9174615.87545  22036416.1094                   22036413.8714
 11  8 22  1  9 30.0000000  0  8G10G12G29G05G04G25G02G30
 -24453954.72748 -19042731.16845  21516159.4774                   21516157.4574
 -25758808.44548 -20058630.68747  20614919.0004                   20614915.3714
   1603878.17647   1259976.43844  24294412.7894                   24294411.9614
 -25416089.13748 -19790640.57047  20380035.4304                   20380032.7814
 -21968486.59847 -17103409.89544  23326323.8914                   23326323.2274
 -12689287.73047  -9874347.51245  22178385.5164                   22178385.6724
 -30813766.61348 -23996260.77346  20784565.9384                   20784561.9304
 -11865321.42647  -9232466.09445  22022288.1724                   22022286.0904
 11  8 22  1 10  0.0000000  0  8G10G12G29G05G04G25G02G30
 -24405891.44147 -19005279.25845  21525306.0164                   21525303.8444
 -25778247.35548 -20073777.89546  20611219.8834                   20611216.4304
   1504062.09447   1182197.69144  24275418.3674                   24275416.9614
 -25474013.47748 -19835776.40247  20369012.6644                   20369010.2424
 -21906027.50047 -17054740.50444  23338210.0704                   23338208.0354
 -12771490.68448  -9938401.73045  22162742.8134                   22162742.4534
 -30807888.04748 -23991680.07046  20785684.7504                   20785679.7704
 -11938916.56247  -9289812.92245  22008283.6094                   22008281.7034
 11  8 22  1 10 30.0000000  0  8G10G12G29G05G04G25G02G30
 -24357234.64547 -18967364.87545  21534565.1094                   21534562.5784
 -25796988.94548 -20088381.72746  20607653.2504                   20607650.2154
   1404288.61747   1104452.15244  24256432.0164                   24256431.8554
 -25531271.53948 -19880393.05147  20358116.7664                   20358114.7704
 -21843483.07846 -17006004.63343  23350111.0634                   23350110.0634
 -12853117.34047 -10002006.89145  22147209.8364                   22147209.3244
 -30801741.16048 -23986890.27346  20786854.5784                   20786849.6484
 -12011863.10947  -9346654.35545  21994402.7114                   21994400.6134
 11  8 22  1 11  0.0000000  0  8G10G12G29G05G04G25G02G30
 -22732569.60547 -17701392.11745  21843728.4224                   21843726.4414
 -24239613.46948 -18874842.39147  20904012.1334                   20904009.3484
   2879980.84046   2254342.24244  24537246.2814                   24537246.5124
 -24012441.50048 -18696889.10547  20647140.8834                   20647138.2344
 -20205437.62546 -15729605.60243  23661820.5784                   23661819.1644
 -11358743.87147  -8837560.02046  22431579.5394                   22431579.6724
 -29219908.34848 -22754293.27346  21087867.4224                   21087862.9924
 -10508737.96547  -8175387.98045  22280437.7344                   22280436.1374
 11  8 22  1 11 30.0000000  0  8G10G12G29G05G04G25G02G30
 -22682738.03547 -17662562.32845  21853211.0784                   21853209.0234
 -24256964.89148 -18888362.97346  20900710.2424                   20900706.9534
   2780290.31646   2176661.41844  24518276.9614                   24518276.0784
 -24068368.32848 -18740468.43047  20636497.7424                   20636495.2774
 -20142730.00046 -15680742.57043  23673753.1174                   23673752.1564
 -11439216.02748  -8900265.56246  22416266.2274                   22416266.4144
 -29213232.52048 -22749091.32446  21089137.9924                   21089132.9184
 -10580386.49647  -8231217.99645  22266803.4924                   22266801.4264
 11  8 22  1 12  0.0000000  0  8G10G12G29G05G04G25G02G30
 -22632326.00047 -17623280.23445  21862804.1724                   21862801.4264
 -24273624.21548 -18901344.26246  20897540.2424                   20897537.2274
   2680638.99246   2099011.08244  24499313.4694                   24499313.1174
 -24123631.01648 -18783530.24247  20625981.7424                   20625979.0664
 -20079944.94146 -15631819.17643  23685701.0554                   23685701.3404
 -11519110.83648  -8962521.24646  22401062.5634                   22401062.3404
 -29206296.60948 -22743686.71546  21090457.4304                   21090452.9304
 -10651386.48047  -8286542.62945  22253292.4064                   22253290.0984
 11  8 22  1 12 30.0000000  0  8G10G12G29G05G04G25G02G30
 -22581337.67248 -17583549.06645  21872506.8914                   21872504.4104
 -24289593.22748 -18913787.64546  20894501.3834                   20894498.5124
   2581026.02046   2021390.67643  24480357.8674                   24480356.8834
 -24178230.21948 -18826075.05147  20615591.9454                   20615589.5044
 -20017085.18747 -15582837.56244  23697663.0314                   23697661.6994
 -11598427.94147  -9024326.76645  22385969.1174                   22385969.0744
 -29199103.51248 -22738081.69546  21091826.0084                   21091821.4844
 -10721737.84847  -8341361.86345  22239904.6954                   22239903.0664
 11  8 22  1 13  0.0000000  0  8G10G12G29G05G04G25G02G30
 -22529777.53547 -17543372.34845  21882318.3674                   21882316.2274
 -24304873.94548 -18925694.69946  20891593.3754                   20891590.4064
   2481450.46546   1943799.40643  24461409.3204                   24461407.4344
 -24232167.28948 -18868103.91847  20605328.0704                   20605325.7974
 -19954153.37147 -15533799.80944  23709638.9844                   23709638.4144
 -11677167.27048  -9085682.07046  22370985.9064                   22370985.2154
 -29191656.27348 -22732278.64846  21093243.2344                   21093238.6954
 -10791440.77747  -8395675.82445  22226641.0004                   22226639.3014
 11  8 22  1 13 30.0000000  0  8G10G12G29G05G04G25G02G30
 -22477649.57447 -17502753.15245  21892237.9774                   21892236.1414
 -24319467.57848 -18937066.35946  20888816.2424                   20888812.9064
   2381911.39846   1866236.57444  24442468.0634                   24442466.6134
 -24285442.19948 -18909616.81247  20595190.2734                   20595187.7074
 -19891151.48447 -15484707.44544  23721627.8914                   23721626.8554
 -11755327.99247  -9146586.52046  22356111.9924                   22356111.3404
 -29183956.80548 -22726279.05546  21094708.4614                   21094703.9734
 -10860494.91847  -8449484.23445  22213500.2734                   22213498.5984
 11  8 22  1 14  0.0000000  0  8G10G12G29G05G04G25G02G30
 -22424958.48847 -17461695.16445  21902265.0784                   21902262.7814
 -24333376.41048 -18947904.41046  20886169.7194                   20886166.7934
   2282407.45746   1788701.12943  24423532.0314                   24423530.9344
 -24338056.21548 -18950614.72347  20585178.0394                   20585175.5944
 -19828082.60947 -15435562.86344  23733629.7344                   23733628.0274
 -11832910.26647  -9207040.23446  22341348.3834                   22341348.8244
 -29176008.45748 -22720085.53146  21096221.0554                   21096216.2504
 -10928900.75047  -8502787.46945  22200483.5944                   22200481.0984
 11  8 22  1 14 30.0000000  0  8G10G12G29G05G04G25G02G30
 -22371707.73047 -17420201.05945  21912398.1564                   21912395.9774
 -24346601.31248 -18958209.53546  20883653.1644                   20883649.6804
   2182938.68447   1711193.02343  24404603.8524                   24404602.1764
 -24390009.09048 -18991097.45347  20575291.4304                   20575289.0474
 -19764947.94147 -15386367.01644  23745644.1644                   23745643.2384
 -11909912.69148  -9267042.12546  22326695.8364                   22326695.2704
 -29167812.55548 -22713699.10946  21097780.8914                   21097776.2194
 -10996657.24247  -8555584.74245  22187589.6484                   22187587.3484
 11  8 22  1 15  0.0000000  0  8G10G12G29G05G04G25G02G30
 -22317901.04347 -17378273.77345  21922637.1414                   21922635.0864
 -24359143.33248 -18967982.54346  20881266.1954                   20881263.1644
   2083504.77047   1633712.00843  24385682.5314                   24385679.2424
 -24441301.13748 -19031065.27047  20565531.3754                   20565528.6644
 -19701749.66847 -15337121.61744  23757670.1644                   23757668.8204
 -11986334.50448  -9326591.59846  22312153.3364                   22312152.3674
 -29159371.73848 -22707121.84446  21099386.8284                   21099382.5314
 -11063764.00847  -8607875.73445  22174819.4454                   22174817.3444
 11  8 22  1 15 30.0000000  0  8G10G12G29G05G04G25G02G30
 -22263541.45747 -17335915.65645  21932981.2894                   21932979.5984
 -24371003.88348 -18977224.52746  20879009.1884                   20879006.0664
   1984105.69547   1556258.16843  24366767.4304                   24366765.6374
 -24491932.46948 -19070518.22347  20555896.3204                   20555893.8554
 -19638489.30147 -15287827.81244  23769707.4454                   23769706.4414
 -12062174.44148  -9385687.65246  22297720.9694                   22297720.8444
 -29150687.53948 -22700354.93046  21101039.6094                   21101034.9734
 -11130220.04747  -8659659.64845  22162173.4224                   22162171.8444
 11  8 22  1 16  0.0000000  0  8G10G12G29G05G04G25G02G30
 -22208633.96947 -17293130.60245  21943429.9924                   21943427.6414
 -24382185.20748 -18985937.26647  20876881.8914                   20876878.4024
   1884739.69147   1478830.15643  24347858.9304                   24347857.6174
 -24541904.23448 -19109457.24647  20546387.2894                   20546384.6804
 -19575169.71147 -15238487.88343  23781757.4774                   23781756.1414
 -12137432.85548  -9444330.58246  22283400.0314                   22283399.9924
 -29141763.13748 -22693400.84846  21102737.3914                   21102733.1684
 -11196026.14847  -8710937.13745  22149651.2114                   22149649.2074
 11  8 22  1 16 30.0000000  0  8G10G12G29G05G04G25G02G30
 -22153181.71547 -17249921.06245  21953982.5164                   21953979.9534
 -24392687.81648 -18994121.12546  20874883.0634                   20874879.6764
   1785407.17647   1401428.18444  24328956.7274                   24328954.4924
 -24591216.11348 -19147882.05547  20537003.4144                   20537000.4414
 -19511791.80147 -15189102.50043  23793817.7274                   23793815.7234
 -12212108.03548  -9502519.03546  22269189.7734                   22269189.4384
 -29132599.73848 -22686260.54346  21104481.4224                   21104476.9224
 -11261181.03147  -8761707.17245  22137252.7114                   22137250.0944
 11  8 22  1 17  0.0000000  0  8G10G12G29G05G04G25G02G30
 -22097188.94947 -17206290.33245  21964637.3444                   21964635.1094
 -24402513.55948 -19001777.56246  20873013.3594                   20873009.8754
   1686107.71146   1324052.00044  24310060.7664                   24310059.0164
 -24639868.67248 -19185793.12547  20527745.0314                   20527742.3164
 -19448358.07047 -15139673.60943  23805888.6414                   23805887.6374
 -12286199.50048  -9560252.64146  22255090.5164                   22255090.7854
 -29123199.63748 -22678935.78546  21106270.3284                   21106265.6334
 -11325684.58247  -8811969.68445  22124978.0234                   22124976.2274
 11  8 22  1 17 30.0000000  0  8G10G12G29G05G04G25G02G30
 -22040658.57848 -17162240.69545  21975395.2424                   21975392.8714
 -24411663.06648 -19008907.05946  20871272.2584                   20871269.1214
   1586841.26246   1246701.59844  24291170.1884                   24291169.9654
 -24687861.94948 -19223190.45747  20518612.1334                   20518609.3634
 -19384869.85547 -15090202.24643  23817969.5164                   23817968.6454
 -12359706.06248  -9617530.47745  22241102.6724                   22241102.7234
 -29113564.60248 -22671427.97346  21108103.8284                   21108099.2424
 -11389535.96548  -8861724.00845  22112827.8754                   22112825.6994
 11  8 22  1 18  0.0000000  0  8G10G12G29G05G04G25G02G30
 -21983595.20347 -17117775.73445  21986253.4144                   21986251.7854
 -24420138.60948 -19015511.39846  20869659.1954                   20869656.4144
   1487607.01646   1169376.27344  24272286.0084                   24272285.8164
 -24735196.73448 -19260074.68747  20509604.3754                   20509602.1334
 -19321329.50447 -15040690.27743  23830061.0704                   23830060.2664
 -12432627.43447  -9674352.32446  22227226.0704                   22227226.0944
 -29103697.23848 -22663739.12146  21109981.6804                   21109976.8324
 -11452735.32847  -8910970.27045  22100800.8444                   22100799.1374
 11  8 22  1 18 30.0000000  0  8G10G12G29G05G04G25G02G30
 -21926003.61748 -17072899.18045  21997212.7114                   21997210.7274
 -24427942.39548 -19021592.27346  20868174.6254                   20868171.3014
   1388403.87145   1092075.18843  24253407.5234                   24253408.1484
 -24781874.49248 -19296446.94547  20500722.0004                   20500719.6174
 -19257739.57846 -14991139.71943  23842161.6174                   23842159.9344
 -12504963.83648  -9730718.35246  22213461.1174                   22213461.2464
 -29093600.42648 -22655871.47346  21111902.4774                   21111897.8984
 -11515283.24248  -8959708.88345  22088898.7814                   22088896.3324
 11  8 22  1 19  0.0000000  0  8G10G12G29G05G04G25G02G30
 -21867887.32448 -17027613.77045  22008271.9694                   22008269.6994
 -24435075.54348 -19027150.59046  20866816.9144                   20866813.6954
   1289231.71146   1014798.33643  24234536.0314                   24234535.1724
 -24827895.09848 -19332307.13747  20491964.8524                   20491962.1414
 -19194101.75047 -14941551.81243  23854271.1804                   23854271.1844
 -12576714.05548  -9786627.61746  22199807.2344                   22199807.2854
 -29083275.95748 -22647826.44146  21113867.4144                   21113862.9924
 -11577179.01648  -9007939.35545  22077119.8524                   22077117.9064
 11  8 22  1 19 30.0000000  0  8G10G12G29G05G04G25G02G30
 -21809249.94947 -16981922.31245  22019430.3444                   22019428.4734
 -24441539.40648 -19032187.37946  20865587.3754                   20865583.9804
   1190090.38346    937545.44944  24215671.3364                   24215670.1024
 -24873259.36348 -19367655.89847  20483332.2034                   20483329.2584
 -19130417.74647 -14891927.95744  23866390.4694                   23866390.0044
 -12647877.42248  -9842079.58646  22186265.4384                   22186265.4064
 -29072725.84448 -22639605.58646  21115875.2734                   21115870.6094
 -11638422.38348  -9055661.45345  22065465.8054                   22065464.1174
 11  8 22  1 20  0.0000000  0  8G10G12G29G05G04G25G02G30
 -21750095.19548 -16935827.70345  22030686.9384                   22030684.7304
 -24447335.48048 -19036703.81646  20864484.0554                   20864481.4264
   1090979.81346    860316.48044  24196811.2734                   24196810.0984
 -24917967.53948 -19402493.41847  20474824.5394                   20474821.9694
 -19066689.02747 -14842269.25844  23878518.2894                   23878517.4224
 -12718452.97748  -9897073.50846  22172835.5084                   22172835.4804
 -29061951.74248 -22631210.18446  21117925.2664                   21117920.9844
 -11699012.70748  -9102874.69145  22053935.5474                   22053934.0634
 11  8 22  1 20 30.0000000  0  8G10G12G29G05G04G25G02G30
 -21690427.53147 -16889333.44545  22042041.4064                   22042039.2194
 -24452466.44948 -19040701.98846  20863507.9694                   20863504.7274
    991898.75447    783110.52044  24177956.5394                   24177955.3954
 -24962020.67248 -19436820.50847  20466441.5004                   20466438.5594
 -19002918.20747 -14792577.77344  23890653.2584                   23890653.0354
 -12788440.86348  -9951609.51646  22159517.1954                   22159517.0354
 -29050956.52348 -22622642.48446  21120017.6954                   21120013.2384
 -11758950.69147  -9149579.60545  22042530.2424                   22042528.1684
 11  8 22  1 21  0.0000000  0  8G10G12G29G05G04G25G02G30
 -21630249.96947 -16842441.84845  22053492.7274                   22053490.7854
 -24456932.03548 -19044181.68046  20862657.9144                   20862654.7584
    892848.08647    705928.19944  24159108.3984                   24159106.8674
 -25005418.03148 -19470636.61747  20458183.1644                   20458180.5164
 -18939106.07447 -14742854.07044  23902795.9924                   23902795.3134
 -12857839.21148 -10005686.13346  22146311.2274                   22146311.2704
 -29039741.19948 -22613903.28146  21122151.8984                   21122147.4264
 -11818234.81647  -9195775.01645  22031248.6094                   22031246.8634
 11  8 22  1 21 30.0000000  0  8G10G12G29G05G04G25G02G30
 -21569567.55947 -16795156.86345  22065040.4384                   22065038.3364
 -24460735.65248 -19047145.56246  20861934.3524                   20861931.1174
    793826.52747    628768.55144  24140264.5394                   24140263.3324
 -25048161.89848 -19503943.50847  20450049.0944                   20450046.9344
 -18875255.21947 -14693100.19944  23914946.1254                   23914945.9494
 -12926648.59848 -10059303.82446  22133216.9774                   22133217.2384
 -29028308.93748 -22604995.03546  21124327.5394                   21124322.4144
 -11876866.10547  -9241461.71145  22020091.0554                   22020089.4264
 11  8 22  1 22  0.0000000  0  8G10G12G29G05G04G25G02G30
 -21508383.27047 -16747480.80145  22076683.5234                   22076681.1294
 -24463878.20348 -19049594.30946  20861336.3134                   20861333.0234
    694834.45347    551631.89144  24121427.0944                   24121424.9104
 -25090251.70348 -19536740.73447  20442039.7814                   20442037.3014
 -18811367.07046 -14643317.27044  23927104.3444                   23927104.0204
 -12994867.72348 -10112461.56646  22120235.4924                   22120235.1764
 -29016660.89848 -22595918.64146  21126543.8914                   21126539.4844
 -11934843.70747  -9286639.06645  22009058.7974                   22009056.2194
 11  8 22  1 22 30.0000000  0  8G10G12G29G05G04G25G02G30
 -21446702.21947 -16699417.65645  22088421.0704                   22088418.4844
 -24466362.20348 -19051529.91446  20860863.2034                   20860860.1024
    595870.40246    474516.99643  24102595.0704                   24102592.4104
 -25131689.46948 -19569029.89147  20434154.3984                   20434151.6914
 -18747444.39546 -14593507.43444  23939267.6414                   23939267.9144
 -13062496.97748 -10165159.67246  22107366.4144                   22107365.6764
 -29004800.31648 -22586676.64146  21128800.8754                   21128796.3094
 -11992168.51247  -9331307.73445  21998150.1804                   21998148.1764
 11  8 22  1 23  0.0000000  0  8G10G12G29G05G04G25G02G30
 -21384527.35947 -16650969.73445  22100252.3364                   22100250.1644
 -24468188.34848 -19052952.89546  20860515.7114                   20860513.2774
    496934.93046    397424.43843  24083768.0314                   24083765.8874
 -25172474.79748 -19600810.64847  20426393.1804                   20426390.2194
 -18683487.84846 -14543671.23843  23951438.7974                   23951437.8714
 -13129534.86348 -10217396.97346  22094608.8984                   22094609.1134
 -28992728.44148 -22577269.99646  21131098.4614                   21131093.8484
 -12048839.47747  -9375466.91445  21987365.5164                   21987363.9414
 11  8 22  1 23 30.0000000  0  8G10G12G29G05G04G25G02G30
 -21321862.39847 -16602139.91045  22112177.3594                   22112175.5314
 -24469358.58648 -19053864.77346  20860293.3054                   20860290.1374
    398028.18046    320354.25043  24064946.1174                   24064944.1804
 -25212608.34448 -19632083.51647  20418756.2584                   20418753.4264
 -18619499.27746 -14493810.06643  23963614.7974                   23963614.2934
 -13195980.83648 -10269173.03946  22081964.6254                   22081964.9064
 -28980446.78948 -22567699.88346  21133435.3444                   21133430.5234
 -12104856.46547  -9419116.51245  21976706.3984                   21976704.3674
 11  8 22  1 24  0.0000000  0  8G10G12G29G05G04G25G02G30
 -21258712.00447 -16552931.83645  22124194.0234                   22124192.0044
 -24469874.66048 -19054266.92246  20860195.2344                   20860192.2424
    299149.43046    243305.88743  24046129.0864                   24046128.5704
 -25252091.23048 -19662849.38347  20411242.6484                   20411239.7974
 -18555480.53146 -14443925.39843  23975797.7664                   23975796.6994
 -13261834.83648 -10320487.82846  22069433.2814                   22069433.0044
 -28967958.06248 -22557968.41846  21135811.7894                   21135806.9384
 -12160219.86747  -9462256.82845  21966170.9614                   21966169.3014
 11  8 22  1 24 30.0000000  0  8G10G12G29G05G04G25G02G30
 -21195079.70747 -16503348.25045  22136302.8444                   22136301.1174
 -24469738.50848 -19054160.83646  20860221.3054                   20860218.3984
    200298.85946    166279.51244  24027318.9614                   24027318.4574
 -25290924.20748 -19693108.82847  20403853.0084                   20403850.1804
 -18491433.75446 -14394018.82443  23987985.0394                   23987984.8094
 -13327095.99648 -10371340.66446  22057014.1884                   22057014.6024
 -28955264.08248 -22548077.00446  21138227.2814                   21138223.1024
 -12214929.37947  -9504887.60545  21955760.0704                   21955758.1454
 11  8 22  1 25  0.0000000  0  8G10G12G29G05G04G25G02G30
 -21130970.43047 -16453392.99645  22148503.0784                   22148500.7664
 -24468953.03548 -19053548.78546  20860370.5864                   20860367.2734
    101475.31346     89274.16044  24008513.4534                   24008512.6844
 -25329108.65248 -19722862.91447  20396586.7114                   20396583.8444
 -18427361.13346 -14344092.08643  24000177.8364                   24000176.8244
 -13391764.64548 -10421731.82046  22044708.4924                   22044708.5274
 -28942367.44548 -22538027.68446  21140681.7344                   21140677.2034
 -12268985.69147  -9547009.41045  21945473.3204                   21945471.5394
 11  8 22  1 25 30.0000000  0  8G10G12G29G05G04G25G02G30
 -21066386.98047 -16403068.23045  22160792.6484                   22160790.6414
 -24467518.58248 -19052431.03946  20860643.5394                   20860640.1644
      2679.31647     12290.30544  23989713.7814                   23989712.9884
 -25366644.42648 -19752111.55147  20389443.8984                   20389441.0394
 -18363263.35247 -14294145.77043  24012375.8204                   24012375.1094
 -13455839.35548 -10471660.14546  22032515.5084                   22032515.2194
 -28929269.24648 -22527821.29746  21143174.1724                   21143169.2974
 -12322387.96548  -9588621.56245  21935311.6644                   21935309.3754
 11  8 22  1 26  0.0000000  0  8G10G12G29G05G04G25G02G30
 -21001333.57047 -16352377.28145  22173172.0234                   22173169.1644
 -24465437.32848 -19050809.28946  20861039.2664                   20861036.3754
    -96089.26647    -64672.20744  23970918.8284                   23970917.7114
 -25403532.50448 -19780855.48847  20382424.5164                   20382421.5594
 -18299142.31646 -14244181.28943  24024577.9614                   24024575.6094
 -13519319.87548 -10521125.47746  22020435.5164                   22020435.2074
 -28915971.72748 -22517459.61346  21145704.4694                   21145700.2154
 -12375136.33248  -9629724.19145  21925273.7194                   21925271.8794
 11  8 22  1 26 30.0000000  0  8G10G12G29G05G04G25G02G30
 -20935812.88347 -16301322.22345  22185639.6484                   22185637.4804
 -24462710.30548 -19048684.34047  20861558.3674                   20861555.4654
   -194829.39147   -141612.53944  23952129.4774                   23952128.1054
 -25439772.53148 -19809094.45347  20375528.2584                   20375525.0864
 -18234998.61746 -14194199.17643  24036783.6414                   24036782.6134
 -13582204.57448 -10570126.53946  22008469.3594                   22008469.0984
 -28902475.69948 -22506943.22346  21148272.7194                   21148267.8594
 -12427229.83248  -9670316.53545  21915360.5634                   21915358.8164
 11  8 22  1 27  0.0000000  0  8G10G12G29G05G04G25G02G30
 -20869829.35547 -16249906.52045  22198196.2424                   22198194.3364
 -24459339.52048 -19046057.75846  20862199.5474                   20862196.9924
   -293541.63347   -218531.17644  23933344.9924                   23933343.2934
 -25475365.96148 -19836829.57047  20368754.9774                   20368752.2934
 -18170834.12147 -14144200.86743  24048993.4304                   24048992.2934
 -13644493.34848 -10618663.24246  21996615.5474                   21996615.6914
 -28888783.35548 -22496273.86746  21150878.1094                   21150873.7854
 -12478668.73048  -9710398.79345  21905572.4774                   21905570.2384
 11  8 22  1 27 30.0000000  0  8G10G12G29G05G04G25G02G30
 -20803386.38747 -16198132.78945  22210840.0944                   22210838.2384
 -24455326.30148 -19042930.58246  20862963.4064                   20862960.6604
   -392225.62947   -295427.77044  23914566.1334                   23914564.8524
 -25510312.97748 -19864060.99247  20362104.5084                   20362101.8914
 -18106649.96946 -14094187.22743  24061207.6564                   24061206.2194
 -13706185.05548 -10666734.69546  21984876.0704                   21984875.8984
 -28874896.12548 -22485452.64146  21153521.0004                   21153516.4654
 -12529452.42648  -9749970.50445  21895908.3754                   21895906.5124
 11  8 22  1 28  0.0000000  0  8G10G12G29G05G04G25G02G30
 -20736487.67647 -16146003.94545  22223570.2814                   22223568.2934
 -24450672.32448 -19039304.10246  20863849.0784                   20863846.0944
   -490881.27047   -372302.27344  23895792.6644                   23895791.4654
 -25544613.96148 -19890789.00847  20355577.2894                   20355574.4654
 -18042447.36346 -14044159.26243  24073424.4144                   24073423.7934
 -13767279.09848 -10714340.44146  21973250.2974                   21973250.0354
 -28860815.66448 -22474480.85946  21156200.1174                   21156195.9024
 -12579580.81648  -9789031.59846  21886369.4064                   21886367.4224
 11  8 22  1 28 30.0000000  0  8G10G12G29G05G04G25G02G30
 -20669136.44947 -16093522.48445  22236386.9534                   22236384.6844
 -24445378.78148 -19035179.27046  20864856.3984                   20864853.2704
   -589508.30947   -449154.48844  23877024.3914                   23877022.8324
 -25578269.53148 -19917014.10247  20349172.7894                   20349170.1414
 -17978227.60246 -13994117.90643  24085645.3674                   24085645.0744
 -13827774.66048 -10761479.83246  21961738.2584                   21961738.5004
 -28846543.23848 -22463359.48846  21158916.3754                   21158911.6954
 -12629053.58248  -9827581.80145  21876955.3834                   21876952.9734
 11  8 22  1 29  0.0000000  0  8G10G12G29G05G04G25G02G30
 -20601337.15647 -16040691.88745  22249288.6334                   22249286.2234
 -24439448.51648 -19030558.29746  20865984.9844                   20865982.0554
   -688106.65247   -525984.35244  23858261.8594                   23858260.3524
 -25611280.92248 -19942737.24247  20342891.1724                   20342888.1644
 -17913992.55946 -13944064.63343  24097869.2894                   24097867.9884
 -13887671.54748 -10808152.73046  21950340.0474                   21950340.2114
 -28832081.03148 -22452090.23046  21161668.1724                   21161663.4064
 -12677871.07848  -9865621.42246  21867665.6024                   21867663.4884
 11  8 22  1 29 30.0000000  0  8G10G12G29G05G04G25G02G30
 -20533094.52747 -15987515.81645  22262274.9844                   22262272.7304
 -24432884.39548 -19025443.40646  20867234.5474                   20867231.3554
   -786677.62147   -602792.86344  23839504.0944                   23839502.8954
 -25643649.82048 -19967959.74247  20336731.3054                   20336728.3054
 -17849744.86746 -13894001.53943  24110095.1174                   24110094.3634
 -13946970.37148 -10854359.59046  21939056.2584                   21939055.7114
 -28817432.09848 -22440675.48046  21164455.9064                   21164451.3674
 -12726034.45747  -9903151.32045  21858500.3134                   21858498.0274
 11  8 22  1 30  0.0000000  0  8G10G12G29G05G04G25G02G30
 -20464410.97747 -15933996.20745  22275345.0864                   22275343.2624
 -24425686.09048 -19019834.34046  20868603.8054                   20868601.3324
   -885219.43747   -679578.64544  23820752.2734                   23820750.7464
 -25675375.77748 -19992681.24647  20330694.1254                   20330691.1334
 -17785484.27046 -13843928.36343  24122323.9224                   24122322.3404
 -14005669.05948 -10900098.83246  21927886.3524                   21927886.1374
 -28802596.32048 -22429115.12546  21167278.8134                   21167274.2504
 -12773542.16847  -9940170.31245  21849459.2734                   21849457.4064
 11  8 22  1 30 30.0000000  0  8G10G12G29G05G04G25G02G30
 -20395290.60947 -15880136.18045  22288498.3914                   22288496.2544
 -24417856.57448 -19013733.42646  20870094.1174                   20870090.8204
   -983732.53547   -756342.07844  23802006.2504                   23802004.1054
 -25706459.93048 -20016902.65647  20324779.0784                   20324776.5744
 -17721212.81246 -13793846.75843  24134553.1484                   24134553.4104
 -14063767.58248 -10945370.39546  21916830.5394                   21916830.3204
 -28787575.98448 -22417410.96146  21170137.3674                   21170132.8134
 -12820394.63747  -9976678.72345  21840543.9774                   21840541.7114
 11  8 22  1 31  0.0000000  0  8G10G12G29G05G04G25G02G30
 -20325736.86347 -15825938.50445  22301733.7424                   22301731.6094
 -24409397.32448 -19007141.81646  20871703.4064                   20871700.5984
  -1082216.58646   -833082.83244  23783264.9064                   23783263.1484
 -25736902.87548 -20040624.41047  20318985.8834                   20318983.4964
 -17656931.28146 -13743757.32043  24146785.9224                   24146784.9344
 -14121265.12548 -10990173.66846  21905889.3204                   21905888.7734
 -28772372.44547 -22405564.03946  21173030.2114                   21173025.8674
 -12866591.79347 -10012676.50846  21831752.9774                   21831751.2034
 11  8 22  1 31 30.0000000  0  8G10G12G29G05G04G25G02G30
 -20255754.98847 -15771407.18045  22315051.0234                   22315049.2274
 -24400311.41448 -19000061.89846  20873432.4144                   20873429.4844
  -1180672.44547   -909801.64544  23764528.9454                   23764528.4064
 -25766706.58248 -20063848.05947  20313314.3524                   20313311.5864
 -17592642.50046 -13693662.24243  24159019.7894                   24159018.9184
 -14178162.41048 -11034509.20346  21895061.6024                   21895061.7114
 -28756988.52748 -22393576.56246  21175957.7194                   21175953.2814
 -12912134.67647 -10048164.46145  21823086.5314                   21823084.1134
 11  8 22  1 32  0.0000000  0  8G10G12G29G05G04G25G02G30
 -20185348.02747 -15716544.62145  22328449.1254                   22328447.3754
 -24390600.23048 -18992494.75046  20875280.4454                   20875277.6024
  -1279099.37947   -986497.91844  23745799.2974                   23745797.9654
 -25795871.63748 -20086574.06247  20307764.6174                   20307761.7074
 -17528347.18746 -13643562.07043  24171254.7814                   24171253.9614
 -14234458.41448 -11078376.20746  21884348.9144                   21884349.1804
 -28741425.34848 -22381449.41046  21178919.1174                   21178914.7274
 -12957023.02747 -10083142.38745  21814544.9924                   21814541.9304
 11  8 22  1 32 30.0000000  0  8G10G12G29G05G04G25G02G30
 -20114519.95747 -15661353.93045  22341926.7974                   22341925.2544
 -24380266.32848 -18984442.37146  20877246.8284                   20877244.0634
  -1377497.81247  -1063171.99644  23727074.8674                   23727073.9454
 -25824399.27348 -20108803.36747  20302336.0314                   20302333.1374
 -17464047.37546 -13593458.34043  24183491.3364                   24183490.1604
 -14290153.28548 -11121774.78946  21873750.7344                   21873750.4654
 -28725685.34448 -22369184.46546  21181914.8364                   21181909.9264
 -13001257.37147 -10117610.69145  21806126.9774                   21806124.9884
 11  8 22  1 33  0.0000000  0  8G10G12G29G05G04G25G02G30
 -20043274.78547 -15605838.23045  22355484.2034                   22355482.1604
 -24369311.39848 -18975906.07446  20879331.5084                   20879328.6564
  -1475867.09847  -1139823.35944  23708355.7034                   23708354.7304
 -25852290.14548 -20130536.51247  20297028.5554                   20297026.0204
 -17399743.84046 -13543351.71143  24195727.7034                   24195725.8834
 -14345246.30548 -11164704.39146  21863266.9064                   21863267.1294
 -28709769.53148 -22356782.52746  21184943.6414                   21184939.0084
 -13044837.68747 -10151569.36745  21797833.9384                   21797831.9614
 11  8 22  1 33 30.0000000  0  8G10G12G29G05G04G25G02G30
 -19971614.82847 -15549999.32845  22369120.6954                   22369119.0514
 -24357735.64548 -18966886.01646  20881534.4774                   20881531.8284
  -1574205.71547  -1216450.83245  23689642.3984                   23689640.6994
 -25879543.59848 -20151772.94947  20291842.5164                   20291839.5004
 -17335436.38346 -13493242.04743  24207964.6484                   24207964.3954
 -14399735.46948 -11207163.46146  21852897.8674                   21852897.8444
 -28693677.99248 -22344243.66046  21188005.4774                   21188000.8794
 -13087762.48447 -10185017.24645  21789665.7664                   21789663.5474
 11  8 22  1 34  0.0000000  0  8G10G12G29G05G04G25G02G30
 -19899544.40647 -15493840.58645  22382835.8754                   22382834.0314
 -24345541.58648 -18957384.16846  20883854.9534                   20883852.0554
  -1672514.13747  -1293054.75845  23670934.8594                   23670934.1294
 -25906161.53148 -20172514.18747  20286776.9304                   20286774.0634
 -17271127.23446 -13443131.03943  24220202.1174                   24220201.9064
 -14453621.25448 -11249152.36346  21842643.5394                   21842643.6374
 -28677413.31248 -22331569.88746  21191100.4384                   21191095.9734
 -13130032.74248 -10217955.09846  21781621.8914                   21781620.0474
 11  8 22  1 34 30.0000000  0  8G10G12G29G05G04G25G02G30
 -19827066.54747 -15437364.34045  22396627.4144                   22396625.9614
 -24332731.02748 -18947401.92646  20886292.7424                   20886290.2074
  -1770791.14847  -1369634.21145  23652233.5944                   23652232.4454
 -25932143.96148 -20192760.21547  20281832.7584                   20281830.3014
 -17206816.54346 -13393018.82043  24232439.7274                   24232439.2814
 -14506902.23048 -11290669.98846  21832504.6094                   21832504.5084
 -28660976.15248 -22318761.70746  21194228.3984                   21194223.9454
 -13171647.66048 -10250382.29345  21773702.7344                   21773700.7304
 11  8 22  1 35  0.0000000  0  8G10G12G29G05G04G25G02G30
 -19754184.84047 -15380573.42245  22410496.6254                   22410494.6054
 -24319306.03548 -18936940.90646  20888847.5164                   20888844.3834
  -1869036.48447  -1446188.98044  23633538.4304                   23633536.2664
 -25957492.05948 -20212511.96547  20277009.3674                   20277006.2154
 -17142505.78946 -13342906.59043  24244678.3834                   24244676.9454
 -14559578.11348 -11331716.11746  21822480.6724                   21822481.0204
 -28644367.74648 -22305820.09446  21197388.6254                   21197384.4454
 -13212607.60248 -10282299.10546  21765908.3054                   21765906.5164
 11  8 22  1 35 30.0000000  0  9G10G12G29G26G05G04G25G02G30
 -19680903.85247 -15323471.36745  22424441.4844                   22424440.0704
 -24305269.11348 -18926003.05546  20891518.7344                   20891515.3524
  -1967250.76647  -1522719.53544  23614848.0474                   23614847.2274
   4570653.71955   3572360.61353  24817786.2814                   24817787.2114
 -25982207.68748 -20231770.89147  20272305.8914                   20272303.3134
 -17078197.01646 -13292795.89843  24256916.0164                   24256915.8444
 -14611649.43748 -11372291.16446  21812571.4694                   21812571.6334
 -28627590.88348 -22292747.20746  21200581.2894                   21200576.9774
 -13252913.60248 -10313706.37545  21758238.2974                   21758236.2464
 11  8 22  1 36  0.0000000  0  9G10G12G29G26G05G04G25G02G30
 -19607228.50447 -15266062.03145  22438460.7664                   22438459.5944
 -24290623.33648 -18914590.78146  20894305.6174                   20894302.8324
  -2065434.79347  -1599226.54744  23596164.0084                   23596163.5044
   4463731.18846   3489044.51643  24797440.4304                   24797441.2154
 -26006292.56248 -20250538.30547  20267722.8204                   20267719.7074
 -17013892.49246 -13242688.46543  24269152.2424                   24269151.8524
 -14663116.85548 -11412395.62146  21802777.7344                   21802777.8874
 -28610647.85548 -22279544.84446  21203805.7274                   21203801.1914
 -13292566.96548 -10344605.09446  21750692.3364                   21750690.2114
 11  8 22  1 36 30.0000000  0  9G10G12G29G26G05G04G25G02G30
 -19533166.27047 -15208351.22345  22452554.8834                   22452553.2384
 -24275375.04748 -18902709.00846  20897207.2424                   20897204.3094
  -2163591.86347  -1675712.55544  23577485.8364                   23577483.9414
   4356722.52346   3405661.35943  24777076.7274                   24777077.1254
 -26029751.68048 -20268818.11747  20263258.6884                   20263255.8444
 -16949597.24246 -13192588.28543  24281387.6024                   24281386.6764
 -14713983.90248 -11452032.27046  21793098.1644                   21793098.4654
 -28593544.35548 -22266217.44946  21207060.5474                   21207055.8634
 -13331571.77348 -10374998.44146  21743270.3364                   21743268.6414
 11  8 22  1 37  0.0000000  0  9G10G12G29G26G05G04G25G02G30
 -19458720.47347 -15150341.53145  22466721.4924                   22466719.7814
 -24259525.62148 -18890358.81646  20900223.1644                   20900220.3984
  -2261721.44147  -1752177.13344  23558812.3914                   23558810.6994
   4249630.12546   3322212.88343  24756698.0084                   24756698.2034
 -26052586.27348 -20286611.28947  20258913.1094                   20258910.2424
 -16885312.20746 -13142496.09443  24293620.5314                   24293620.5204
 -14764249.96948 -11491200.63346  21783532.8444                   21783532.8834
 -28576281.45748 -22252765.83646  21210345.5084                   21210341.0664
 -13369928.00448 -10404886.41446  21735971.2814                   21735969.6334
 11  8 22  1 37 30.0000000  0  9G10G12G29G26G05G04G25G02G30
 -19383895.05547 -15092036.01644  22480960.4844                   22480958.7854
 -24243077.34048 -18877541.98846  20903353.7814                   20903350.3164
  -2359823.06647  -1828619.93444  23540144.0004                   23540141.9384
   4142455.70346   3238700.54743  24736302.7584                   24736303.0904
 -26074796.93048 -20303918.28547  20254686.6094                   20254684.0084
 -16821038.47346 -13092412.67243  24305851.3674                   24305851.2344
 -14813914.74648 -11529900.44946  21774082.2114                   21774081.5234
 -28558860.62948 -22239191.16846  21213660.3364                   21213655.6054
 -13407636.00848 -10434269.27746  21728795.5944                   21728793.7584
 11  8 22  1 38  0.0000000  0  9G10G12G29G26G05G04G25G02G30
 -19308691.22747 -15033435.63744  22495271.6094                   22495269.4224
 -24226030.09048 -18864258.42646  20906597.6804                   20906594.5234
  -2457894.30147  -1905039.03144  23521481.7194                   23521479.6604
   4035203.85246   3155127.84443  24715893.4304                   24715894.5514
 -26096382.48048 -20320738.17247  20250579.1484                   20250576.3674
 -16756774.89846 -13042337.24643  24318080.8134                   24318079.8914
 -14862975.62148 -11568129.69146  21764746.0474                   21764745.9454
 -28541281.14547 -22225492.86346  21217005.8444                   21217001.2344
 -13444693.71948 -10463145.42646  21721743.8134                   21721741.7074
 11  8 22  1 38 30.0000000  0  9G10G12G29G26G05G04G25G02G30
 -19233112.68447 -14974543.29744  22509653.2814                   22509651.2974
 -24208385.78548 -18850509.62946  20909954.7584                   20909952.1334
  -2555934.26647  -1981433.76644  23502825.2664                   23502823.9304
   3927876.69146   3071496.47343  24695469.5944                   24695470.3674
 -26117344.13748 -20337071.91447  20246590.2734                   20246587.4964
 -16692522.69146 -12992270.60943  24330307.5394                   24330306.8204
 -14911432.14148 -11605888.01246  21755525.3914                   21755524.8874
 -28523544.02348 -22211671.73046  21220380.9774                   21220376.6644
 -13481101.30548 -10491514.96946  21714815.8594                   21714813.7544
 11  8 22  1 39  0.0000000  0  9G10G12G29G26G05G04G25G02G30
 -19157162.50447 -14915361.37145  22524106.2814                   22524104.4774
 -24190145.89548 -18836296.74246  20913425.8914                   20913423.2814
  -2653942.00047  -2057803.40244  23484175.1804                   23484173.9774
   3820476.95746   2987808.54343  24675031.2034                   24675032.6804
 -26137682.32448 -20352919.83647  20242719.8914                   20242716.9064
 -16628282.04746 -12942213.00443  24342532.0314                   24342531.1914
 -14959283.50848 -11643174.78946  21746418.8364                   21746419.1884
 -28505650.18047 -22197728.47746  21223785.9614                   21223781.2974
 -13516858.66048 -10519377.85246  21708011.3524                   21708009.4384
 11  8 22  1 39 30.0000000  0  9G10G12G29G26G05G04G25G02G30
 -19080842.76647 -14855891.46944  22538629.6414                   22538627.5204
 -24171310.65648 -18821619.95346  20917009.9304                   20917007.4804
  -2751915.09847  -2134146.02344  23465531.0084                   23465529.7344
   3713008.32446   2904066.93043  24654581.2504                   24654581.6294
 -26157396.31248 -20368281.36747  20238968.5314                   20238965.6484
 -16564052.43746 -12892163.99243  24354755.0634                   24354754.7384
 -15006527.62948 -11679988.39546  21737429.1174                   21737429.0354
 -28487599.26247 -22183662.82446  21227220.9224                   21227216.4184
 -13551964.25048 -10546732.86345  21701330.6174                   21701328.9264
 11  8 22  1 40  0.0000000  0  9G10G12G29G26G05G04G25G02G30
 -19004156.94147 -14796136.32044  22553222.4924                   22553220.7154
 -24151882.71948 -18806481.30946  20920707.2274                   20920704.2114
  -2849853.59847  -2210461.68445  23446895.0234                   23446893.0634
   3605473.02046   2820273.38343  24634117.5634                   24634117.9384
 -26176487.18448 -20383157.35247  20235335.7194                   20235332.3754
 -16499834.95747 -12842124.41443  24366974.5164                   24366974.6454
 -15053164.24648 -11716328.60546  21728554.3054                   21728554.2704
 -28469392.67648 -22169475.87546  21230685.7194                   21230681.2774
 -13586418.41848 -10573580.27746  21694774.4924                   21694772.5864
 11  8 22  1 40 30.0000000  0  9G10G12G29G26G05G04G25G02G30
 -18927107.64147 -14736097.93445  22567884.4614                   22567882.4384
 -24131863.05548 -18790881.58646  20924516.9384                   20924513.8404
  -2947755.58247  -2286748.87944  23428264.2344                   23428262.7814
   3497874.18046   2736430.31343  24613642.7584                   24613642.7234
 -26194955.08648 -20397547.89847  20231821.1804                   20231818.4454
 -16435629.49247 -12792094.18443  24379192.7974                   24379191.6484
 -15099192.06248 -11752194.44546  21719795.5164                   21719795.0594
 -28451030.76648 -22155167.89846  21234180.0164                   21234175.0864
 -13620220.50848 -10599919.58246  21688342.2894                   21688340.2894
 11  8 22  1 41  0.0000000  0  9G10G12G29G26G05G04G25G02G30
 -18849699.08247 -14675779.59044  22582613.9144                   22582612.2114
 -24111254.25848 -18774822.79346  20928438.6414                   20928435.7894
  -3045620.72347  -2363007.37944  23409641.0634                   23409639.6524
   3390213.58646   2652539.13743  24593154.8134                   24593155.1524
 -26212801.66448 -20411454.31647  20228425.1954                   20228422.4024
 -16371437.77747 -12742074.65243  24391407.5944                   24391407.2544
 -15144611.34048 -11787586.09046  21711152.6484                   21711152.0944
 -28432515.37148 -22140740.32046  21237703.5944                   21237698.9064
 -13653371.44948 -10625751.49246  21682033.3134                   21682031.5314
 11  8 22  1 41 30.0000000  0  9G10G12G29G26G05G04G25G02G30
 -18771934.23047 -14615183.63344  22597412.4924                   22597410.8134
 -24090057.91048 -18758306.17646  20932472.0704                   20932469.3094
  -3143448.23847  -2439236.57444  23391024.6804                   23391023.9574
   3282493.99646   2568601.93843  24572656.5784                   24572655.7074
 -26230027.67248 -20424877.16047  20225146.8284                   20225144.0234
 -16307259.84847 -12692065.84443  24403619.9384                   24403619.8054
 -15189421.25448 -11822502.91046  21702625.3364                   21702625.4024
 -28413846.94548 -22126193.50846  21241255.5314                   21241251.3874
 -13685871.02048 -10651075.84845  21675849.3204                   21675847.0944
 11  8 22  1 42  0.0000000  0  9G10G12G29G26G05G04G25G02G30
 -18693816.64547 -14554312.82444  22612278.4924                   22612276.0514
 -24068275.96948 -18741333.25046  20936616.6254                   20936614.0944
  -3241237.55147  -2515435.99644  23372416.3674                   23372414.9024
   3174717.74646   2484620.65243  24552147.0004                   24552146.6604
 -26246633.89848 -20437817.05947  20221987.2664                   20221984.2384
 -16243096.69146 -12642068.59443  24415830.0864                   24415830.2734
 -15233621.45348 -11856944.63746  21694214.3284                   21694214.3634
 -28395026.96948 -22111528.59846  21244837.3984                   21244832.7774
 -13717719.53148 -10675892.87545  21669789.0234                   21669786.3714
 11  8 22  1 42 30.0000000  0  9G10G12G29G26G05G04G25G02G30
 -18615349.24647 -14493169.43744  22627210.0554                   22627208.5434
 -24045910.23048 -18723905.41446  20940873.3674                   20940870.1994
  -3338987.30547  -2591604.60244  23353814.7344                   23353813.7424
   3066887.67346   2400597.34043  24531627.8204                   24531628.3714
 -26262621.22748 -20450274.69547  20218944.8834                   20218942.1054
 -16178948.93747 -12592083.29743  24428037.6954                   24428036.5904
 -15277211.21148 -11890910.68046  21685919.6484                   21685919.3204
 -28376056.05148 -22096746.07046  21248447.1804                   21248442.6764
 -13748916.84848 -10700202.48846  21663851.7894                   21663849.9224
 11  8 22  1 43  0.0000000  0  9G10G12G29G26G05G04G25G02G30
 -18536535.46147 -14431756.13344  22642207.6724                   22642206.0864
 -24022963.11748 -18706024.56246  20945239.7664                   20945237.0824
  -3436696.67247  -2667741.73445  23335222.0784                   23335220.1414
   2959005.93846   2316533.81643  24511098.5944                   24511098.4454
 -26277990.54348 -20462250.77747  20216019.9924                   20216017.4494
 -16114817.10946 -12542110.39843  24440240.9844                   24440240.1414
 -15320190.22748 -11924400.82846  21677740.9224                   21677741.1024
 -28356935.51648 -22081846.95746  21252085.6024                   21252081.1024
 -13779463.35948 -10724004.97346  21658039.1954                   21658037.3054
 11  8 22  1 43 30.0000000  0  9G10G12G29G26G05G04G25G02G30
 -18457378.52347 -14370075.42644  22657270.7584                   22657269.2304
 -23999436.12548 -18687691.85946  20949717.0004                   20949713.9844
  -3534364.68747  -2743846.66044  23316635.6414                   23316634.4144
   2851075.41046   2232432.33643  24490559.5314                   24490558.9884
 -26292742.87948 -20473746.09047  20213213.0314                   20213209.7584
 -16050701.91446 -12492150.46542  24452442.2974                   24452440.4184
 -15362557.94148 -11957414.63746  21669678.7114                   21669678.4414
 -28337665.90647 -22066831.69946  21255752.4534                   21255747.6994
 -13809359.18448 -10747300.43746  21652350.0554                   21652348.3014
 11  8 22  1 44  0.0000000  0  9G10G12G29G26G05G04G25G02G30
 -18377882.63347 -14308130.61745  22672398.3834                   22672396.5784
 -23975331.77048 -18668909.26246  20954303.8914                   20954301.1564
  -3631990.90647  -2819918.99645  23298058.7424                   23298056.2894
   2743098.21946   2148294.41042  24470012.0554                   24470011.2974
 -26306879.69148 -20484761.77047  20210522.7034                   20210520.0434
 -15986604.62146 -12442204.55543  24464639.7274                   24464638.0944
 -15404314.43748 -11989952.18046  21661732.6804                   21661732.1994
 -28318249.12947 -22051701.74646  21259447.1644                   21259443.0204
 -13838605.03548 -10770089.41046  21646784.3984                   21646782.6134
 11  8 22  1 44 30.0000000  0  9G10G12G29G26G05G04G25G02G30
 -18298051.32447 -14245924.44145  22687590.3134                   22687588.5514
 -23950652.33248 -18649678.54746  20959000.1094                   20958997.4224
  -3729574.75047  -2895958.32845  23279489.2034                   23279486.8364
   2635076.52046   2064121.81642  24449456.6484                   24449455.7344
 -26320402.05548 -20495298.66047  20207949.3594                   20207946.4224
 -15922526.05946 -12392273.19943  24476832.7344                   24476831.7584
 -15445459.67648 -12022013.40246  21653902.8524                   21653903.0744
 -28298686.30147 -22036457.99246  21263169.9614                   21263165.6684
 -13867201.49248 -10792372.37146  21641343.3284                   21641341.2194
 11  8 22  1 45  0.0000000  0  9G10G12G29G26G05G04G25G02G30
 -18217887.26647 -14183458.95745  22702844.7894                   22702842.9344
 -23925399.45748 -18630000.99646  20963805.6954                   20963803.0864
  -3827114.59047  -2971963.36744  23260927.5554                   23260925.9804
   2527013.41446   1979916.94943  24428892.4924                   24428891.9734
 -26333310.86348 -20505357.45747  20205492.9064                   20205490.1524
 -15858466.38746 -12342356.62143  24489022.9924                   24489022.2544
 -15485992.63748 -12053597.53946  21646189.8834                   21646190.1484
 -28278977.32048 -22021100.35546  21266920.3444                   21266916.2304
 -13895148.20748 -10814149.04346  21636025.0554                   21636023.4534
 11  8 22  1 45 30.0000000  0  9G10G12G29G26G05G04G25G02G30
 -18137393.10247 -14120736.25844  22718162.4534                   22718160.5704
 -23899574.82448 -18609877.92246  20968719.6884                   20968717.2854
  -3924609.17247  -3047933.15244  23242374.8204                   23242373.2464
   2418911.92646   1895682.18443  24408321.4384                   24408320.3714
 -26345606.68048 -20514938.59447  20203153.1484                   20203150.3754
 -15794425.79746 -12292454.85243  24501209.0944                   24501208.8954
 -15525912.74248 -12084704.12146  21638593.5234                   21638593.1884
 -28259123.29748 -22005629.69146  21270698.8204                   21270694.4734
 -13922445.32448 -10835419.53946  21630830.9384                   21630828.5234
 11  8 22  1 46  0.0000000  0  9G10G12G29G26G05G04G25G02G30
 -18056572.06647 -14057758.85944  22733542.3674                   22733539.7504
 -23873180.14848 -18589310.66046  20973742.5394                   20973739.6644
  -4022057.54746  -3123866.93045  23223831.2194                   23223829.2664
   2310774.80147   1811419.59443  24387743.2194                   24387742.6094
 -26357290.27048 -20524042.67247  20200930.0234                   20200927.2504
 -15730404.69546 -12242568.31643  24513392.4224                   24513391.3484
 -15565219.47348 -12115332.74246  21631113.4384                   21631113.5124
 -28239125.11747 -21990046.69946  21274503.8914                   21274499.4414
 -13949092.89548 -10856183.88346  21625760.1644                   21625757.9844
 11  8 22  1 46 30.0000000  0  9G10G12G29G26G05G04G25G02G30
 -17975428.94147 -13994530.46544  22748983.0004                   22748981.1954
 -23846219.15648 -18568302.11746  20978873.3054                   20978870.7344
  -4119459.92647  -3199764.88345  23205295.9224                   23205294.3984
   2202603.51647   1727130.42243  24367159.1024                   24367158.7194
 -26368364.02748 -20532671.56647  20198822.7034                   20198819.8444
 -15666404.98846 -12192698.41444  24525571.5314                   24525570.8364
 -15603913.74248 -12145484.12146  21623750.3984                   21623750.3554
 -28218985.03147 -21974353.13346  21278336.6334                   21278332.0514
 -13975092.62548 -10876443.41846  21620812.6414                   21620810.3714
 11  8 22  1 47  0.0000000  0  9G10G12G29G26G05G04G25G02G30
 -17893966.50046 -13931053.27044  22764484.4224                   22764483.4614
 -23818693.37148 -18546853.47346  20984111.1094                   20984108.3324
  -4216814.71947  -3275625.74645  23186769.8754                   23186767.9104
   2094400.73447   1642816.73043  24346568.0554                   24346568.3164
 -26378828.98448 -20540826.05947  20196831.3674                   20196828.2384
 -15602426.96546 -12142845.41044  24537745.6954                   24537745.3404
 -15641995.02048 -12175157.84446  21616503.8364                   21616503.9264
 -28198703.00447 -21958548.95346  21282195.9454                   21282191.4614
 -14000444.59848 -10896198.20746  21615987.7274                   21615985.9574
 11  8 22  1 47 30.0000000  0  9G10G12G29G26G05G04G25G02G30
 -17812188.26647 -13867329.99644  22780047.1724                   22780045.3444
 -23790605.51248 -18524966.84046  20989456.0394                   20989453.3554
  -4314121.43747  -3351449.15644  23168253.1414                   23168251.8794
   1986169.16447   1558480.60243  24325972.6334                   24325972.1254
 -26388686.05148 -20548506.87547  20194955.4454                   20194952.4494
 -15538471.40247 -12093009.92244  24549915.8594                   24549915.4144
 -15679463.17648 -12204353.80946  21609373.5474                   21609373.5594
 -28178280.50448 -21942635.30946  21286082.1564                   21286077.7344
 -14025149.35248 -10915448.66045  21611286.4384                   21611284.8674
 11  8 22  1 48  0.0000000  0  9G10G12G29G26G05G04G25G02G30
 -17730097.96547 -13803363.54744  22795668.6884                   22795666.3714
 -23761957.71548 -18502643.90246  20994907.7344                   20994904.6524
  -4411379.09047  -3427234.34044  23149745.0554                   23149743.9804
   1877911.08647   1474123.74643  24305371.6094                   24305372.4774
 -26397936.83248 -20555715.27047  20193194.9144                   20193191.9384
 -15474539.33647 -12043192.75044  24562082.5864                   24562082.0354
 -15716318.35548 -12233072.13346  21602360.2034                   21602360.5164
 -28157718.59048 -21926613.04346  21289995.0944                   21289991.1214
 -14049207.70348 -10934195.43046  21606708.9224                   21606706.7464
 11  8 22  1 48 30.0000000  0  9G10G12G29G26G05G04G25G02G30
 -17647698.02047 -13739155.82044  22811348.6884                   22811346.3874
 -23732750.99248 -18479885.44146  21000465.7584                   21000462.6254
  -4508585.92646  -3502979.93044  23131246.9534                   23131245.6604
   1769630.44147   1389749.35943  24284766.5084                   24284766.1094
 -26406581.46948 -20562451.33647  20191549.7504                   20191547.0314
 -15410630.02047 -11993393.30144  24574244.1644                   24574243.1024
 -15752559.19948 -12261311.74646  21595463.7814                   21595463.8404
 -28137016.98847 -21910481.91846  21293934.3284                   21293930.2274
 -14072619.00048 -10952438.00446  21602253.8524                   21602251.6724
 11  8 22  1 49  0.0000000  0  9G10G12G29G26G05G04G25G02G30
 -17564991.90647 -13674709.53544  22827086.8284                   22827085.0474
 -23702987.91848 -18456693.45346  21006129.0784                   21006126.8204
  -4605740.71147  -3578684.96144  23112759.9224                   23112757.6174
   1661329.36347   1305359.05144  24264157.3914                   24264156.5634
 -26414621.55148 -20568716.32447  20190019.9304                   20190017.0164
 -15346744.27747 -11943612.20344  24586401.0314                   24586400.2384
 -15788185.83248 -12289072.74646  21588684.1884                   21588684.7274
 -28116177.22747 -21894243.12546  21297900.1884                   21297896.0084
 -14095384.02048 -10970176.96946  21597921.4304                   21597919.4534
 11  8 22  1 49 30.0000000  0  8G10G12G29G26G05G25G02G30
 -17481982.95346 -13610027.27344  22842882.8594                   22842881.9064
 -23672671.19948 -18433070.05546  21011898.2734                   21011895.5784
  -4702842.95347  -3654349.03945  23094281.5704                   23094279.5704
   1553010.23047   1220954.65644  24243545.4454                   24243544.4224
 -26422058.65248 -20574511.45747  20188604.9224                   20188602.1524
 -15823198.42248 -12316355.28546  21582021.9384                   21582021.7424
 -28095200.48047 -21877897.60246  21301891.8134                   21301887.6604
 -14117503.68748 -10987413.06646  21593712.6254                   21593710.5434
 11  8 22  1 50  0.0000000  0  8G10G12G29G26G05G25G02G30
 -17398674.56647 -13545111.67244  22858736.2274                   22858733.8284
 -23641802.38348 -18409016.45346  21017772.4064                   21017769.7424
  -4799891.73847  -3729971.45745  23075814.1564                   23075812.4264
   1444675.98046   1136538.49244  24222929.9694                   24222929.7624
 -26428893.78548 -20579837.52347  20187304.1884                   20187301.4654
 -15857596.85948 -12343159.25046  21575475.8914                   21575475.9224
 -28074087.43748 -21861445.87946  21305909.8054                   21305905.4344
 -14138978.60248 -11004146.77046  21589625.6644                   21589623.7934
 11  8 22  1 50 30.0000000  0  8G10G12G29G26G05G25G02G30
 -17315067.29346 -13479963.21144  22874646.1954                   22874643.9344
 -23610382.05148 -18384533.10246  21023751.6724                   21023748.8444
  -4896882.98847  -3805549.05145  23057357.5004                   23057355.6604
   1336332.03947   1052114.75444  24202311.9844                   24202312.4104
 -26435125.88748 -20584693.70347  20186117.9384                   20186114.9964
 -15891378.26648 -12369482.42246  21569047.6024                   21569047.6174
 -28052836.23048 -21844886.48446  21309953.3984                   21309949.1134
 -14159806.46148 -11020376.26646  21585662.2344                   21585660.7274
 11  8 22  1 51  0.0000000  0  8G10G12G29G26G05G25G02G30
 -17231162.31246 -13414582.72744  22890612.9064                   22890610.3794
 -23578410.06648 -18359619.87946  21029835.6724                   21029833.0554
  -4993813.60247  -3881079.38745  23038911.6884                   23038910.8364
   1227983.08246    967687.12543  24181694.0944                   24181693.8484
 -26440753.80148 -20589079.07447  20185047.1644                   20185044.3954
 -15924540.45348 -12395323.08246  21562737.0004                   21562737.3984
 -28031445.53548 -21828218.39846  21314024.1884                   21314019.9344
 -14179985.83648 -11036100.44546  21581822.5634                   21581820.3324
 11  8 22  1 51 30.0000000  0  8G10G12G29G26G05G25G02G30
 -17146963.23447 -13348973.07844  22906635.2734                   22906632.7384
 -23545888.69948 -18334278.57846  21036024.2344                   21036021.5904
  -5090682.65647  -3956561.74645  23020478.2814                   23020477.1844
   1119631.83646    883257.70743  24161075.0474                   24161074.9184
 -26445779.10248 -20592994.88747  20184090.6954                   20184087.7114
 -15957083.53148 -12420681.31246  21556544.4144                   21556543.9494
 -28009916.34848 -21811442.39846  21318121.3674                   21318116.6334
 -14199517.55148 -11051319.96146  21578105.4454                   21578103.5864
 11  8 22  1 52  0.0000000  0  8G10G12G29G26G05G25G02G30
 -17062473.70747 -13283137.10244  22922713.0784                   22922711.2074
 -23512820.71948 -18308511.34446  21042316.5944                   21042313.9534
  -5187489.51647  -4031995.63345  23002056.5634                   23002055.3984
   1011280.54446    798828.25643  24140456.0704                   24140456.8794
 -26450203.38348 -20596442.37147  20183249.0554                   20183246.2344
 -15989007.95348 -12445557.47746  21550469.4064                   21550469.4534
 -27988250.17648 -21794559.64146  21322244.0634                   21322239.7624
 -14218402.71148 -11066035.66846  21574512.0394                   21574509.6914
 11  8 22  1 52 30.0000000  0  8G10G12G29G26G05G25G02G30
 -16977697.05147 -13217077.41844  22938845.4774                   22938843.3244
 -23479208.61348 -18282320.10546  21048712.8134                   21048710.6884
  -5284233.02047  -4107380.15245  22983646.7344                   22983645.3714
    902931.82446    714400.78143  24119838.7274                   24119837.8594
 -26454028.71948 -20599423.15247  20182520.7974                   20182518.1024
 -16020313.87148 -12469951.69146  21544511.9534                   21544512.0204
 -27966447.80148 -21777570.76646  21326392.9844                   21326388.2034
 -14236642.21948 -11080248.27346  21571041.3594                   21571038.9734
 11  8 22  1 53  0.0000000  0  8G10G12G29G26G05G25G02G30
 -16892638.41447 -13150797.98444  22955032.0704                   22955030.1054
 -23445056.48448 -18255708.07846  21055212.0864                   21055209.4494
  -5380914.19547  -4182716.07845  22965248.9924                   22965247.4964
    794586.46946    629975.98443  24099220.1954                   24099220.0394
 -26457257.75848 -20601939.27347  20181906.8134                   20181903.6804
 -16051003.14848 -12493865.41446  21538672.3134                   21538672.3164
 -27944511.79748 -21760477.77046  21330567.1484                   21330562.4534
 -14254238.65648 -11093959.78146  21567692.5084                   21567690.1764
 11  8 22  1 53 30.0000000  0  8G10G12G29G26G05G25G02G30
 -16807299.07047 -13084299.84844  22971271.1024                   22971270.0514
 -23410364.80948 -18228675.62546  21061813.8364                   21061811.2344
  -5477529.80547  -4258000.93745  22946863.9224                   22946862.4804
    686249.30546    545557.53943  24078605.3054                   24078603.6884
 -26459890.32048 -20603990.61747  20181405.1724                   20181402.8634
 -16081073.95748 -12517297.20346  21532949.6484                   21532949.7814
 -27922441.14148 -21743279.84046  21334766.9924                   21334762.2304
 -14271190.85548 -11107169.29346  21564466.6804                   21564464.5984
 11  8 22  1 54  0.0000000  0  8G10G12G29G26G05G25G02G30
 -16721682.98847 -13017586.06644  22987563.2894                   22987561.7934
 -23375137.08248 -18201225.46546  21068517.4614                   21068514.9734
  -5574079.42247  -4333234.35945  22928490.8984                   22928489.0704
    577922.44146    461147.13743  24057990.4844                   24057990.2584
 -26461928.53148 -20605578.82447  20181017.6094                   20181014.9734
 -16110526.98448 -12540247.60946  21527344.9224                   21527344.9414
 -27900237.49648 -21725978.29746  21338992.2344                   21338987.4184
 -14287500.27748 -11119877.93046  21561362.9924                   21561360.8794
 11  8 22  1 54 30.0000000  0  8G10G12G29G26G05G25G02G30
 -16635795.52047 -12950660.82044  23003907.6254                   23003905.6454
 -23339377.41848 -18173360.80546  21075322.2274                   21075319.8794
  -5670563.85247  -4408416.96945  22910130.2664                   22910129.1914
    469606.78946    376745.45343  24037378.8054                   24037377.9964
 -26463375.78948 -20606706.54747  20180742.4304                   20180739.5354
 -16139364.29748 -12562718.24646  21521857.4384                   21521857.8324
 -27877903.47748 -21708575.15646  21343242.2424                   21343237.9264
 -14303169.60548 -11132087.80546  21558381.3524                   21558379.6054
 11  8 22  1 55  0.0000000  0  8G10G12G29G26G05G25G02G30
 -16549639.02347 -12883525.93444  23020302.0084                   23020300.7074
 -23303087.34848 -18145082.84446  21082228.0554                   21082225.3204
  -5766981.11747  -4483547.24245  22891782.6094                   22891780.8094
    361306.03546    292355.39143  24016770.1804                   24016769.1564
 -26464232.55148 -20607374.15247  20180579.4694                   20180576.2704
 -16167585.17648 -12584708.53146  21516487.1484                   21516486.9454
 -27855439.03148 -21691070.39146  21347516.9304                   21347512.4534
 -14318198.94948 -11143798.98046  21555521.1254                   21555519.7934
 11  8 22  1 55 30.0000000  0  8G10G12G29G26G05G25G02G30
 -16463217.00847 -12816184.14144  23036748.3444                   23036745.7304
 -23266269.87548 -18116393.91846  21089234.1724                   21089231.0554
  -5863330.50447  -4558624.62145  22873448.1174                   22873446.3014
    253022.38347    207978.61743  23996164.5314                   23996163.3404
 -26464500.86748 -20607583.22747  20180528.6094                   20180525.8404
 -16195190.20748 -12606218.94546  21511233.9924                   21511233.8714
 -27832845.37548 -21673464.94146  21351816.6644                   21351812.1024
 -14332589.57048 -11155012.45346  21552782.8834                   21552780.9384
 11  8 22  1 56  0.0000000  0  8G10G12G29G26G05G25G02G30
 -16376532.93447 -12748638.10244  23053243.4384                   23053242.0904
 -23228926.93448 -18087295.53946  21096340.1804                   21096337.4694
  -5959610.52747  -4633647.94945  22855126.2194                   22855124.9414
    144758.93447    123617.63743  23975562.5864                   23975560.9224
 -26464182.05948 -20607334.80147  20180588.7194                   20180585.6684
 -16222179.39848 -12627249.48446  21506098.4694                   21506098.1134
 -27810123.19948 -21655759.35246  21356140.5314                   21356136.0004
 -14346342.17648 -11165728.77346  21550166.0944                   21550164.0554
 11  8 22  1 56 30.0000000  0  8G10G12G29G26G05G25G02G30
 -16289590.87147 -12680891.05944  23069787.7424                   23069785.9454
 -23191062.21548 -18057790.57846  21103545.9924                   21103543.3674
  -6055820.84047  -4708616.96145  22836818.4454                   22836816.5744
     36517.74647     39273.93843  23954964.9384                   23954964.1024
 -26463278.67248 -20606630.85947  20180761.0394                   20180758.2304
 -16248553.84048 -12647801.00046  21501079.2974                   21501079.1844
 -27787274.20348 -21637954.93746  21360488.7344                   21360483.7624
 -14359458.62948 -11175949.39546  21547670.0164                   21547667.8524
 11  8 22  1 57  0.0000000  0  8G10G12G29G26G05G25G02G30
 -16202394.04347 -12612945.49644  23086381.1804                   23086379.1604
 -23152678.53148 -18027881.23046  21110850.1414                   21110847.0594
  -6151960.53947  -4783530.95745  22818523.5394                   22818522.0204
    -71698.84047    -45050.56243  23934371.2664                   23934369.7814
 -26461792.13748 -20605472.51647  20181043.2034                   20181040.5944
 -16274313.88348 -12667873.76246  21496177.4534                   21496177.1024
 -27764299.17248 -21620052.31646  21364860.4694                   21364855.9384
 -14371939.94148 -11185675.08646  21545294.7034                   21545293.0594
 11  8 22  1 57 30.0000000  0  8G10G12G29G26G05G25G02G30
 -16114945.72747 -12544803.95344  23103021.9844                   23103020.4414
 -23113778.43748 -17997569.47346  21118252.1094                   21118249.5434
  -6248028.55547  -4858389.10945  22800241.9924                   22800240.5944
   -179887.29747   -129353.14843  23913784.0554                   23913783.0634
 -26459724.28148 -20603861.19147  20181437.0234                   20181434.4574
 -16299459.93448 -12687468.08646  21491392.1094                   21491391.9264
 -27741198.84448 -21602052.05946  21369256.5634                   21369251.6054
 -14383787.29748 -11194906.80546  21543040.1954                   21543038.3984
 11  8 22  1 58  0.0000000  0  8G10G12G29G26G05G25G02G30
 -16027249.10546 -12476468.96943  23119709.6024                   23119708.1564
 -23074364.28948 -17966857.16446  21125752.6024                   21125749.4964
  -6344023.77747  -4933190.54745  22781975.4694                   22781972.8364
   -288045.59847   -213632.18743  23893201.9924                   23893201.7194
 -26457076.78948 -20601798.21147  20181940.8134                   20181938.5124
 -16323992.30148 -12706584.21946  21486723.8674                   21486723.6604
 -27717973.97348 -21583954.76246  21373676.0314                   21373671.7074
 -14395001.73448 -11203645.32046  21540906.1884                   21540904.5234
 11  8 22  1 58 30.0000000  0  8G10G12G29G26G05G25G02G30
 -15939307.63347 -12407943.22343  23136444.1724                   23136443.6484
 -23034438.64548 -17935746.28946  21133350.1884                   21133347.4064
  -6439944.33247  -5007933.80545  22763722.0314                   22763719.9924
   -396170.52346   -297885.27743  23872626.5784                   23872625.5664
 -26453851.27748 -20599284.81247  20182554.7034                   20182551.9064
 -16347911.15648 -12725222.28546  21482172.0474                   21482172.2034
 -27694625.16048 -21565760.88346  21378118.9694                   21378114.3404
 -14405584.08648 -11211891.30946  21538892.7114                   21538891.0124
 11  8 22  1 59  0.0000000  0  8G10G12G29G26G05G25G02G30
 -15851123.45347 -12339228.31244  23153225.6094                   23153223.5594
 -22994003.27348 -17904238.22746  21141044.6334                   21141042.0984
  -6535788.37547  -5082617.44945  22745483.7344                   22745481.8524
   -504258.04346   -382109.21944  23852058.2734                   23852057.2664
 -26450048.38748 -20596321.52747  20183278.1564                   20183275.4344
 -16371215.80948 -12743381.76246  21477737.6954                   21477737.7854
 -27671152.33248 -21547470.36346  21382585.6414                   21382581.3714
 -14415534.51248 -11219644.89846  21536999.0394                   21536997.1724
 11  8 22  1 59 30.0000000  0  8G10G12G29G26G05G25G02G30
 -15762699.82847 -12270326.80944  23170052.4064                   23170050.6884
 -22953060.98848 -17872335.16446  21148836.1414                   21148833.3284
  -6631554.90247  -5157240.68445  22727259.1884                   22727258.1644
   -612305.61346   -466302.00043  23831497.7584                   23831496.1764
 -26445670.06648 -20592909.84047  20184111.4144                   20184108.8164
 -16393907.08648 -12761063.27046  21473419.1804                   21473419.0594
 -27647556.72748 -21529084.18046  21387075.6254                   21387071.3324
 -14424854.36748 -11226907.12546  21535225.2974                   21535223.7194
 11  8 22  2  0  0.0000000  0  8G10G12G29G26G05G25G02G30
 -15674040.34047 -12201241.55144  23186923.7584                   23186922.2774
 -22911614.51248 -17840039.21546  21156722.7974                   21156719.8714
  -6727242.50447  -5231802.43445  22709051.0004                   22709048.9654
   -720310.51246   -550461.56243  23810944.6804                   23810943.9654
 -26440717.85948 -20589050.97347  20185053.8834                   20185050.6524
 -16415985.22348 -12778267.01246  21469218.1334                   21469218.1454
 -27623838.62548 -21510602.54346  21391589.3524                   21391584.8444
 -14433544.81648 -11233678.90646  21533571.7974                   21533569.8524
 11  8 22  2  0 30.0000000  0  8G10G12G29G26G05G25G02G30
 -15585148.68447 -12131975.32844  23203839.1954                   23203837.2384
 -22869666.91448 -17807352.80146  21164705.2424                   21164702.7154
  -6822850.79347  -5306302.36345  22690857.4304                   22690855.4224
   -828270.10946   -634585.78944  23790400.7734                   23790399.6334
 -26435194.19148 -20584746.80547  20186105.0474                   20186102.3284
 -16437451.27748 -12794993.80946  21465133.2894                   21465133.1294
 -27599999.46148 -21492026.57046  21396125.6414                   21396121.2074
 -14441607.58248 -11239961.58646  21532037.4384                   21532035.8014
 11  8 22  2  1  0.0000000  0  8G10G12G29G26G05G25G02G30
 -15496027.82047 -12062530.52344  23220798.3914                   23220796.1884
 -22827220.55948 -17774277.73446  21172782.6884                   21172780.2034
  -6918378.06247  -5380739.17645  22672678.9924                   22672676.8444
   -936181.44146   -718672.43044  23769864.8204                   23769864.8324
 -26429100.74248 -20579998.65247  20187264.6414                   20187261.6334
 -16458305.59048 -12811243.91846  21461164.9614                   21461164.5164
 -27576039.96948 -21473356.84046  21400684.8674                   21400680.6844
 -14449043.66447 -11245755.93446  21530622.2344                   21530620.3874
 11  8 22  2  1 30.0000000  0  8G10G12G29G26G05G25G02G30
 -15406681.48047 -11992909.99244  23237800.0634                   23237797.9264
 -22784278.90648 -17740816.71546  21180953.7894                   21180951.8874
  -7013823.71547  -5455112.40245  22654515.9224                   22654514.3484
  -1044042.21946   -802719.67244  23749339.6644                   23749339.3914
 -26422439.50048 -20574808.07047  20188531.8524                   20188529.2934
 -16478549.04348 -12827018.02046  21457312.6484                   21457312.4344
 -27551961.12147 -21454594.09446  21405267.0004                   21405262.7424
 -14455854.79347 -11251063.31645  21529326.2664                   21529324.0274
 11  8 22  2  2  0.0000000  0  8G10G12G29G26G05G25G02G30
 -15317111.91847 -11923115.54744  23254844.3364                   23254842.8874
 -22740843.73848 -17706971.15246  21189219.5944                   21189217.1414
  -7109185.39147  -5529420.17645  22636369.6334                   22636367.2814
  -1151848.42246   -886724.42244  23728824.7274                   23728824.7774
 -26415211.37948 -20569175.75847  20189907.6094                   20189905.0824
 -16498181.16848 -12842315.78146  21453576.8284                   21453576.7074
 -27527762.58248 -21435738.09046  21409871.9774                   21409867.4534
 -14462041.19548 -11255883.89846  21528149.7424                   21528147.2974
 11  8 22  2  2 30.0000000  0  8G10G12G29G26G05G25G02G30
 -15227321.87147 -11853149.29343  23271930.9774                   23271929.8094
 -22696917.39548 -17672742.84846  21197578.3444                   21197576.0904
  -7204461.45747  -5603661.23045  22618238.8984                   22618237.6644
  -1259596.79346   -970684.09044  23708321.0634                   23708320.6994
 -26407418.02748 -20563103.00847  20191390.7344                   20191387.7734
 -16517202.29348 -12857137.43446  21449956.9384                   21449957.2384
 -27503444.66048 -21416789.05146  21414499.5784                   21414494.8524
 -14467603.97748 -11260218.53546  21527090.4614                   21527088.6334
 11  8 22  2  3  0.0000000  0  8G10G12G29G26G05G25G02G30
 -13561898.29347 -10555416.68743  23588850.9844                   23588849.3364
 -21077084.14848 -16410535.14546  21505822.4844                   21505819.8324
  -5724227.96947  -4450232.50845  22899917.9844                   22899916.2704
    208138.76246    173006.02743  23987621.3984                   23987620.7704
 -24823641.97348 -19328991.78947  20492772.8364                   20492770.5594
 -14960192.79748 -11643883.28146  21746245.9924                   21746246.1414
 -25903589.60548 -20170148.73846  21718942.1334                   21718936.9694
 -12897124.60947 -10036468.38346  21825942.6334                   21825940.8484
 11  8 22  2  3 30.0000000  0  8G10G12G29G26G05G25G02G30
 -13471678.17647 -10485115.34044  23606018.7584                   23606017.9884
 -21032183.97348 -16375548.01646  21514366.7114                   21514364.2624
  -5819329.69147  -4524337.72345  22881820.5634                   22881818.8204
    100514.14146     89142.78944  23967141.5784                   23967140.6724
 -24814724.00848 -19322042.71547  20494470.0554                   20494467.3554
 -14977994.14148 -11657754.44946  21742858.7894                   21742858.1294
 -25879036.26648 -20151016.26246  21723614.2894                   21723609.1914
 -12901444.46147 -10039834.50446  21825120.5634                   21825118.7344
 11  8 22  2  4  0.0000000  0  8G10G12G29G26G05G25G02G30
 -13381247.50847 -10414649.94944  23623227.5164                   23623226.0634
 -20986800.98848 -16340184.67246  21523002.6174                   21523000.3364
  -5914342.16447  -4598373.37145  22863740.3444                   22863738.4884
     -7044.03146      5331.28544  23946674.1414                   23946673.2584
 -24805246.65648 -19314657.76247  20496273.7974                   20496270.8134
 -14995186.58248 -11671151.15246  21739587.0084                   21739586.6214
 -25854366.08247 -20131792.73846  21728308.9534                   21728303.9694
 -12905144.96147 -10042718.00846  21824416.5634                   21824414.7664
 11  8 22  2  4 30.0000000  0  8G10G12G29G26G05G25G02G30
 -13290609.75447 -10344023.18044  23640475.9774                   23640474.2274
 -20940938.64148 -16304447.80546  21531730.0864                   21531727.5164
  -6009264.30547  -4672338.62945  22845677.0784                   22845675.3674
   -114532.95346    -78426.27744  23926219.4144                   23926218.5864
 -24795212.07048 -19306838.59447  20498183.0084                   20498180.0084
 -15011770.87548 -11684073.98046  21736431.2894                   21736431.4304
 -25829579.87148 -20112478.79346  21733025.3364                   21733021.0204
 -12908227.59448 -10045120.07446  21823830.1884                   21823827.9614
 11  8 22  2  5  0.0000000  0  8G10G12G29G26G05G25G02G30
 -13199767.45747 -10273236.98844  23657762.7344                   23657760.7114
 -20894598.95348 -16268338.98846  21540547.9384                   21540545.7814
  -6104094.08247  -4746231.91845  22827631.6024                   22827630.3794
   -221949.12547   -162127.13344  23905779.1644                   23905777.8554
 -24784621.22348 -19298585.98047  20500198.6254                   20500195.5784
 -15027747.05548 -11696522.94946  21733390.9844                   21733390.9924
 -25804677.69948 -20093074.50446  21737764.1484                   21737759.5904
 -12910693.16048 -10047041.30145  21823360.8834                   21823358.9224
 11  8 22  2  5 30.0000000  0  8G10G12G29G26G05G25G02G30
 -13108724.59847 -10202294.50844  23675087.1414                   23675085.6764
 -20847785.19948 -16231860.75446  21549456.6254                   21549454.1054
  -6198830.68747  -4820052.59445  22809603.8284                   22809602.4924
   -329290.29747   -245769.53944  23885352.4924                   23885350.6484
 -24773476.96548 -19289902.12547  20502319.3594                   20502316.3524
 -15043116.55148 -11708499.18046  21730466.1644                   21730465.8914
 -25779660.68448 -20073580.71946  21742524.6954                   21742520.0594
 -12912543.76248 -10048483.32846  21823008.6174                   21823006.5394
 11  8 22  2  6  0.0000000  0  8G10G12G29G26G05G25G02G30
 -13017482.88747 -10131197.12543  23692449.7734                   23692448.3484
 -20800498.87948 -16195014.28946  21558454.8674                   21558452.5204
  -6293471.48047  -4893798.61745  22791594.3444                   22791592.9844
   -436551.91046   -329349.94944  23864940.9454                   23864939.2384
 -24761779.49648 -19280787.21147  20504545.2194                   20504542.6294
 -15057878.59848 -11720002.09046  21727657.0634                   21727657.3554
 -25754528.31648 -20053997.04346  21747307.0554                   21747302.7504
 -12913779.43748 -10049446.19946  21822773.6954                   21822771.9694
 11  8 22  2  6 30.0000000  0  9G10G12G29G26G05G15G25G02G30
 -12926045.30946 -10059947.07043  23709849.7034                   23709847.9804
 -20752742.50848 -16157801.55946  21567542.5084                   21567540.6844
  -6388015.09447  -4967468.89845  22773603.1094                   22773601.6844
   -543730.94146   -412866.00444  23844545.2274                   23844543.8594
 -24749530.80948 -19271242.76247  20506875.9534                   20506873.0944
   6148175.90656   4801514.75853  24748241.2894                   24748242.1484
 -15072033.81248 -11731032.11746  21724963.2194                   21724963.6844
 -25729281.06648 -20034323.85546  21752111.5164                   21752106.8404
 -12914401.53548 -10049930.95746  21822655.3834                   21822653.2734
 11  8 22  2  7  0.0000000  0  9G10G12G29G26G05G15G25G02G30
 -12834417.87146  -9988549.12143  23727285.2194                   23727283.3284
 -20704521.97347 -16120227.13746  21576718.7664                   21576716.3914
  -6482462.86747  -5041064.50845  22755630.6334                   22755628.7154
   -650827.30146   -496317.63744  23824166.1564                   23824164.0594
 -24736735.96948 -19261272.75047  20509310.7584                   20509307.7504
   6042610.37146   4719256.07044  24728153.0704                   24728152.6994
 -15085585.82048 -11741592.14146  21722384.8914                   21722384.2544
 -25703922.22348 -20014563.72746  21756937.1484                   21756932.7814
 -12914414.42648 -10049941.01646  21822652.5394                   21822651.2034
 11  8 22  2  7 30.0000000  0  9G10G12G29G26G05G15G25G02G30
 -12742605.85546  -9917007.28543  23744757.2584                   23744754.8134
 -20655842.41847 -16082295.04346  21585982.1724                   21585979.6294
  -6576815.39547  -5114585.91045  22737675.9384                   22737673.6884
   -757839.80146   -579703.91044  23803802.1804                   23803800.5164
 -24723398.95748 -19250880.26247  20511848.7974                   20511845.6804
   5936937.67646   4636913.85544  24708043.5004                   24708044.3404
 -15098537.67248 -11751684.49646  21719920.0554                   21719919.6414
 -25678454.95348 -19994719.09846  21761783.1804                   21761778.9494
 -12913821.88748 -10049479.30146  21822765.3754                   21822763.2154
 11  8 22  2  8  0.0000000  0  9G10G12G29G26G05G15G25G02G30
 -12650612.31647  -9845324.02743  23762263.1724                   23762261.3594
 -20606706.58247 -16044007.39846  21595332.4304                   21595330.0084
  -6671071.17647  -5188031.93045  22719739.7274                   22719737.7344
   -864765.41446   -663022.51644  23783454.3984                   23783453.3634
 -24709521.85548 -19240066.92247  20514489.8834                   20514486.6564
   5831160.40646   4554490.18844  24687914.5944                   24687914.9304
 -15110890.03148 -11761309.71946  21717569.7274                   21717569.6054
 -25652879.22748 -19974789.96146  21766650.1484                   21766645.7704
 -12912625.36348 -10048546.95346  21822993.1954                   21822990.7854
 11  8 22  2  8 30.0000000  0  9G10G12G29G26G05G15G25G02G30
 -12558441.12947  -9773502.32044  23779803.1024                   23779800.7934
 -20557117.64147 -16005366.68046  21604769.0004                   21604766.3404
  -6765229.69147  -5261402.16045  22701821.6954                   22701819.5124
   -971602.00846   -746271.71544  23763123.9454                   23763123.2934
 -24695107.12548 -19228834.64847  20517232.4534                   20517229.6684
   5725279.39846   4471985.65244  24667766.5634                   24667766.2814
 -15122644.48048 -11770469.03946  21715332.9144                   21715332.6564
 -25627196.47748 -19954777.42646  21771537.7504                   21771532.8404
 -12910827.12548 -10047145.73846  21823335.3674                   21823333.6414
 11  8 22  2  9  0.0000000  0  9G10G12G29G26G05G15G25G02G30
 -12466092.41046  -9701542.30144  23797376.2034                   23797374.6994
 -20507076.53547 -15966373.63346  21614291.4384                   21614289.0514
  -6859286.78947  -5334693.35545  22683922.8204                   22683921.5204
  -1078343.66446   -829446.97744  23742811.8834                   23742810.0084
 -24680154.05148 -19217182.88747  20520077.9304                   20520075.0944
   5619299.93446   4389404.40244  24647598.7814                   24647599.0354
 -15133799.15648 -11779161.00446  21713210.1804                   21713210.0234
 -25601404.78148 -19934679.99646  21776445.3444                   21776440.9734
 -12908426.11748 -10045274.83646  21823792.6804                   21823790.9494
 11  8 22  2  9 30.0000000  0  9G10G12G29G26G05G15G25G02G30
 -12373569.52747  -9629446.55144  23814982.8284                   23814982.0904
 -20456586.09447 -15927030.45346  21623899.2504                   21623897.2304
  -6953241.13747  -5407904.50045  22666043.6564                   22666042.4964
  -1184987.52346   -912546.01644  23722517.0704                   23722516.9144
 -24664665.06648 -19205113.53547  20523025.4384                   20523022.4734
   5513223.96546   4306747.98044  24627412.9304                   24627413.1094
 -15144355.03148 -11787386.36746  21711201.1954                   21711201.3244
 -25575504.78548 -19914498.18046  21781374.0004                   21781369.2504
 -12905424.00048 -10042935.53146  21824363.3754                   21824361.8634
 11  8 22  2 10  0.0000000  0  9G10G12G29G26G05G15G25G02G30
 -12280874.52347  -9557216.69144  23832621.4064                   23832620.1914
 -20405647.91447 -15887338.38746  21633592.5704                   21633590.3054
  -7047090.08647  -5481033.51245  22648185.1954                   22648183.6254
  -1291529.12947   -995565.39844  23702243.4304                   23702242.5594
 -24648640.91448 -19192627.17647  20526074.8914                   20526071.8164
   5407054.68447   4224018.85243  24607210.0164                   24607209.4064
 -15154311.78148 -11795144.88346  21709306.4844                   21709307.0274
 -25549495.83248 -19894231.46946  21786323.1414                   21786318.8444
 -12901821.11348 -10040128.09446  21825048.9144                   21825046.8054
 11  8 22  2 10 30.0000000  0  9G10G12G29G26G05G15G25G02G30
 -12188010.27747  -9484854.94944  23850293.9844                   23850291.6054
 -20354264.52348 -15847299.39846  21643370.9384                   21643367.9964
  -7140831.88747  -5554079.03145  22630346.8914                   22630345.0314
  -1397965.34847  -1078502.61744  23681989.3984                   23681988.3484
 -24632083.60248 -19179725.36347  20529225.4304                   20529222.8984
   5300794.32447   4141218.78143  24586989.2894                   24586988.7034
 -15163670.29348 -11802437.24246  21707525.7894                   21707525.4964
 -25523378.41048 -19873880.23446  21791293.0234                   21791288.4064
 -12897619.21148 -10036853.89845  21825848.8284                   21825846.7464
 11  8 22  2 11  0.0000000  0  9G10G12G29G26G05G15G25G02G30
 -12094979.34846  -9412363.32043  23867996.3674                   23867994.8204
 -20302438.61347 -15806915.58646  21653232.7814                   21653230.4454
  -7234464.80947  -5627039.72345  22612529.2114                   22612527.2584
  -1504292.46547  -1161354.83244  23661756.0234                   23661754.8984
 -24614994.53948 -19166409.19147  20532477.3204                   20532474.6804
   5194445.85946   4058350.00044  24566751.1024                   24566751.2814
 -15172430.89548 -11809263.69946  21705858.9304                   21705859.0514
 -25497152.41048 -19853444.38346  21796283.7274                   21796278.8954
 -12892819.32448 -10033113.74246  21826762.2344                   21826760.7544
 11  8 22  2 11 30.0000000  0  9G10G12G29G26G05G15G25G02G30
 -12001784.93046  -9339744.31643  23885730.9064                   23885729.4924
 -20250173.17647 -15766189.29346  21663178.8364                   21663176.5474
  -7327986.94147  -5699914.07445  22594732.5554                   22594730.3284
  -1610507.77047  -1244119.91844  23641544.1414                   23641543.2234
 -24597375.94148 -19152680.41047  20535830.0554                   20535827.0704
   5088010.89146   3975413.84443  24546497.4694                   24546496.7934
 -15180594.70348 -11815625.12146  21704304.9534                   21704305.5744
 -25470818.10948 -19832924.14546  21801295.5554                   21801291.2194
 -12887423.34048 -10028909.09846  21827789.4304                   21827787.4184
 11  8 22  2 12  0.0000000  0  9G10G12G29G26G05G15G25G02G30
 -11908428.65247  -9266999.14843  23903495.8524                   23903494.6254
 -20197470.08248 -15725121.96146  21673208.0784                   21673205.3204
  -7421395.75447  -5772700.12545  22576957.1334                   22576954.8204
  -1716606.51647  -1326794.20744  23621353.9454                   23621353.1374
 -24579228.74248 -19138539.71547  20539283.1254                   20539280.0744
   4981492.92246   3892412.99643  24526227.3284                   24526227.2624
 -15188161.50448 -11821521.33246  21702865.4144                   21702865.2934
 -25444375.15248 -19812319.24246  21806327.4844                   21806322.2424
 -12881431.68448 -10024240.28546  21828929.1254                   21828927.0164
 11  8 22  2 12 30.0000000  0  9G10G12G29G26G05G15G25G02G30
 -11814913.70746  -9194130.35543  23921290.8914                   23921289.9024
 -20144332.50848 -15683716.08246  21683318.9924                   21683317.2504
  -7514690.06647  -5845396.94145  22559203.6254                   22559201.7154
  -1822585.92647  -1409375.50044  23601186.6644                   23601185.2774
 -24560555.28548 -19123988.95747  20542836.6564                   20542833.7424
   4874894.24246   3809349.21543  24505941.7734                   24505942.4344
 -15195132.45748 -11826953.26246  21701538.8834                   21701538.7814
 -25417824.25848 -19791630.23446  21811379.9774                   21811375.0704
 -12874846.38748 -10019108.89846  21830182.3134                   21830180.1054
 11  8 22  2 13  0.0000000  0  9G10G12G29G26G05G15G25G02G30
 -11721243.00046  -9121140.19543  23939115.3834                   23939114.5704
 -20090762.63348 -15641973.34046  21693513.7584                   21693511.0474
  -7607867.73847  -5918002.87945  22541472.5634                   22541470.7344
  -1928442.56247  -1491861.12544  23581043.6254                   23581041.4694
 -24541357.39848 -19109029.54747  20546489.8364                   20546487.2344
   4768216.88346   3726224.17643  24485641.3284                   24485641.5594
 -15201508.31648 -11831921.46546  21700325.7974                   21700325.6024
 -25391165.39848 -19770857.10246  21816452.8364                   21816448.1374
 -12867668.82048 -10013516.00846  21831548.1954                   21831546.3524
 11  8 22  2 13 30.0000000  0  9G10G12G29G26G05G15G25G02G30
 -11627419.58646  -9048031.03943  23956969.2344                   23956968.3134
 -20036764.12948 -15599896.60246  21703789.0944                   21703786.4224
  -7700927.42247  -5990516.87145  22523764.0474                   22523762.0314
  -2034173.03547  -1574248.43444  23560923.1884                   23560921.5394
 -24521637.11348 -19093663.08647  20550242.5234                   20550239.7704
   4661463.25446   3643039.72343  24465327.2344                   24465326.5744
 -15207290.07848 -11836426.73446  21699225.3444                   21699225.2304
 -25364399.10248 -19750000.24246  21821546.2344                   21821541.4104
 -12859900.80148 -10007463.01245  21833026.4694                   21833024.4534
 11  8 22  2 14  0.0000000  0  9G10G12G29G26G05G15G25G02G30
 -11533445.60246  -8974804.54743  23974852.8134                   23974851.2074
 -19982339.16847 -15557487.56246  21714145.7974                   21714143.4064
  -7793866.92647  -6062937.21145  22506078.3754                   22506076.2584
  -2139773.91047  -1656534.75844  23540828.1254                   23540826.8054
 -24501396.18448 -19077890.91447  20554094.1414                   20554091.5864
   4554636.46146   3559798.16043  24444999.3444                   24444997.6724
 -15212478.35948 -11840469.55946  21698238.0314                   21698238.0664
 -25337525.48048 -19729059.76246  21826659.9844                   21826655.7814
 -12851543.66048 -10000950.97346  21834616.7814                   21834614.5474
 11  8 22  2 14 30.0000000  0  9G10G12G29G26G05G15G25G02G30
 -11439325.33647  -8901464.05143  23992763.5634                   23992761.8554
 -19927491.48047 -15514749.11746  21724583.0394                   21724580.7584
  -7886685.89847  -6135263.62145  22488415.0634                   22488413.3134
  -2245243.02047  -1738718.41044  23520757.7504                   23520756.4494
 -24480637.80148 -19061715.54347  20558044.4064                   20558041.0004
   4447737.22346   3476500.18443  24424656.2734                   24424656.5164
 -15217075.34048 -11844051.61746  21697363.2034                   21697363.2774
 -25310545.86347 -19708036.68446  21831794.1954                   21831789.4344
 -12842600.26648  -9993982.10246  21836318.5554                   21836316.9224
 11  8 22  2 15  0.0000000  0  9G10G12G29G26G05G15G25G02G30
 -11345061.63347  -8828011.80543  24010701.4144                   24010699.7274
 -19872224.38347 -15471683.86746  21735100.1254                   21735097.7584
  -7979382.30947  -6207494.52045  22470775.4614                   22470773.8324
  -2350576.84847  -1820796.67644  23500713.4844                   23500711.6484
 -24459363.94948 -19045138.50847  20562092.5314                   20562090.0864
   4340768.40246   3393147.98043  24404300.5164                   24404300.9384
 -15221081.91848 -11847173.62146  21696600.6174                   21696600.5864
 -25283460.56647 -19686931.26246  21836948.5084                   21836943.8404
 -12833072.26648  -9986557.69546  21838131.6414                   21838129.8284
 11  8 22  2 15 30.0000000  0  9G10G12G29G26G05G15G25G02G30
 -11250654.70347  -8754447.95343  24028666.2274                   24028664.5314
 -19816538.54747 -15428292.32446  21745696.7194                   21745694.1994
  -8071952.10247  -6279626.75446  22453159.9534                   22453158.1374
  -2455769.88347  -1902765.21944  23480695.3054                   23480694.5634
 -24437574.43448 -19028159.65247  20566239.2584                   20566236.1294
   4233734.37146   3309744.96143  24383932.4064                   24383933.1374
 -15224496.92248 -11849834.66046  21695950.8754                   21695951.2304
 -25256267.72747 -19665742.03946  21842122.8444                   21842118.5204
 -12822959.24248  -9978677.43046  21840055.8674                   21840054.2304
 11  8 22  2 16  0.0000000  0  9G10G12G29G26G05G15G25G02G30
 -11156108.25447  -8680775.36343  24046658.0004                   24046655.8954
 -19760437.36747 -15384577.14546  21756372.4064                   21756370.1214
  -8164394.40247  -6351659.64845  22435568.4144                   22435566.7114
  -2560819.54347  -1984622.02744  23460705.3524                   23460703.2854
 -24415272.06648 -19010781.18047  20570483.0634                   20570480.0554
   4126636.63346   3226292.30943  24363552.6094                   24363552.4494
 -15227322.06248 -11852036.06246  21695413.3984                   21695412.9344
 -25228968.09447 -19644469.59846  21847317.6724                   21847313.2734
 -12812263.61748  -9970343.17245  21842091.9694                   21842089.5554
 11  8 22  2 16 30.0000000  0  9G10G12G29G26G05G15G25G02G30
 -11061425.19547  -8606996.36743  24064675.3054                   24064674.2504
 -19703923.35247 -15340540.27046  21767126.7894                   21767124.2774
  -8256707.48847  -6423591.84845  22418002.0394                   22418000.4024
  -2665722.31247  -2066364.36344  23440742.9454                   23440741.8054
 -24392459.20348 -18993004.91047  20574824.3444                   20574821.3524
   4019478.15646   3142792.33243  24343161.1334                   24343160.7424
 -15229558.21548 -11853778.51646  21694987.6724                   21694987.3554
 -25201561.82847 -19623114.05946  21852532.9924                   21852528.9654
 -12800987.09048  -9961556.27046  21844237.3754                   21844235.3954
 11  8 22  2 17  0.0000000  0  9G10G12G29G26G05G15G25G02G30
 -10966608.45747  -8533113.23843  24082717.8054                   24082717.0394
 -19646999.70747 -15296184.21146  21777958.6564                   21777956.4534
  -8348889.44147  -6495421.87146  22400460.6954                   22400458.2504
  -2770474.94547  -2147989.73843  23420809.5634                   23420807.6884
 -24369137.20748 -18974831.91047  20579262.4454                   20579259.3874
   3912261.19946   3059246.79744  24322758.2974                   24322757.6804
 -15231206.71548 -11855063.05946  21694673.9694                   21694673.9774
 -25174049.53947 -19601675.90646  21857768.4454                   21857764.3594
 -12789131.54348  -9952318.18446  21846493.3134                   21846492.1374
 11  8 22  2 17 30.0000000  0  9G10G12G29G26G05G15G25G02G30
 -10871660.75447  -8459128.03143  24100786.6094                   24100785.0554
 -19589669.62947 -15251511.44946  21788868.6254                   21788866.3444
  -8440938.51647  -6567148.35945  22382944.0394                   22382941.9144
  -2875074.15647  -2229495.54744  23400904.7974                   23400903.0164
 -24345308.71948 -18956264.25447  20583796.8524                   20583794.0704
   3804987.94147   2975657.37144  24302345.3284                   24302344.7624
 -15232268.65648 -11855890.53546  21694471.7344                   21694472.1914
 -25146431.44947 -19580155.30946  21863024.1954                   21863019.8014
 -12776698.93048  -9942630.44146  21848859.3914                   21848857.7344
 11  8 22  2 18  0.0000000  0  9G10G12G29G26G05G15G25G02G30
 -10776583.66847  -8385041.99243  24118878.8984                   24118876.8984
 -19531934.81648 -15206523.30146  21799855.3364                   21799853.1174
  -8532852.05147  -6638769.23445  22365453.3204                   22365451.5904
  -2979515.67247  -2310878.51244  23381029.7894                   23381027.9304
 -24320974.74648 -18937302.70347  20588427.7194                   20588424.4344
   3697661.96547   2892026.87544  24281921.5314                   24281920.9734
 -15232744.15248 -11856261.04746  21694381.3284                   21694381.0354
 -25118706.78147 -19558551.66846  21868299.7114                   21868295.1024
 -12763689.97348  -9932493.59045  21851334.9384                   21851332.8554
 11  8 22  2 18 30.0000000  0  9G10G12G29G26G05G15G25G02G30
 -10681381.12547  -8310858.17243  24136995.3984                   24136993.6644
 -19473799.58248 -15161223.14146  21810917.8594                   21810915.6454
  -8624629.50447  -6710284.06645  22347988.0864                   22347986.4064
  -3083796.91846  -2392136.54744  23361186.2034                   23361184.7194
 -24296138.68448 -18917949.92647  20593153.4454                   20593150.7234
   3590284.74646   2808356.47744  24261487.8444                   24261487.5474
 -15232635.43448 -11856176.33246  21694402.1094                   21694402.0664
 -25090876.90248 -19536866.04346  21873596.1334                   21873591.3484
 -12750107.78148  -9921910.06246  21853919.5164                   21853917.4064
 11  8 22  2 19  0.0000000  0  9G10G12G29G26G05G15G25G02G30
 -10586055.14547  -8236578.14143  24155135.1094                   24155133.2584
 -19415265.82447 -15115612.44546  21822056.4384                   21822054.2464
  -8716268.12947  -6781690.71545  22330550.3914                   22330548.4804
  -3187913.71947  -2473266.48044  23341373.2504                   23341371.0784
 -24270801.77348 -18898206.87547  20597974.8054                   20597972.2424
   3482859.53147   2724648.66844  24241045.3914                   24241045.2464
 -15231942.73848 -11855636.56646  21694534.3204                   21694533.9734
 -25062940.87147 -19515097.69546  21878911.7114                   21878906.8834
 -12735953.27348  -9910880.57846  21856612.9304                   21856611.2544
 11  8 22  2 19 30.0000000  0  9G10G12G29G26G05G15G25G02G30
 -10490608.27746  -8162203.93043  24173298.3674                   24173296.2624
 -19356336.32048 -15069693.37546  21833270.6024                   21833268.0204
  -8807765.51647  -6852987.31646  22313138.9924                   22313137.3284
  -3291862.44946  -2554265.43444  23321592.1024                   23321590.3954
 -24244966.08648 -18878075.15646  20602891.3524                   20602888.0274
   3375389.10947   2640905.64544  24220594.5314                   24220593.7504
 -15230667.21948 -11854642.64846  21694776.7664                   21694776.8094
 -25034898.84847 -19493246.75446  21884247.9534                   21884243.6724
 -12721228.28948  -9899406.57046  21859415.0634                   21859413.2074
 11  8 22  2 20  0.0000000  0  9G10G12G29G26G05G15G25G02G30
 -10395043.76246  -8087738.10943  24191483.2344                   24191481.6214
 -19297014.79747 -15023468.82846  21844558.9224                   21844556.3484
  -8899120.55947  -6924173.00445  22295754.9064                   22295752.6054
  -3395640.46147  -2635131.35244  23301843.7274                   23301842.9654
 -24218634.06248 -18857556.69547  20607902.2344                   20607899.3714
   3267875.05946   2557128.65244  24200134.3914                   24200134.5314
 -15228810.66048 -11853195.97746  21695129.8834                   21695129.7304
 -25006751.68747 -19471313.88746  21889604.1094                   21889599.7504
 -12705935.19147  -9887489.86346  21862325.3594                   21862323.1334
 11  8 22  2 20 30.0000000  0  9G10G12G29G26G05G15G25G02G30
 -10299364.27746  -8013182.62143  24209690.6254                   24209689.1764
 -19237303.93747 -14976940.91046  21855921.5944                   21855918.9694
  -8990331.56247  -6995246.46146  22278397.9774                   22278396.1214
  -3499244.19547  -2715861.48044  23282128.4844                   23282127.4064
 -24191808.14148 -18836653.36347  20613007.1334                   20613004.3244
   3160320.05146   2473319.71944  24179667.9774                   24179667.9574
 -15226374.29748 -11851297.51246  21695593.8834                   21695593.7854
 -24978499.95748 -19449299.53946  21894980.3444                   21894975.7854
 -12690076.25447  -9875132.26245  21865342.9384                   21865341.3404
 11  8 22  2 21  0.0000000  0  9G10G12G29G26G05G15G25G02G30
 -10203572.64146  -7938539.84443  24227918.7894                   24227917.6134
 -19177207.06247 -14930112.19946  21867357.7504                   21867355.3244
  -9081396.94547  -7066206.44145  22261068.5004                   22261066.5314
  -3602670.27747  -2796453.17644  23262447.3594                   23262445.9734
 -24164490.89848 -18815367.19547  20618205.2274                   20618202.2664
   3052726.53546   2389480.79344  24159193.2274                   24159192.6994
 -15223359.59848 -11848948.40246  21696167.3054                   21696167.3054
 -24950143.77748 -19427203.78946  21900376.4064                   21900371.9024
 -12673653.36347  -9862335.21146  21868468.2894                   21868466.0704
 11  8 22  2 21 30.0000000  0  9G10G12G29G26G05G15G25G02G30
 -10107672.38746  -7863812.44943  24246168.3754                   24246166.5474
 -19116728.00448 -14882985.68046  21878866.3134                   21878864.1374
  -9172315.43447  -7137051.96545  22243767.1024                   22243765.3954
  -3705916.27747  -2876904.56644  23242800.6484                   23242798.5434
 -24136684.87548 -18793700.15247  20623496.5084                   20623493.5164
   2945096.28946   2305613.24243  24138711.8444                   24138710.9494
 -15219768.74648 -11846150.33646  21696851.0234                   21696850.0594
 -24921684.00448 -19405027.32446  21905791.7424                   21905787.5634
 -12656669.58647  -9849101.09046  21871700.1644                   21871698.3284
 11  8 22  2 22  0.0000000  0  9G10G12G29G26G05G15G25G02G30
 -10011665.11346  -7789001.61743  24264438.6024                   24264436.2274
 -19055868.21948 -14835562.49246  21890448.0084                   21890445.2544
  -9263083.78547  -7207780.50445  22226495.2114                   22226492.3754
  -3808977.69947  -2957212.11744  23223188.7504                   23223186.7114
 -24108391.09048 -18771653.03947  20628880.8444                   20628877.5664
   2837432.81346   2221719.80544  24118224.4694                   24118223.0474
 -15215601.57448 -11842903.18446  21697643.4614                   21697643.5864
 -24893119.58647 -19382769.30946  21911227.5944                   21911223.0274
 -12639125.39847  -9835430.30945  21875038.4774                   21875037.0554
 11  8 22  2 22 30.0000000  0  9G10G12G29G26G05G15G25G02G30
  -9915553.18046  -7714109.19943  24282727.7034                   24282726.3204
 -18994630.65247 -14787844.93046  21902100.4614                   21902098.0234
  -9353699.84447  -7278390.39146  22209250.8754                   22209248.5084
  -3911850.46547  -3037372.65244  23203612.3364                   23203610.8014
 -24079611.58248 -18749227.44547  20634357.2894                   20634354.4964
   2729739.11346   2137802.80944  24097729.8054                   24097729.5554
 -15210859.23848 -11839207.85946  21698545.9614                   21698546.4414
 -24864450.48848 -19360429.73446  21916683.4924                   21916678.5164
 -12621022.70347  -9821324.32446  21878483.5474                   21878481.7234
 11  8 22  2 23  0.0000000  0  9G10G12G29G26G05G15G25G02G30
  -9819339.77346  -7639137.72744  24301036.8834                   24301035.1724
 -18933018.94148 -14739835.82846  21913825.1334                   21913823.0704
  -9444162.28947  -7348880.56246  22192036.5394                   22192034.5784
  -4014531.78147  -3117384.01245  23184072.2894                   23184071.1764
 -24050349.35948 -18726425.69946  20639925.2974                   20639922.3954
   2622017.23047   2053863.80543  24077231.3054                   24077231.5164
 -15205543.70748 -11835065.90246  21699557.3134                   21699557.2504
 -24835677.16848 -19338008.94546  21922158.5784                   21922153.5634
 -12602364.10947  -9806785.16846  21882034.1644                   21882032.2504
 11  8 22  2 23 30.0000000  0  9G10G12G29G26G05G15G25G02G30
  -9723028.76646  -7564090.16443  24319364.3284                   24319362.3874
 -18871037.14548 -14691538.34446  21925619.9534                   21925617.5864
  -9534470.44547  -7419250.52045  22174851.4774                   22174848.9494
  -4117019.31647  -3197244.37944  23164569.3204                   23164568.0394
 -24020607.69148 -18703250.36747  20645585.2974                   20645582.5234
   2514268.45747   1969903.85244  24056727.5864                   24056726.2664
 -15199657.48048 -11830479.24246  21700677.7424                   21700677.7464
 -24806801.30947 -19315508.25046  21927653.3914                   21927649.1684
 -12583152.84847  -9791815.36345  21885690.2424                   21885688.0904
 11  8 22  2 24  0.0000000  0  9G10G12G29G26G05G15G25G02G30
  -9626621.76646  -7488967.84443  24337709.4924                   24337707.7384
 -18808687.21148 -14642954.00046  21937484.8984                   21937482.3754
  -9624621.39547  -7489497.97746  22157696.0554                   22157693.9304
  -4219308.85247  -3276950.43444  23145104.4694                   23145103.2464
 -23990387.49648 -18679702.15247  20651336.2194                   20651333.0594
   2406496.68447   1885925.96543  24036219.5004                   24036218.2624
 -15193200.87948 -11825448.14146  21701906.3364                   21701906.3244
 -24777821.97347 -19292926.92246  21933167.7274                   21933163.5314
 -12563389.95348  -9776415.71946  21889450.7814                   21889448.7424
 11  8 22  2 24 30.0000000  0  9G10G12G29G26G05G15G25G02G30
  -9530121.35546  -7413772.70343  24356072.8524                   24356071.8134
 -18745972.52347 -14594085.43046  21949419.1254                   21949416.3914
  -9714613.73047  -7559621.84446  22140571.1484                   22140568.8594
  -4321396.81247  -3356499.43744  23125677.6024                   23125676.0744
 -23959691.74248 -18655783.37946  20657176.7814                   20657173.9344
   2298703.95747   1801931.74244  24015707.0004                   24015706.2274
 -15186175.75448 -11819974.02046  21703243.0394                   21703243.0744
 -24748739.57847 -19270265.30145  21938702.1174                   21938696.8674
 -12543077.96548  -9760588.20345  21893315.7114                   21893314.1024
 11  8 22  2 25  0.0000000  0  9G10G12G29G26G05G15G25G02G30
  -9433529.97346  -7338506.68442  24374453.4224                   24374452.3014
 -18682895.64848 -14544934.63746  21961421.9694                   21961419.7704
  -9804444.86347  -7629620.10246  22123477.1334                   22123474.9104
  -4423279.57047  -3435888.53544  23106290.2424                   23106288.8054
 -23928522.24648 -18631495.44946  20663108.4534                   20663105.0514
   2190893.25047   1717923.50444  23995191.3984                   23995190.5664
 -15178583.07848 -11814057.66046  21704688.0704                   21704688.1644
 -24719553.48447 -19247522.87545  21944256.0634                   21944251.1804
 -12522218.54347  -9744334.12545  21897285.4304                   21897283.8094
 11  8 22  2 25 30.0000000  0  9G10G12G29G26G05G15G25G02G30
  -9336850.89545  -7263172.36342  24392850.6174                   24392849.8524
 -18619460.27347 -14495504.50046  21973493.7194                   21973491.1414
  -9894113.14147  -7699491.45346  22106413.5474                   22106411.6724
  -4524954.07047  -3515115.35544  23086941.8134                   23086940.6254
 -23896881.62148 -18606840.41046  20669129.3834                   20669126.5864
   2083067.03147   1633903.18844  23974672.7034                   23974670.9384
 -15170424.73448 -11807700.52746  21706240.3524                   21706240.7384
 -24690264.50047 -19224700.26645  21949829.1484                   21949824.5474
 -12500814.35948  -9727655.56645  21901358.7504                   21901356.3594
 11  8 22  2 26  0.0000000  0  9G10G12G29G26G05G15G25G02G30
  -9240085.35946  -7187770.60243  24411264.9304                   24411263.2974
 -18555668.32047 -14445796.50446  21985632.8914                   21985630.2774
  -9983615.87147  -7769233.81246  22089381.7664                   22089379.5554
  -4626415.65647  -3594176.26244  23067634.7504                   23067633.2194
 -23864771.08648 -18581819.20746  20675240.1094                   20675237.1334
   1975228.76247   1549873.48044  23954152.2584                   23954150.6884
 -15161701.19948 -11800902.96546  21707900.1954                   21707900.5274
 -24660871.77047 -19201796.81245  21955422.6024                   21955418.0784
 -12478866.46948  -9710553.32045  21905535.0864                   21905533.4264
 11  8 22  2 26 30.0000000  0  9G10G12G29G26G05G15G25G02G30
  -9143235.69946  -7112303.31643  24429694.8594                   24429693.0274
 -18491522.49648 -14395812.75846  21997839.1024                   21997836.7854
 -10072950.84847  -7838845.44146  22072381.7894                   22072379.6134
  -4727660.55947  -3673068.33644  23048368.1564                   23048366.0434
 -23832192.64548 -18556433.38747  20681439.0704                   20681436.2664
   1867381.36747   1465836.66444  23933628.3364                   23933627.6764
 -15152413.63748 -11793665.91446  21709667.7114                   21709667.9384
 -24631375.02047 -19178812.32045  21961035.5474                   21961030.8954
 -12456376.76648  -9693028.89146  21909814.8364                   21909813.0944
 11  8 22  2 27  0.0000000  0  9G10G12G29G26G05G15G25G02G30
  -9046304.85546  -7036772.80943  24448139.4694                   24448138.6724
 -18427025.71948 -14345555.56246  22010112.4534                   22010110.0704
 -10162116.00447  -7908324.75046  22055414.1724                   22055412.3634
  -4828685.71147  -3751789.18744  23029143.0944                   23029142.1454
 -23799149.04348 -18530685.12147  20687727.0474                   20687723.9264
   1759527.42646   1381794.75444  23913104.8444                   23913103.5664
 -15142563.90248 -11785990.81246  21711542.5084                   21711542.7704
 -24601774.48847 -19155746.95345  21966668.4614                   21966663.4494
 -12433347.77348  -9675084.23045  21914197.1174                   21914195.2344
 11  8 22  2 27 30.0000000  0  9G10G12G29G26G05G15G25G02G30
  -8949295.19547  -6961180.86343  24466600.3754                   24466598.6564
 -18362181.55147 -14295027.65646  22022452.1414                   22022449.5704
 -10251109.19948  -7977670.05146  22038479.1254                   22038476.9064
  -4929487.35947  -3830335.85944  23009961.7894                   23009960.2974
 -23765642.21948 -18504575.89546  20694103.2034                   20694100.2544
   1651669.48446   1297749.73444  23892580.0784                   23892578.3984
 -15132153.37548 -11777878.71946  21713523.1094                   21713523.4064
 -24572070.25447 -19132600.78545  21972321.2114                   21972316.4654
 -12409781.55948  -9656720.95745  21918681.1094                   21918679.4064
 11  8 22  2 28  0.0000000  0  9G10G12G29G26G05G15G25G02G30
  -8852210.18047  -6885530.19943  24485075.4384                   24485073.6134
 -18296993.61748 -14244231.88746  22034857.0004                   22034854.4414
 -10339929.30547  -8046880.46546  22021577.4694                   22021575.3444
  -5030062.84447  -3908706.33644  22990822.6484                   22990821.0634
 -23731675.22748 -18478108.09446  20700566.9384                   20700564.0394
   1543809.55146   1213703.14144  23872054.5864                   23872053.8204
 -15121184.43448 -11769331.50046  21715610.6644                   21715611.1334
 -24542263.12147 -19109374.43445  21977993.2344                   21977988.2544
 -12385681.23448  -9637941.50045  21923267.3204                   21923265.7854
 11  8 22  2 28 30.0000000  0  9G10G12G29G26G05G15G25G02G30
  -8755051.46947  -6809822.09443  24503564.1724                   24503561.5044
 -18231464.44548 -14193170.21146  22047326.9224                   22047324.5594
 -10428573.80147  -8115954.04746  22004708.4774                   22004706.6724
  -5130408.12147  -3986897.40644  22971727.6804                   22971725.7304
 -23697250.21548 -18451283.39846  20707118.0864                   20707115.1454
   1435950.68846   1129657.38344  23851529.6024                   23851528.7234
 -15109658.08648 -11760349.94946  21717804.1334                   21717804.1414
 -24512352.39547 -19086067.36745  21983684.8204                   21983680.8284
 -12361048.43048  -9618747.12146  21927955.1564                   21927953.3324
 11  8 22  2 29  0.0000000  0  9G10G12G29G26G05G15G25G02G30
  -8657822.21146  -6734059.03943  24522066.4694                   24522064.0084
 -18165597.18447 -14141845.09046  22059860.7974                   22059858.5664
 -10517040.94147  -8184889.42246  21987874.6644                   21987872.2814
  -5230519.75047  -4064906.40644  22952677.2584                   22952675.5864
 -23662369.60248 -18424103.68746  20713755.6174                   20713752.8444
   1328095.53146   1045614.53544  23831005.8284                   23831004.2384
 -15097576.25448 -11750935.52746  21720103.2194                   21720102.9064
 -24482338.53547 -19062679.94545  21989396.4304                   21989391.2774
 -12335885.79348  -9599139.88745  21932743.6174                   21932741.5434
 11  8 22  2 29 30.0000000  0  9G10G12G29G26G05G15G25G02G30
  -8560524.84846  -6658242.89143  24540581.6414                   24540579.4184
 -18099395.29747 -14090259.23446  22072458.7034                   22072456.5704
 -10605328.54748  -8253684.90646  21971073.0554                   21971071.5434
  -5330394.33647  -4142730.70344  22933671.6954                   22933669.8914
 -23627035.94148 -18396570.94546  20720479.4384                   20720476.2934
   1220246.60246    961576.52344  23810481.9534                   23810481.1174
 -15084940.60948 -11741089.57446  21722507.3204                   21722507.7624
 -24452221.75847 -19039212.32845  21995127.5314                   21995122.8984
 -12310195.61748  -9579121.57045  21937631.8054                   21937630.1374
 11  8 22  2 30  0.0000000  0  9G10G12G29G26G05G15G25G02G30
  -8463162.41045  -6582376.08242  24559108.2424                   24559106.3874
 -18032862.14847 -14038415.24246  22085119.4614                   22085117.2154
 -10693435.48047  -8322339.61346  21954307.4924                   21954305.3524
  -5430028.97347  -4220368.03544  22914711.7814                   22914709.3244
 -23591251.75448 -18368687.15246  20727288.7814                   20727285.6914
   1112406.02746    877545.02744  23789961.0394                   23789960.2114
 -15071753.52048 -11730813.92646  21725016.6254                   21725017.3634
 -24422002.45747 -19015664.82445  22000878.3284                   22000873.6054
 -12283980.88348  -9558694.52345  21942620.4774                   21942618.6684
 11  8 22  2 30 30.0000000  0 10G10G12G29G26G05G15G25G02G30G21
                                  24577648.1334                   24577646.1564
 -17966001.03147 -13986315.69546  22097842.8754                   22097840.5354
 -10781359.68448  -8390851.91046  21937575.5164                   21937573.7854
  -5529420.24247  -4297815.72744  22895798.0554                   22895795.9534
 -23555019.68748 -18340454.35546  20734183.7034                   20734180.6334
   1004576.71546    793522.30544  23769441.6804                   23769439.9304
 -15058016.47348 -11720109.74646  21727631.1414                   21727631.1174
 -24391681.16447 -18992037.84845  22006647.9694                   22006643.2384
 -12257243.81248  -9537860.45745  21947708.6884                   21947706.4774
   6203034.23856   4840949.02752  25192456.6094                   25192454.7814
 11  8 22  2 31  0.0000000  0 10G10G12G29G26G05G15G25G02G30G21
  -8268253.34455  -6430498.98452  24596198.2344                   24596196.1454
 -17898816.65247 -13933964.25046  22110627.8054                   22110624.6214
 -10869100.71148  -8459221.48846  21920879.1094                   21920877.2934
  -5628566.17647  -4375072.24245  22876931.0234                   22876929.7854
 -23518343.63748 -18311875.59846  20741162.6724                   20741159.3714
    896759.54747    709509.03944  23748924.0394                   23748923.5594
 -15043732.87148 -11708979.66446  21730349.2274                   21730349.6454
 -24361258.88748 -18968332.18745  22012437.1254                   22012432.7894
 -12229988.49247  -9516622.54345  21952894.9614                   21952893.1054
   6135465.94546   4788298.43842  25179599.7734                   25179596.7034
 11  8 22  2 31 30.0000000  0  9G12G29G26G05G15G25G02G30G21
 -17831315.55547 -13881366.00846  22123471.8524                   22123470.3244
 -10956660.00048  -8527449.43746  21904216.9384                   21904215.0514
  -5727466.63347  -4452137.49244  22858111.2664                   22858108.8674
 -23481229.80148 -18282955.71946  20748225.3364                   20748222.3164
    788953.72747    625504.60944  23728409.7974                   23728408.4184
 -15028908.02048 -11697427.84446  21733170.1024                   21733170.4104
 -24330739.46548 -18944550.82845  22018244.3134                   22018240.3834
 -12202220.78948  -9494985.38345  21958178.8914                   21958177.3674
   6067918.99646   4735664.44142  25166745.4384                   25166742.4494
 11  8 22  2 32  0.0000000  0  9G12G29G26G05G15G25G02G30G21
 -17763500.54747 -13828523.17245  22136377.2114                   22136374.8874
 -11044035.27748  -8595534.01246  21887590.0474                   21887587.7664
  -5826118.20747  -4529008.77745  22839338.5784                   22839336.5554
 -23443680.28948 -18253696.33646  20755370.8524                   20755367.8054
    681162.10947    541511.26244  23707897.8054                   23707896.7034
 -15013543.61348 -11685455.57846  21736093.9224                   21736094.0004
 -24300122.71948 -18920693.63745  22024071.2034                   22024066.4694
 -12173943.18048  -9472950.89845  21963560.0554                   21963558.2854
   6000392.55146   4683046.45342  25153895.0634                   25153893.2814
 11  8 22  2 32 30.0000000  0  9G12G29G26G05G15G25G02G30G21
 -17695372.23847 -13775436.20745  22149341.6334                   22149339.4844
 -11131221.59048  -8663471.34046  21870999.0314                   21870996.6644
  -5924514.42247  -4605681.10544  22820614.1414                   22820612.2464
 -23405694.44948 -18224096.96946  20762598.9924                   20762595.6214
    573390.52747    457533.50844  23687390.1884                   23687387.3444
 -14997638.36348 -11673061.87546  21739120.6884                   21739120.8324
 -24269405.84847 -18896758.43745  22029916.6024                   22029912.2814
 -12145154.97347  -9450518.53545  21969037.6254                   21969036.4494
   5932889.19146   4630446.48443  25141050.4614                   25141048.7894
 11  8 22  2 33  0.0000000  0  9G12G29G26G05G15G25G02G30G21
 -17626928.81247 -13722103.68046  22162365.7814                   22162363.6804
 -11218212.14548  -8731256.13746  21854444.9534                   21854442.9884
  -6022646.49647  -4682147.57845  22801940.0554                   22801938.8794
 -23367270.00048 -18194155.82446  20769911.1954                   20769907.9804
    465646.48447    373577.24244  23666887.1414                   23666884.8204
 -14981189.25448 -11660244.38746  21742250.7344                   21742251.1214
 -24238583.84848 -18872741.31645  22035781.9454                   22035777.0044
 -12115853.78948  -9427686.44945  21974614.4694                   21974612.3984
   5865412.83246   4577867.60942  25128209.8444                   25128208.1294
 11  8 22  2 33 30.0000000  0  9G12G29G26G05G15G25G02G30G21
 -17558172.92247 -13668527.68745  22175449.7194                   22175447.4654
 -11305004.44148  -8798886.44146  21837929.0394                   21837926.7344
  -6120511.14847  -4758405.69145  22783317.1484                   22783315.0664
 -23328408.94548 -18163874.46946  20777306.3674                   20777302.9614
    357932.88747    289644.68444  23646389.0084                   23646387.0904
 -14964197.78148 -11647004.27746  21745483.9694                   21745484.4734
 -24207656.29747 -18848641.94145  22041667.0864                   22041662.5124
 -12086041.74647  -9404456.30145  21980287.2504                   21980285.2304
   5797962.81646   4525309.19142  25115374.3594                   25115371.9774
 11  8 22  2 34  0.0000000  0  9G12G29G26G05G15G25G02G30G21
 -17489109.18047 -13614711.80945  22188592.6334                   22188590.0164
 -11391597.29748  -8866361.35546  21821451.2814                   21821449.2704
  -6218105.93747  -4834453.52745  22764745.1484                   22764744.1254
 -23289115.43048 -18133256.13346  20784783.5394                   20784780.4454
    250251.45747    205737.19144  23625897.3984                   23625896.1804
 -14946667.18748 -11633344.07446  21748820.3134                   21748819.9534
 -24176624.90247 -18824461.65245  22047571.7274                   22047567.2774
 -12055722.77047  -9380831.13345  21986056.5474                   21986054.3954
   5730537.34046   4472769.95343  25102544.6884                   25102542.3054
 11  8 22  2 34 30.0000000  0  9G12G29G26G05G15G25G02G30G21
 -17419739.72748 -13560657.70345  22201792.8834                   22201790.5234
 -11477988.86348  -8933679.40646  21805011.3754                   21805009.3244
  -6315426.39147  -4910287.57445  22746225.8754                   22746224.5514
 -23249390.59848 -18102301.70346  20792342.3914                   20792339.5314
    142605.50047    121857.34044  23605413.2894                   23605412.1254
 -14928598.54348 -11619264.60546  21752258.7194                   21752258.5354
 -24145488.40647 -18800199.46945  22053497.0634                   22053492.3794
 -12024898.48048  -9356812.21145  21991922.7974                   21991920.3484
   5663136.47346   4420249.84043  25089717.6884                   25089715.8834
 11  8 22  2 35  0.0000000  0  9G12G29G26G05G15G25G02G30G21
 -17350068.93447 -13506368.79345  22215051.1024                   22215048.9574
 -11564177.47748  -9000839.32446  21788610.2894                   21788607.8134
  -6412470.30147  -4985906.15245  22727758.8134                   22727757.0904
 -23209238.11348 -18071014.04346  20799983.6254                   20799980.3164
     34996.73047     38006.47744  23584935.7734                   23584934.7704
 -14909994.76248 -11604768.14846  21755799.0004                   21755799.1884
 -24114248.18747 -18775856.46546  22059441.4384                   22059437.3484
 -11993572.58647  -9332402.43445  21997883.4454                   21997881.4614
   5595758.40646   4367747.52343  25076897.3054                   25076895.3984
 11  8 22  2 35 30.0000000  0  9G12G29G26G05G15G25G02G30G21
 -17280099.37147 -13451847.07445  22228365.6334                   22228363.2074
 -11650160.16048  -9067838.77046  21772247.9304                   21772245.8794
  -6509233.36747  -5061305.89145  22709345.8284                   22709344.0314
 -23168659.82048 -18039394.59046  20807705.2664                   20807702.2814
    -72571.03947    -45812.43744  23564465.5164                   23564464.1414
 -14890857.08648 -11589855.67646  21759440.6724                   21759440.6374
 -24082903.25447 -18751431.85945  22065406.7114                   22065402.0474
 -11961746.87547  -9307603.17645  22003939.8204                   22003937.9964
   5528403.05946   4315262.87943  25064079.1954                   25064076.9654
 11  8 22  2 36  0.0000000  0  9G12G29G26G05G15G25G02G30G21
 -17209834.62947 -13397095.34445  22241736.7664                   22241734.1054
 -11735935.77748  -9134676.87546  21755925.5314                   21755922.9924
  -6605712.60947  -5136484.47345  22690986.5084                   22690984.6094
 -23127658.77048 -18007445.70746  20815507.4694                   20815504.6764
   -180096.26646   -129598.19144  23544005.1564                   23544003.0554
 -14871188.07448 -11574529.16846  21763183.5784                   21763183.3244
 -24051454.45747 -18726926.30945  22071391.2424                   22071386.8164
 -11929424.45347  -9282416.88345  22010090.6414                   22010088.6644
   5461069.00047   4262794.83643  25051266.1174                   25051264.5274
 11  8 22  2 36 30.0000000  0  9G12G29G26G05G15G25G02G30G21
 -17139277.96547 -13342116.14145  22255163.3914                   22255160.6684
 -11821502.10948  -9201351.89146  21739642.5784                   21739640.4344
  -6701904.69547  -5211439.28945  22672680.9534                   22672679.3364
 -23086237.60248 -17975169.46147  20823389.8284                   20823386.6134
   -287576.14846   -213348.62944  23523552.0084                   23523550.5354
 -14850989.88348 -11558790.30946  21767026.7584                   21767027.1604
 -24019901.74247 -18702339.80545  22077395.2734                   22077391.0124
 -11896608.15247  -9256845.74245  22016334.6884                   22016333.6214
   5393755.32046   4210342.61743  25038457.0234                   25038454.8674
 11  8 22  2 37  0.0000000  0  9G12G29G26G05G15G25G02G30G21
 -17068432.96547 -13286912.26245  22268644.3284                   22268642.2274
 -11906857.58648  -9267862.60546  21723400.2344                   21723397.7974
  -6797806.28947  -5286167.76645  22654431.7504                   22654430.1094
 -23044399.07448 -17942568.00446  20831351.5084                   20831348.3554
   -395007.82846   -297061.52344  23503107.8754                   23503106.8244
 -14830264.59448 -11542640.73446  21770970.9384                   21770971.0204
 -23988245.44147 -18677672.55945  22083419.5634                   22083414.9734
 -11863300.68447  -9230891.87145  22022673.7504                   22022671.8444
   5326461.23046   4157905.67643  25025651.2194                   25025649.0984
 11  8 22  2 37 30.0000000  0  9G12G29G26G05G15G25G02G30G21
 -16997302.31247 -13231485.79745  22282180.1954                   22282178.2344
 -11991999.74247  -9334207.10246  21707198.0164                   21707195.8754
  -6893413.49647  -5360666.84445  22636238.2584                   22636236.5514
 -23002145.28548 -17909642.96546  20839391.6024                   20839388.9804
   -502388.16047   -380734.39544  23482673.6804                   23482672.7584
 -14809013.93448 -11526081.77746  21775015.0394                   21775014.6764
 -23956485.14548 -18652924.27345  22089463.4384                   22089458.5394
 -11829504.44947  -9204557.14145  22029104.5004                   22029102.6564
   5259185.99246   4105483.46543  25012848.2664                   25012847.4344
 11  8 22  2 38  0.0000000  0  9G12G29G26G05G15G25G02G30G21
 -16925890.66047 -13175840.37945  22295769.4534                   22295767.3364
 -12076927.64548  -9400384.64546  21691036.8524                   21691034.3554
  -6988724.31647  -5434934.95745  22618101.0634                   22618098.8284
 -22959480.22348 -17876397.44946  20847510.5784                   20847507.7304
   -609715.70746   -464366.13744  23462250.5234                   23462248.6524
 -14787241.25448 -11509116.04346  21779157.5554                   21779158.0204
 -23924621.97348 -18628095.82845  22095526.4844                   22095521.9224
 -11795223.30147  -9177844.55945  22035628.3444                   22035626.5594
   5191927.70746   4053074.45343  25000049.3524                   25000048.1604
 11  8 22  2 38 30.0000000  0  9G12G29G26G05G15G25G02G30G21
 -16854199.81647 -13119977.40245  22309411.7194                   22309409.3094
 -12161637.66848  -9466392.40646  21674917.1884                   21674914.4884
  -7083733.62147  -5508968.15645  22600021.7194                   22600019.7074
 -22916404.73448 -17842832.13746  20855707.8054                   20855704.9924
   -716986.27047   -547953.50845  23441837.9304                   23441835.7664
 -14764947.05948 -11491743.94146  21783400.4534                   21783400.3594
 -23892654.35948 -18603185.98045  22101609.9224                   22101605.3014
 -11760458.48848  -9150755.10245  22042243.7274                   22042242.1214
   5124687.31346   4000679.36343  24987254.6644                   24987253.3164
 11  8 22  2 39  0.0000000  0  9G12G29G26G05G15G25G02G30G21
 -16782232.98047 -13063899.37145  22323106.3984                   22323104.1214
 -12246128.11748  -9532229.07846  21658838.5394                   21658836.3404
  -7178438.45747  -5582764.08645  22581999.5704                   22581997.8404
 -22872921.70348 -17808949.25046  20863982.3284                   20863979.8244
   -824197.63746   -631494.73444  23421436.5004                   23421433.7234
 -14742134.04348 -11473967.56646  21787741.8754                   21787741.9024
 -23860582.89848 -18578195.21145  22107712.9144                   22107708.1684
 -11725213.22348  -9123291.25445  22048950.6804                   22048948.4184
   5057463.64546   3948297.29743  24974462.0394                   24974460.5944
 11  8 22  2 39 30.0000000  0  9G12G29G26G05G15G25G02G30G21
 -16709994.12947 -13007609.37545  22336853.5314                   22336850.6914
 -12330397.33248  -9597893.34446  21642803.0554                   21642800.6724
  -7272835.62147  -5656320.27345  22564036.6024                   22564034.4384
 -22829033.84448 -17774750.91046  20872334.0084                   20872330.8834
   -931347.13347   -714987.76244  23401045.9534                   23401044.0664
 -14718804.50848 -11455788.71546  21792181.1174                   21792181.3714
 -23828407.54748 -18553123.49245  22113835.4924                   22113831.1604
 -11689490.43048  -9095455.30945  22055748.3674                   22055746.4654
   4990255.28946   3895927.25843  24961672.2734                   24961671.4844
 11  8 22  2 40  0.0000000  0  9G12G29G26G05G15G25G02G30G21
 -16637486.55147 -12951109.98445  22350650.7034                   22350648.8634
 -12414443.42248  -9663383.75446  21626809.8054                   21626807.0984
  -7366921.82847  -5729634.17245  22546132.4534                   22546130.1524
 -22784744.50448 -17740239.72346  20880762.0864                   20880758.7544
  -1038432.35947   -798430.71944  23380668.1564                   23380666.7504
 -14694960.89848 -11437209.26646  21796718.3834                   21796718.0234
 -23796128.91847 -18527971.28545  22119977.7034                   22119973.4414
 -11653293.07847  -9067249.57445  22062636.6094                   22062634.9614
   4923061.56346   3843568.54343  24948886.3054                   24948884.3754
 11  8 22  2 40 30.0000000  0  9G12G29G26G05G15G25G02G30G21
 -16564712.27747 -12894402.77345  22364499.5234                   22364497.3054
 -12498262.98048  -9728697.64546  21610858.9694                   21610856.4804
  -7460692.40647  -5802702.11345  22528288.6484                   22528286.7304
 -22740054.71148 -17705416.50846  20889266.0004                   20889262.9614
  -1145449.13747   -881820.34445  23360303.4844                   23360301.6254
 -14670604.05948 -11418229.91446  21801353.2194                   21801353.2544
 -23763745.46147 -18502737.41045  22126140.2504                   22126135.7894
 -11616622.68747  -9038675.24645  22069614.7664                   22069612.8054
   4855882.93046   3791221.62943  24936101.8444                   24936100.9734
 11  8 22  2 41  0.0000000  0  9G12G29G26G05G15G25G02G30G21
 -16491675.05147 -12837490.66045  22378398.1414                   22378395.7504
 -12581854.34048  -9793833.71546  21594952.2344                   21594949.5234
  -7554144.12147  -5875521.58245  22510505.4224                   22510503.3984
 -22694967.57848 -17670283.67646  20897845.8984                   20897842.9304
  -1252395.16447   -965154.84445  23339952.4774                   23339950.1914
 -14645736.70748 -11398852.77046  21806085.5164                   21806085.6954
 -23731257.93448 -18477422.41445  22132322.2114                   22132317.3754
 -11579482.47347  -9009734.81645  22076682.1094                   22076680.6604
   4788717.77346   3738885.23043  24923321.0784                   24923320.2544
 11  8 22  2 41 30.0000000  0  9G12G29G26G05G15G25G02G30G21
 -16418379.09847 -12780376.96145  22392345.9774                   22392343.4454
 -12665216.57848  -9858791.24646  21579088.8284                   21579086.4184
  -7647274.91047  -5948090.98045  22492782.8914                   22492781.2034
 -22649486.62948 -17634843.97346  20906500.8834                   20906497.7664
  -1359268.82447  -1048432.94144  23319614.9534                   23319613.4384
 -14620362.16048 -11379080.39546  21810913.8834                   21810914.0554
 -23698667.32848 -18452027.12945  22138524.1724                   22138520.0554
 -11541876.36747  -8980431.35945  22083838.5474                   22083836.6564
   4721564.43846   3686558.01643  24910541.7664                   24910541.1564
 11  8 22  2 42  0.0000000  0  9G12G29G26G05G15G25G02G30G21
 -16344826.23447 -12723063.05545  22406342.5314                   22406340.4924
 -12748346.21948  -9923567.53546  21563269.9064                   21563267.0594
  -7740080.06247  -6020406.64145  22475122.4384                   22475120.8244
 -22603613.09048 -17599098.35246  20915229.8284                   20915226.9924
  -1466066.03947  -1131651.47745  23299292.2424                   23299289.8984
 -14594481.30548 -11358913.49246  21815839.0234                   21815839.1214
 -23665971.82848 -18426550.07445  22144746.1414                   22144741.1294
 -11503805.93747  -8950766.08645  22091082.8444                   22091081.3444
   4654423.63746   3634240.59842  24897765.1804                   24897764.1764
 11  8 22  2 42 30.0000000  0  9G12G29G26G05G15G25G02G30G21
 -16271019.58647 -12665551.39845  22420387.6094                   22420385.0984
 -12831240.62148  -9988160.50446  21547495.7344                   21547492.6764
  -7832555.35247  -6092465.27045  22457525.1254                   22457523.3404
 -22557349.43448 -17563048.75046  20924033.7584                   20924030.5314
  -1572783.44547  -1214807.81644  23278984.4844                   23278982.3164
 -14568095.90248 -11338353.44546  21820860.1954                   21820860.0634
 -23633171.10247 -18400991.04745  22150987.7734                   22150982.8954
 -11465273.38347  -8920740.73845  22098415.2504                   22098414.2034
   4587294.92246   3581932.61743  24884991.7344                   24884989.3164
 11  8 22  2 43  0.0000000  0  9G12G29G26G05G15G25G02G30G21
 -16196958.53947 -12607841.51245  22434480.7584                   22434478.5864
 -12913893.85248 -10052565.57846  21531767.2114                   21531764.3134
  -7924693.72747  -6164261.36745  22439992.0084                   22439990.1214
 -22510694.49248 -17526694.24646  20932911.9144                   20932908.5784
  -1679414.31647  -1297896.74644  23258692.7584                   23258691.5904
 -14541204.37148 -11317399.00446  21825977.0084                   21825977.5434
 -23600261.31648 -18375347.03145  22157250.2584                   22157245.3984
 -11426277.73847  -8890354.53145  22105836.2664                   22105834.2774
   4520181.34046   3529636.39843  24872219.7034                   24872218.3054
 11  8 22  2 43 30.0000000  0  9G12G29G26G05G15G25G02G30G21
 -16122648.83647 -12549937.86345  22448621.0554                   22448618.5744
 -12996306.37948 -10116783.06246  21516084.1094                   21516081.9224
  -8016494.26647  -6235794.21545  22422523.0944                   22422520.0594
 -22463653.00848 -17490038.53946  20941863.7974                   20941860.7774
  -1785958.57847  -1380918.16844  23238418.7274                   23238416.2464
 -14513811.62948 -11296054.03146  21831189.7974                   21831189.9694
 -23567245.02748 -18349620.05145  22163532.9454                   22163528.8404
 -11386824.52747  -8859611.77745  22113343.9534                   22113342.2704
   4453079.72746   3477349.48043  24859450.7194                   24859449.5234
 11  8 22  2 44  0.0000000  0  9G12G29G26G05G15G25G02G30G21
 -16048094.93047 -12491843.92245  22462808.6804                   22462806.5044
 -13078477.57848 -10180812.50846  21500447.6804                   21500444.7704
  -8107954.89147  -6307062.18745  22405117.9384                   22405116.5554
 -22416228.98848 -17453084.75446  20950888.0394                   20950884.9494
  -1892414.77347  -1463870.98444  23218160.0004                   23218158.1804
 -14485921.37948 -11274321.36346  21836497.2274                   21836497.4064
 -23534123.63348 -18323811.14845  22169835.6564                   22169830.9064
 -11346917.93448  -8828515.74245  22120937.7584                   22120935.8674
   4385987.83646   3425070.17243  24846683.8674                   24846682.3364
 11  8 22  2 44 30.0000000  0  9G12G29G26G05G15G25G02G30G21
 -15973298.69147 -12433561.14545  22477042.0634                   22477039.6024
 -13160404.03548 -10244651.25446  21484857.3674                   21484854.6764
  -8199070.93747  -6378061.65645  22387779.2734                   22387777.5944
 -22368424.27748 -17415834.32446  20959984.7584                   20959981.9734
  -1998778.62947  -1546751.82044  23197919.4534                   23197918.3524
 -14457534.68048 -11252201.86346  21841898.8284                   21841899.0434
 -23500895.64148 -18297919.19145  22176159.0554                   22176154.2974
 -11306559.68447  -8797067.77045  22128618.1804                   22128615.9694
   4318906.00846   3372798.73443  24833918.4844                   24833916.5864
 11  8 22  2 45  0.0000000  0  9G12G29G26G05G15G25G02G30G21
 -15898264.64147 -12375093.07845  22491320.2974                   22491318.3754
 -13242084.22748 -10308298.10246  21469314.3204                   21469311.5004
  -8289839.23847  -6448790.16845  22370507.2734                   22370504.7274
 -22320241.62548 -17378289.40646  20969154.1414                   20969150.8834
  -2105047.96947  -1629559.02745  23177697.2194                   23177695.8874
 -14428654.28948 -11229697.67246  21847394.9924                   21847395.0944
 -23467561.41847 -18271944.47345  22182502.0474                   22182497.3554
 -11265752.98048  -8765270.34045  22136382.8914                   22136381.0664
   4251833.26646   3320534.37943  24821155.0004                   24821153.4064
 11  8 22  2 45 30.0000000  0  9G12G29G26G05G15G25G02G30G21
 -15822996.22747 -12316442.37945  22505643.5164                   22505640.9454
 -13323516.46948 -10371751.74646  21453818.2344                   21453815.7274
  -8380257.64547  -6519246.03945  22353300.8204                   22353299.3674
 -22271684.61748 -17340452.78146  20978394.1724                   20978391.1564
  -2211220.83247  -1712291.04744  23157493.6954                   23157492.2734
 -14399283.47348 -11206811.32446  21852983.9304                   21852983.6644
 -23434121.74248 -18245887.57045  22188865.2034                   22188860.7194
 -11224501.64848  -8733126.46545  22144233.2034                   22144231.4844
   4184767.92646   3268275.75843  24808392.3134                   24808391.4224
 11  8 22  2 46  0.0000000  0  9G12G29G26G05G15G25G02G30G21
 -15747496.31647 -12257611.30145  22520010.8674                   22520008.8204
 -13404698.03948 -10435010.05946  21438369.9384                   21438367.1414
  -8470321.57447  -6589425.68445  22336162.2344                   22336160.3094
 -22222755.10548 -17302325.88346  20987704.9304                   20987701.6174
  -2317293.44947  -1794944.95745  23137308.3914                   23137306.9964
 -14369423.81648 -11183544.06646  21858665.7894                   21858666.0554
 -23400575.84848 -18219747.92245  22195248.8754                   22195244.2234
 -11182807.88347  -8700637.82845  22152167.0784                   22152165.6804
   4117710.03946   3216022.98043  24795632.6024                   24795630.2034
 11  8 22  2 46 30.0000000  0  9G12G29G26G05G15G25G02G30G21
 -15671768.13347 -12198602.34045  22534421.5084                   22534419.1094
 -13485626.76648 -10498071.35246  21422969.5004                   21422966.8014
  -8560027.55947  -6659326.42245  22319091.8444                   22319089.6414
 -22173455.45348 -17263910.57446  20997086.2504                   20997083.2034
  -2423262.91447  -1877518.50045  23117143.2894                   23117141.4534
 -14339077.71948 -11159897.77046  21864441.0394                   21864440.5864
 -23366923.59448 -18193525.39545  22201653.2974                   22201648.2154
 -11140674.53547  -8667806.66045  22160184.4694                   22160182.6374
   4050658.77046   3163775.35943  24782872.1024                   24782870.0044
 11  8 22  2 47  0.0000000  0  9G12G29G26G05G15G25G02G30G21
 -15595814.55547 -12139417.75045  22548874.7194                   22548872.3404
 -13566300.48448 -10560933.94146  21407617.6414                   21407615.4304
  -8649372.27047  -6728945.65245  22302089.6484                   22302087.4454
 -22123788.43048 -17225208.99646  21006537.6094                   21006534.5474
  -2529126.27747  -1960009.34845  23096997.7114                   23096996.3094
 -14308247.34848 -11135874.10246  21870307.7034                   21870307.6174
 -23333164.66048 -18167219.73045  22208077.0004                   22208072.3204
 -11098104.38347  -8634635.12145  22168285.5474                   22168283.6914
   3983613.67646   3111532.56343  24770114.1804                   24770111.7974
 11  8 22  2 47 30.0000000  0  9G12G29G26G05G15G25G02G30G21
 -15519638.77747 -12080060.02745  22563370.5944                   22563368.4384
 -13646716.87948 -10623596.02346  21392315.0704                   21392311.8134
  -8738352.10947  -6798280.55145  22285157.4614                   22285155.7034
 -22073756.59848 -17186223.16046  21016058.2664                   21016055.5234
  -2634880.93447  -2042415.50445  23076872.7814                   23076871.4774
 -14276935.28948 -11111475.10246  21876266.0004                   21876266.0314
 -23299299.15248 -18140831.03545  22214521.3364                   22214516.5744
 -11055100.50847  -8601125.62145  22176468.9304                   22176467.2774
   3916573.91446   3059293.91043  24757356.8284                   24757353.8134
 11  8 22  2 48  0.0000000  0  9G12G29G26G05G15G25G02G30G21
 -15443244.23047 -12020531.83645  22577907.9774                   22577905.8554
 -13726873.86748 -10686055.97746  21377061.5084                   21377058.7934
  -8826963.95747  -6867328.71145  22268295.6414                   22268293.7664
 -22023362.54748 -17146955.06246  21025648.1954                   21025645.1564
  -2740523.69147  -2124734.45345  23056770.7344                   23056768.8134
 -14245143.97348 -11086702.64846  21882315.7974                   21882315.5824
 -23265326.82847 -18114359.10545  22220986.0314                   22220981.7584
 -11011665.84847  -8567280.44545  22184734.3054                   22184732.5314
   3849538.64846   3007058.73043  24744600.3524                   24744598.6094
 11  8 22  2 48 30.0000000  0  9G12G29G26G05G15G25G02G30G21
 -15366634.00447 -11960835.58645  22592486.2894                   22592484.0904
 -13806769.06648 -10748311.94946  21361858.2344                   21361855.7304
  -8915203.96947  -6936087.14145  22251504.0634                   22251501.6134
 -21972608.64148 -17107406.56646  21035306.5004                   21035303.0784
  -2846051.44947  -2206963.80145  23036688.9534                   23036687.6884
 -14212875.60547 -11061558.47346  21888455.9064                   21888456.5274
 -23231247.55147 -18087803.84445  22227470.9304                   22227466.4574
 -10967803.14847  -8533101.72745  22193080.9774                   22193079.2234
   3782507.32446   2954826.66443  24731844.2344                   24731842.5824
 11  8 22  2 49  0.0000000  0  9G12G29G26G05G15G25G02G30G21
 -15289811.12147 -11900973.62545  22607105.3674                   22607103.1054
 -13886400.09848 -10810362.07446  21346704.8674                   21346701.9534
  -9003068.47347  -7004552.94945  22234783.8984                   22234781.8244
 -21921497.41848 -17067579.64146  21045032.3054                   21045029.2704
  -2951461.63347  -2289101.53545  23016629.6484                   23016627.4384
 -14180132.49648 -11036044.36346  21894687.0944                   21894687.2274
 -23197060.70747 -18061164.75445  22233976.4844                   22233971.7384
 -10923515.17247  -8498591.62545  22201508.7734                   22201506.7934
   3715479.38346   2902597.20343  24719089.7114                   24719087.0864
 11  8 22  2 49 30.0000000  0  9G12G29G26G05G15G25G02G30G21
 -15212778.00447 -11840947.84845  22621764.0314                   22621762.3674
 -13965764.00848 -10872204.05546  21331602.1804                   21331599.4224
  -9090553.34447  -7072722.95345  22218135.9844                   22218133.1454
 -21870030.65648 -17027475.68046  21054826.3284                   21054822.9884
  -3056750.05947  -2371144.38745  22996593.9774                   22996591.9924
 -14146916.25048 -11010161.57846  21901007.8524                   21901008.4224
 -23162765.28547 -18034441.07445  22240503.1804                   22240498.4574
 -10878804.14847  -8463751.87945  22210016.5784                   22210015.1454
   3648455.10246   2850370.60243  24706334.6804                   24706331.8554
 11  8 22  2 50  0.0000000  0  9G12G29G26G05G15G25G02G30G21
 -15135537.48847 -11780760.46945  22636462.9694                   22636460.6024
 -14044857.74648 -10933835.51246  21316551.3754                   21316548.8954
  -9177654.68447  -7140594.10245  22201560.9694                   22201558.9924
 -21818210.51648 -16987096.34446  21064687.1484                   21064684.1414
  -3161913.21547  -2453089.64844  22976582.0704                   22976580.2504
 -14113228.69148 -10983911.54346  21907418.4844                   21907418.5004
 -23128360.46147 -18007632.13745  22247049.8284                   22247044.6094
 -10833672.35547  -8428584.26245  22218605.4224                   22218603.4614
   3581434.52346   2798146.91043  24693581.6884                   24693579.8984
 11  8 22  2 50 30.0000000  0  9G12G29G26G05G15G25G02G30G21
 -15058093.04747 -11720414.18045  22651199.9924                   22651198.0164
 -14123679.91448 -10995255.36346  21301551.7814                   21301549.4694
  -9264369.28947  -7208163.89545  22185059.7814                   22185057.3164
 -21766039.94948 -16946443.94546  21074614.9064                   21074611.9454
  -3266948.91447  -2534935.57845  22956594.6414                   22956592.4454
 -14079072.98848 -10957296.71146  21913917.8754                   21913918.2114
 -23093846.86747 -17980738.44945  22253617.5164                   22253613.2384
 -10788123.46147  -8393091.62145  22227272.3594                   22227271.1174
   3514416.60946   2745925.25443  24680828.7194                   24680826.2894
 11  8 22  2 51  0.0000000  0  9G12G29G26G05G15G25G02G30G21
 -14980448.42247 -11659911.91045  22665975.3284                   22665973.4184
 -14202228.74648 -11056462.22746  21286604.4614                   21286601.7194
  -9350694.50047  -7275430.26245  22168632.6644                   22168629.8364
 -21713522.21548 -16905521.03146  21084608.7974                   21084605.8054
  -3371854.48847  -2616680.10945  22936631.9694                   22936629.2464
 -14044452.12148 -10930319.41446  21920506.4844                   21920506.3674
 -23059224.65247 -17953760.11745  22260206.2274                   22260201.4534
 -10742160.85247  -8357276.60245  22236019.1884                   22236017.3914
   3447399.41046   2693704.20343  24668074.8284                   24668073.2234
 11  8 22  2 51 30.0000000  0  9G12G29G26G05G15G25G02G30G21
 -14902606.88747 -11599256.20745  22680788.5164                   22680785.7664
 -14280501.91448 -11117454.29346  21271710.0004                   21271707.2034
  -9436626.81647  -7342390.48045  22152279.9304                   22152277.2424
 -21660659.66448 -16864329.43046  21094668.1804                   21094664.8284
  -3476627.18447  -2698321.10945  22916693.1644                   22916691.9064
 -14009368.46548 -10902981.51246  21927182.7034                   21927182.3364
 -23024493.53947 -17926696.94545  22266815.2504                   22266810.5784
 -10695787.55147  -8321141.58245  22244843.6954                   22244842.4574
   3380382.76246   2641483.52743  24655322.6954                   24655319.5474
 11  8 22  2 52  0.0000000  0  9G12G29G26G05G15G25G02G30G21
 -14824570.96547 -11538449.03145  22695637.9694                   22695635.7344
 -14358496.57048 -11178229.33646  21256867.8914                   21256865.5394
  -9522161.87147  -7409041.13345  22136003.7194                   22136001.0474
 -21607454.21148 -16822870.64146  21104793.1024                   21104789.7034
  -3581263.14547  -2779855.55945  22896782.6954                   22896780.9414
 -13973823.88348 -10875284.45346  21933946.2114                   21933946.2624
 -22989652.70747 -17899548.26645  22273444.8524                   22273440.4654
 -10649005.80547  -8284688.28545  22253746.2584                   22253744.3444
   3313366.65646   2589263.30943  24642569.2424                   24642567.8754
 11  8 22  2 52 30.0000000  0 10G18G12G29G26G05G15G25G02G30G21
   6155671.85255   4807063.84052  24593998.1724                   24593998.6524
 -14746345.40647 -11477494.09045  22710523.6724                   22710521.8204
 -14436211.83248 -11238786.67246  21242078.7424                   21242076.5084
  -9607298.11347  -7475381.01245  22119802.1254                   22119800.2154
 -21553910.32848 -16781148.12546  21114981.7504                   21114979.0594
  -3685761.04747  -2861282.43745  22876897.4844                   22876895.3554
 -13937822.47348 -10847231.41446  21940796.9844                   21940797.1804
 -22954703.50847 -17872315.13345  22280095.2734                   22280090.7344
 -10601820.23047  -8247920.31245  22262725.4304                   22262723.6524
   3246349.26246   2537042.05943  24629816.5864                   24629814.1914
 11  8 22  2 53  0.0000000  0 10G18G12G29G26G05G15G25G02G30G21
   6055440.44945   4728961.71542  24574924.7974                   24574923.8444
 -14667934.76247 -11416394.90645  22725444.9614                   22725442.7034
 -14513646.94948 -11299125.71146  21227343.6954                   21227341.1254
  -9692033.31247  -7541408.41445  22103678.0234                   22103675.8324
 -21500031.61348 -16739164.70746  21125234.6024                   21125231.3484
  -3790119.58647  -2942600.72745  22857038.5164                   22857035.9774
 -13901368.22347 -10818825.51246  21947734.1804                   21947734.2274
 -22919647.09447 -17844998.45345  22286766.6024                   22286761.5984
 -10554235.26647  -8210841.12945  22271780.3364                   22271778.6994
   3179328.12146   2484817.87943  24617062.3674                   24617060.2704
 11  8 22  2 53 30.0000000  0 10G18G12G29G26G05G15G25G02G30G21
   5955383.78945   4650995.69542  24555884.2504                   24555884.7544
 -14589345.24647 -11355156.36345  22740400.0234                   22740397.5004
 -14590802.60948 -11359246.98846  21212661.1334                   21212658.6764
  -9776367.18047  -7607123.07845  22087629.7504                   22087627.2774
 -21445823.94548 -16696924.95746  21135550.0554                   21135546.9774
  -3894338.39147  -3023810.12545  22837205.7894                   22837204.0394
 -13864466.64548 -10790071.05146  21954756.3984                   21954756.1644
 -22884486.15247 -17817600.34045  22293457.3444                   22293453.4574
 -10506256.91047  -8173455.40245  22280910.6724                   22280908.5784
   3112299.74646   2432588.07043  24604307.2814                   24604305.1454
 11  8 22  2 54  0.0000000  0 10G18G12G29G26G05G15G25G02G30G21
   5855503.50846   4573167.04742  24536878.4844                   24536878.2734
 -14510579.65647 -11293780.60545  22755388.5004                   22755386.2384
 -14667676.15248 -11419148.43446  21198032.9064                   21198030.1334
  -9860295.68047  -7672521.87145  22071658.0004                   22071655.9454
 -21391289.01648 -16654430.20346  21145927.6414                   21145924.9844
  -3998413.95747  -3104907.90645  22817400.9064                   22817398.8444
 -13827119.66448 -10760969.52346  21961863.3444                   21961863.4384
 -22849219.88747 -17790120.14845  22300168.9304                   22300164.5164
 -10457887.59047  -8135765.04345  22290114.9924                   22290112.7304
   3045264.12946   2380352.63743  24591550.4224                   24591549.4384
 11  8 22  2 54 30.0000000  0 10G18G12G29G26G05G15G25G02G30G21
   5755801.47346   4495477.22343  24517906.9224                   24517904.4574
 -14431640.30547 -11232269.46545  22770409.9844                   22770408.6094
 -14744264.52348 -11478827.67246  21183458.5394                   21183456.0904
  -9943814.84447  -7737601.69945  22055765.4224                   22055763.2894
 -21336428.97348 -16611682.10546  21156366.9614                   21156364.2274
  -4102342.95347  -3185891.48445  22797623.7814                   22797621.5204
 -13789329.43448 -10731522.60946  21969054.9844                   21969054.4414
 -22813847.82047 -17762557.50845  22306899.9454                   22306895.3954
 -10409129.83247  -8097771.98445  22299393.0084                   22299391.2934
   2978221.17246   2328111.50843  24578793.3984                   24578791.7234
 11  8 22  2 55  0.0000000  0 10G18G12G29G26G05G15G25G02G30G21
   5656279.05146   4417927.41042  24498967.4614                   24498965.4654
 -14352530.43447 -11170625.43445  22785464.2974                   22785462.0234
 -14820565.25848 -11538282.76646  21168938.8524                   21168936.2584
 -10026921.32447  -7802359.95745  22039950.5084                   22039948.5354
 -21281246.32448 -16568682.62946  21166868.0704                   21166864.9614
  -4206122.15647  -3266758.33645  22777875.7974                   22777873.1684
 -13751098.30548 -10701732.12546  21976329.6254                   21976329.4264
 -22778369.16447 -17734911.81245  22313650.9774                   22313646.3634
 -10359986.51647  -8059478.50045  22308745.1804                   22308743.1724
   2911170.30946   2275864.17243  24566033.6644                   24566032.1254
 11  8 22  2 55 30.0000000  0 10G18G12G29G26G05G15G25G02G30G21
   5556938.77046   4340519.50043  24480063.1254                   24480062.3244
 -14273251.48047 -11108849.65645  22800550.5864                   22800548.6454
 -14896574.75048 -11597510.91446  21154474.9224                   21154472.1054
 -10109609.91447  -7866792.58645  22024215.7974                   22024213.7894
 -21225742.20748 -16525432.65646  21177430.1954                   21177427.2114
  -4309746.89847  -3347504.83245  22758156.4144                   22758154.0984
 -13712427.41048 -10671598.98446  21983688.2114                   21983688.4694
 -22742782.18447 -17707181.68745  22320422.9924                   22320418.0984
 -10310459.19947  -8020885.79345  22318169.5394                   22318167.7814
   2844112.29346   2223611.27743  24553272.3444                   24553271.1684
 11  8 22  2 56  0.0000000  0 10G18G12G29G26G05G15G25G02G30G21
   5457781.35546   4263254.07443  24461194.9384                   24461194.5004
 -14193806.97747 -11046944.87145  22815668.0944                   22815666.2074
 -14972291.11348 -11656510.65246  21140066.2664                   21140063.7154
 -10191877.69547  -7930897.30545  22008560.3524                   22008558.6564
 -21169919.36748 -16481934.32446  21188052.7424                   21188049.5944
  -4413214.73847  -3428129.06245  22738466.7034                   22738464.9414
 -13673319.71548 -10641125.46546  21991130.0004                   21991130.4654
 -22707086.97747 -17679367.26645  22327215.7424                   22327211.0234
 -10260551.29347  -7981996.52745  22327666.5864                   22327664.9144
   2777046.59446   2171352.36343  24540510.1884                   24540509.1374
 11  8 22  2 56 30.0000000  0 10G18G12G29G26G05G15G25G02G30G21
   5358809.15246   4186133.02343  24442360.8914                   24442360.4844
 -14114199.92247 -10984913.44145  22830816.8914                   22830815.3594
 -15047711.44548 -11715279.70346  21125714.3134                   21125711.8284
 -10273720.93447  -7994671.22745  21992986.0004                   21992983.6724
 -21113779.85248 -16438189.24646  21198735.7974                   21198732.5554
  -4516521.73847  -3508627.98045  22718808.6484                   22718806.2234
 -13633777.21548 -10610313.14546  21998655.0394                   21998655.5004
 -22671282.69947 -17651467.83645  22334028.9924                   22334024.3484
 -10210265.24247  -7942812.61745  22337235.6024                   22337234.3794
   2709973.12946   2119087.41844  24527746.7974                   24527744.8594
 11  8 22  2 57  0.0000000  0 10G18G12G29G26G05G15G25G02G30G21
   5260022.53546   4109156.56343  24423562.4304                   24423561.0514
 -14034433.69147 -10922757.96945  22845996.4064                   22845994.3134
 -15122833.82448 -11773816.58646  21111418.9304                   21111416.2624
 -10355136.33247  -8058111.75445  21977493.3524                   21977491.3054
 -21057326.75448 -16394199.80146  21209478.5944                   21209475.4304
  -4619665.62947  -3588999.77045  22699180.3284                   22699178.3444
 -13593802.95348 -10579164.39546  22006261.8444                   22006261.8554
 -22635369.44547 -17623483.46945  22340862.8524                   22340858.3094
 -10159604.53947  -7903336.74245  22346876.2424                   22346874.4654
   2642890.64847   2066815.42644  24514981.1884                   24514979.2074
 11  8 22  2 57 30.0000000  0 10G18G12G29G26G05G15G25G02G30G21
   5161424.10246   4032326.76243  24404799.1334                   24404798.9344
 -13954509.96147 -10860479.78145  22861204.7504                   22861202.9344
 -15197654.60248 -11832118.46546  21097181.1414                   21097178.1414
 -10436119.25047  -8121215.28945  21962082.7194                   21962080.7274
 -21000561.08648 -16349966.80146  21220280.6954                   21220277.6564
  -4722642.07047  -3669241.10545  22679584.8054                   22679582.7194
 -13553398.33648 -10547680.29746  22013950.5164                   22013950.9614
 -22599345.30947 -17595412.71545  22347717.9694                   22347713.5084
 -10108570.95747  -7863570.32845  22356587.3594                   22356585.8714
   2575800.14846   2014537.16043  24502214.3914                   24502212.2894
 11  8 22  2 58  0.0000000  0 10G18G12G29G26G05G15G25G02G30G21
   5063015.07446   3955644.55943  24386072.6804                   24386071.3524
 -13874431.74247 -10798081.18445  22876443.5084                   22876441.6214
 -15272171.33248 -11890183.41046  21083001.2734                   21082998.3954
 -10516666.32047  -8183979.22345  21946754.8984                   21946752.5084
 -20943485.28548 -16305492.13746  21231141.8674                   21231138.3834
  -4825447.89847  -3749349.49645  22660021.1024                   22660019.3554
 -13512565.78148 -10515862.74646  22021721.2504                   22021720.8364
 -22563210.46947 -17567255.70345  22354594.6094                   22354589.4184
 -10057167.43747  -7823515.65245  22366369.5314                   22366367.7854
   2508700.88746   1962252.09043  24489445.4774                   24489443.7074
 11  8 22  2 58 30.0000000  0 10G18G12G29G26G05G15G25G02G30G21
   4964796.27746   3879110.62143  24367381.6804                   24367381.3244
 -13794202.21947 -10735564.69945  22891710.5004                   22891708.7344
 -15346381.53548 -11948009.50046  21068879.1564                   21068876.7504
 -10596774.25847  -8246400.95745  21931510.8754                   21931509.0434
 -20886102.04348 -16260777.91846  21242061.4694                   21242058.2344
  -4928080.02047  -3829322.52345  22640490.6804                   22640489.3244
 -13471308.07048 -10483713.90646  22029572.4224                   22029572.2384
 -22526964.52048 -17539012.11745  22361492.0864                   22361486.8984
 -10005397.14147  -7783175.16445  22376221.2504                   22376219.0004
   2441592.60247   1909959.96943  24476676.1254                   24476673.5044
 11  8 22  2 59  0.0000000  0 10G18G12G29G26G05G15G25G02G30G21
   4866769.19946   3802726.00843  24348728.1094                   24348727.2544
 -13713824.85947 -10672933.02345  22907006.0634                   22907004.3984
 -15420283.24248 -12005595.20746  21054815.8524                   21054813.4264
 -10676439.66847  -8308477.86345  21916351.2274                   21916348.7274
 -20828414.01248 -16215826.19546  21253039.0164                   21253035.9774
  -5030535.16447  -3909157.64145  22620994.7194                   22620992.3554
 -13429627.83648 -10451235.81646  22037503.5004                   22037503.6954
 -22490606.86348 -17510681.47345  22368410.4534                   22368405.6764
  -9953263.08247  -7742551.22745  22386141.8054                   22386140.1804
   2374474.51246   1857660.19143  24463903.1414                   24463900.2464
 11  8 22  2 59 30.0000000  0 10G18G12G29G26G05G15G25G02G30G21
   4768934.28146   3726491.19543  24330109.9064                   24330109.9614
 -13633303.10247 -10610188.81245  22922329.1254                   22922326.6054
 -15493874.83648 -12062939.27346  21040812.2194                   21040809.1564
 -10755659.74647  -8370207.75845  21901276.2584                   21901274.1684
 -20770424.30548 -16170639.39846  21264074.1334                   21264071.2114
  -5132811.04347  -3988853.09845  22601531.4924                   22601529.6994
 -13387528.36748 -10418431.05546  22045514.7894                   22045514.9144
 -22454137.81247 -17482264.03945  22375350.7734                   22375345.7304
  -9900768.98447  -7701646.76245  22396131.0944                   22396129.5124
   2307345.83646   1805352.19943  24451129.2664                   24451126.2934
 11  8 22  3  0  0.0000000  0 10G18G12G29G26G05G15G25G02G30G21
   4671293.73046   3650407.83243  24311528.9924                   24311529.5744
 -13552639.18447 -10547333.85245  22937678.8594                   22937676.6844
 -15567152.83248 -12120038.97746  21026867.7584                   21026865.2664
 -10834430.12947  -8431587.23845  21886286.4534                   21886284.8134
 -20712134.23848 -16125218.55946  21275166.4614                   21275163.5044
  -5234903.58647  -4068405.66445  22582104.3054                   22582102.3094
 -13345011.37147 -10385300.94946  22053605.2734                   22053605.5204
 -22417556.07447 -17453758.78945  22382311.6484                   22382306.9304
  -9847916.89847  -7660463.33245  22406188.1644                   22406187.0944
   2240206.55946   1753035.91043  24438352.2974                   24438349.1844
 11  8 22  3  0 30.0000000  0 10G18G12G29G26G05G15G25G02G30G21
   4573849.06646   3574477.10543  24292986.0084                   24292985.7624
 -13471835.69547 -10484370.11345  22953055.0004                   22953053.0354
 -15640114.84448 -12176892.45746  21012983.1644                   21012980.5824
 -10912747.48047  -8492613.71145  21871383.1174                   21871380.9804
 -20653546.44548 -16079565.73046  21286315.3914                   21286312.1524
  -5336809.72747  -4147813.00045  22562712.4844                   22562709.8094
 -13302079.41848 -10351847.50446  22061774.7504                   22061775.1724
 -22380861.26647 -17425165.43445  22389294.5944                   22389290.0704
  -9794709.92247  -7619003.37145  22416313.6484                   22416312.0704
   2173056.49646   1700711.22743  24425574.5164                   24425571.6724
 11  8 22  3  1  0.0000000  0 10G18G12G29G26G05G15G25G02G30G21
   4476599.69946   3498698.54743  24274479.3834                   24274479.7584
 -13390897.96147 -10421301.78145  22968457.7194                   22968454.8554
 -15712759.83648 -12233498.91446  20999159.6644                   20999156.8754
 -10990609.83647  -8553285.65245  21856566.2344                   21856564.6174
 -20594665.00448 -16033684.07846  21297519.7274                   21297516.8054
  -5438527.82047  -4227073.80545  22543356.1804                   22543353.9144
 -13258736.75048 -10318074.00446  22070023.0784                   22070023.1994
 -22344054.51248 -17396484.85245  22396298.5084                   22396294.1094
  -9741152.64547  -7577270.44945  22426504.9224                   22426503.4964
   2105893.69946   1648376.66443  24412793.4924                   24412791.5944
 11  8 22  3  1 30.0000000  0 10G18G12G29G26G05G15G25G02G30G21
   4379548.86346   3423074.69543  24256012.7424                   24256011.1564
 -13309826.75847 -10358129.43745  22983884.1804                   22983882.3244
 -15785083.77048 -12289855.19546  20985397.0234                   20985394.1294
 -11068011.95747  -8613598.96945  21841837.0474                   21841834.7664
 -20535490.12548 -15987573.77746  21308780.5234                   21308777.3714
  -5540052.73047  -4306184.07445  22524035.9384                   22524033.4494
 -13214983.96147 -10283980.95346  22078348.9454                   22078349.1604
 -22307133.37147 -17367715.14545  22403324.2734                   22403319.6134
  -9687246.01647  -7535265.31645  22436763.0004                   22436761.9344
   2038719.95346   1596033.58643  24400010.7504                   24400009.2194
 11  8 22  3  2  0.0000000  0 10G18G12G29G26G05G15G25G02G30G21
   4282696.73046   3347605.60543  24237581.4224                   24237580.0664
 -13228625.96147 -10294856.10545  22999336.2504                   22999334.1804
 -15857084.68048 -12345959.77746  20971695.9064                   20971692.6884
 -11144951.32047  -8673551.68445  21827196.2664                   21827193.9534
 -20476025.34448 -15941237.57446  21320096.1804                   21320093.3134
  -5641382.30547  -4385142.13745  22504754.1174                   22504751.2074
 -13170824.61747 -10249571.08246  22086752.0704                   22086752.2584
 -22270098.21147 -17338856.58245  22410371.6954                   22410367.4884
  -9632994.03147  -7492991.06245  22447087.0314                   22447085.7344
   1971533.46546   1543680.59443  24387225.0704                   24387223.5704
 11  8 22  3  2 30.0000000  0 10G18G12G29G26G05G15G25G02G30G21
   4186044.55946   3272292.41443  24219188.6644                   24219188.2194
 -13147298.71947 -10231484.25445  23014812.3524                   23014810.2384
 -15928760.51248 -12401811.05946  20958056.0864                   20958053.4614
 -11221424.66047  -8733141.27045  21812643.9454                   21812641.6524
 -20416273.02348 -15894677.32446  21331466.6954                   21331464.0904
  -5742513.08247  -4463945.29345  22485509.7274                   22485506.9104
 -13126261.41048 -10214846.53146  22095232.4694                   22095232.2114
 -22232948.89847 -17309909.09045  22417441.2194                   22417436.7664
  -9578399.77747  -7450450.10945  22457476.2734                   22457474.4694
   1904334.07446   1491317.52743  24374438.1884                   24374436.1764
 11  8 22  3  3  0.0000000  0 10G18G12G29G26G05G15G25G02G30G21
   4089593.56346   3197135.91843  24200835.0474                   24200834.0744
 -13065847.59447 -10168015.85945  23030312.2034                   23030309.7774
 -16000108.86348 -12457407.15646  20944479.0164                   20944476.0944
 -11297428.49647  -8792365.01645  21798180.9614                   21798178.3364
 -20356235.56248 -15847894.88746  21342891.5004                   21342888.6644
  -5843442.11747  -4542591.24245  22466303.1804                   22466300.6524
 -13081297.10247 -10179809.42646  22103789.0004                   22103789.1214
 -22195684.89847 -17280872.23445  22424532.8204                   22424527.9494
  -9523466.36347  -7407644.88745  22467929.7504                   22467927.5164
   1837121.32046   1438944.05944  24361648.2894                   24361645.9924
 11  8 22  3  3 30.0000000  0 10G18G12G29G26G05G15G25G02G30G21
   3993344.87946   3122137.05943  24182519.2894                   24182518.6134
 -12984276.27747 -10104453.81245  23045834.5634                   23045832.9884
 -16071127.77748 -12512746.55146  20930964.5554                   20930961.8834
 -11372959.90247  -8851220.61745  21783807.8444                   21783805.1644
 -20295915.75048 -15800892.43746  21354370.0314                   21354367.1054
  -5944166.70747  -4621077.87545  22447135.3754                   22447133.5274
 -13035934.54348 -10144462.00046  22112421.2584                   22112421.1844
 -22158305.61747 -17251745.53145  22431645.2504                   22431641.2624
  -9468196.96547  -7364577.85245  22478446.6564                   22478445.6844
   1769894.46546   1386559.58244  24348855.1484                   24348853.3984
 11  8 22  3  4  0.0000000  0 10G18G12G29G26G05G15G25G02G30G21
   3897299.18446   3047296.32043  24164242.9454                   24164241.0554
 -12902588.18447 -10040800.78944  23061379.7424                   23061376.9964
 -16141814.86748 -12567827.38346  20917513.0864                   20917510.0314
 -11448015.85947  -8909705.75845  21769524.9384                   21769522.3754
 -20235316.75848 -15753672.45346  21365901.4384                   21365898.4964
  -6044684.24247  -4699403.16845  22428008.3594                   22428006.1644
 -12990177.05147 -10108806.84046  22121128.5084                   22121128.7304
 -22120811.46947 -17222529.33645  22438780.5864                   22438775.7664
  -9412595.31247  -7321251.91845  22489027.2894                   22489026.0514
   1702652.25047   1334163.16044  24336060.0004                   24336057.5394
 11  8 22  3  4 30.0000000  0 10G18G12G29G26G05G15G25G02G30G21
   3801458.11746   2972615.09443  24146005.0394                   24146003.4454
 -12820785.36747  -9977058.36745  23076945.7504                   23076944.2424
 -16212167.23048 -12622647.39846  20904125.5474                   20904122.7274
 -11522592.49647  -8967817.39145  21755333.6254                   21755330.7624
 -20174440.13748 -15706236.12146  21377485.9614                   21377483.0004
  -6144990.64547  -4777563.93745  22408920.5704                   22408918.0044
 -12944026.47347 -10072845.37146  22129910.1414                   22129910.4104
 -22083201.17647 -17193222.64845  22445937.3754                   22445933.0824
  -9356663.59447  -7277668.79745  22499671.1724                   22499669.5594
   1635395.34847   1281755.30544  24323261.1334                   24323258.7424
 11  8 22  3  5  0.0000000  0 10G18G12G29G26G05G15G25G02G30G21
   3705820.89846   2898092.66843  24127804.9304                   24127804.0514
 -12738872.93747  -9913230.53145  23092533.3524                   23092530.9414
 -16282184.44948 -12677206.25446  20890802.0394                   20890799.2034
 -11596688.39547  -9025554.42645  21741233.3674                   21741231.3754
 -20113289.89848 -15658586.59046  21389122.5314                   21389119.6844
  -6245084.54347  -4855559.12545  22389872.8914                   22389870.6334
 -12897487.52748 -10036581.27746  22138766.7034                   22138766.8244
 -22045476.52347 -17163826.83245  22453115.3204                   22453110.9494
  -9300406.89847  -7233832.45345  22510376.4924                   22510375.0904
   1568121.77047   1229334.43044  24310458.6644                   24310456.7934
 11  8 22  3  5 30.0000000  0 10G18G12G29G26G05G15G25G02G30G21
   3610390.31346   2823731.35243  24109644.9614                   24109644.6804
 -12656853.00847  -9849318.92645  23108141.6414                   23108139.5664
 -16351862.91448 -12731501.15246  20877542.1254                   20877539.1884
 -11670298.87947  -9082913.21145  21727225.9694                   21727223.9654
 -20051867.36348 -15610724.88346  21400810.7504                   21400807.8794
  -6344961.54347  -4933385.29345  22370866.3984                   22370864.6134
 -12850561.52348 -10000015.58246  22147696.4454                   22147696.7544
 -22007635.15647 -17134340.10245  22460316.8834                   22460312.8324
  -9243826.85547  -7189744.13745  22521143.6024                   22521141.4344
   1500831.94147   1176900.92644  24297654.0474                   24297651.9064
 11  8 22  3  6  0.0000000  0 10G18G12G29G26G05G15G25G02G30G21
   3515167.05147   2749531.55543  24091525.9144                   24091523.6524
 -12574728.39847  -9785325.74245  23123768.9224                   23123766.8634
 -16421200.20348 -12785530.18746  20864347.6414                   20864344.8714
 -11743420.79747  -9139891.32045  21713310.8524                   21713309.2234
 -19990175.13348 -15562653.03146  21412550.5004                   21412547.9064
  -6444618.74247  -5011040.20345  22351902.7194                   22351900.6644
 -12803251.43747  -9963150.59846  22156699.1254                   22156699.2584
 -21969677.20747 -17104762.49645  22467540.2274                   22467535.7774
  -9186926.82047  -7145406.48845  22531971.5234                   22531969.3914
   1433525.45347   1124454.43444  24284846.1024                   24284843.9494
 11  8 22  3  6 30.0000000  0 10G18G12G29G26G05G15G25G02G30G21
   3420153.07046   2675494.84843  24073444.0784                   24073443.1374
 -12492501.37547  -9721252.76245  23139416.5474                   23139414.6644
 -16490193.30948 -12839291.03546  20851218.9774                   20851215.8554
 -11816050.50847  -9196485.86745  21699490.1094                   21699487.9924
 -19928215.13748 -15514372.52346  21424341.2974                   21424338.2704
  -6544052.60947  -5088521.08645  22332981.0634                   22332979.1604
 -12755559.45747  -9925988.03546  22165774.7034                   22165774.7194
 -21931601.59447 -17075093.22345  22474786.5944                   22474781.3914
  -9129709.36747  -7100821.48445  22542858.9534                   22542857.5664
   1366202.57847   1071995.15643  24272034.7734                   24272032.6214
 11  8 22  3  7  0.0000000  0 10G18G12G29G26G05G15G25G02G30G21
   3325347.60546   2601620.59443  24055402.9614                   24055402.2304
 -12410176.96547  -9657103.89845  23155082.2894                   23155080.3954
 -16558841.64847 -12892783.23046  20838155.1724                   20838152.4574
 -11888186.52047  -9252695.70745  21685762.8444                   21685761.0124
 -19865991.60548 -15465886.66846  21436182.1414                   21436178.7304
  -6643261.67647  -5165826.79345  22314102.0554                   22314100.2774
 -12707490.28947  -9888531.55946  22174922.1884                   22174922.1724
 -21893409.46547 -17045333.14545  22482053.9224                   22482048.6884
  -9072179.37947  -7055992.95745  22553806.9384                   22553804.5594
   1298860.98846   1019521.32043  24259220.0554                   24259217.0044
 11  8 22  3  7 30.0000000  0 10G18G12G29G26G05G15G25G02G30G21
   3230752.91846   2527910.62943  24037402.3984                   24037401.4494
 -12327756.62947  -9592880.28945  23170766.3834                   23170764.5314
 -16627141.86348 -12946004.15246  20825158.2034                   20825155.4024
 -11959824.11747  -9308517.18445  21672131.0944                   21672128.3634
 -19803505.52048 -15417196.21946  21448072.9924                   21448069.8404
  -6742241.11347  -5242953.57445  22295267.4844                   22295264.5864
 -12659045.14847  -9850782.12146  22184141.1484                   22184141.3834
 -21855099.14847 -17015480.97745  22489343.3284                   22489339.1054
  -9014338.54747  -7010922.19945  22564813.3284                   22564811.2114
   1231501.78946    967033.71943  24246400.5394                   24246397.9064
 11  8 22  3  8  0.0000000  0 10G18G12G29G26G05G15G25G02G30G21
   3136369.69146   2454365.42243  24019441.5234                   24019440.6884
 -12245244.12947  -9528584.85945  23186467.9304                   23186466.1134
 -16695092.43448 -12998952.62546  20812227.6174                   20812225.0204
 -12030960.96947  -9363948.46545  21658593.6724                   21658591.5314
 -19740759.89848 -15368303.54346  21460012.6024                   21460009.7384
  -6840988.73847  -5319899.72745  22276475.6414                   22276473.1134
 -12610227.60248  -9812742.48446  22193430.4924                   22193430.6334
 -21816670.82447 -16985536.84845  22496656.4614                   22496651.7304
  -8956190.68747  -6965612.22345  22575878.4304                   22575876.2854
   1164123.93446    914531.63342  24233578.7114                   24233576.4064
 11  8 22  3  8 30.0000000  0 10G18G12G29G26G05G15G25G02G30G21
   3042199.74647   2380986.45744  24001522.4064                   24001520.7344
 -12162641.47747  -9464219.18045  23202187.3914                   23202185.3364
 -16762689.37948 -13051625.53546  20799364.3674                   20799361.5664
 -12101592.75447  -9418986.18745  21645153.1724                   21645151.1914
 -19677756.31248 -15319209.85246  21472002.1414                   21471998.9614
  -6939500.44147  -5396662.03945  22257730.0234                   22257727.4614
 -12561039.48848  -9774414.10246  22202791.0314                   22202791.1724
 -21778123.00447 -16955499.60945  22503991.7664                   22503987.4064
  -8897737.98447  -6920064.66845  22587001.6954                   22587000.4184
   1096727.88746    862015.36343  24220754.7504                   24220750.9144
 11  8 22  3  9  0.0000000  0 10G18G12G29G26G05G15G25G02G30G21
   2948245.03146   2307775.15243  23983643.0164                   23983641.2734
 -12079951.42247  -9399785.37945  23217922.4924                   23217919.9144
 -16829929.96148 -13104020.76646  20786568.8054                   20786566.0864
 -12171715.97347  -9473627.61345  21631809.3914                   21631807.1134
 -19614496.94548 -15269916.84446  21484039.9064                   21484036.9884
  -7037772.53547  -5473237.64545  22239028.9614                   22239026.6334
 -12511483.23847  -9735798.84846  22212220.7974                   22212221.0354
 -21739454.84847 -16925368.60245  22511349.7274                   22511345.8834
  -8838983.19947  -6874281.75045  22598182.2274                   22598180.9414
   1029313.76646    809484.95343  24207925.7194                   24207923.1764
 11  8 22  3  9 30.0000000  0 10G18G12G29G26G05G15G25G02G30G21
   2854505.46147   2234731.50443  23965804.4614                   23965802.5204
 -11997177.45347  -9335286.20345  23233674.1954                   23233671.5704
 -16896812.71148 -13156137.16846  20773841.7194                   20773838.6604
 -12241328.25447  -9527870.92245  21618561.9384                   21618560.3524
 -19550984.86748 -15220426.91446  21496125.8674                   21496122.6914
  -7135802.78147  -5549624.80145  22220374.8834                   22220372.3284
 -12461562.48847  -9696899.55945  22221720.3984                   22221720.7934
 -21700666.80547 -16895144.16445  22518731.4144                   22518726.5394
  -8779930.23047  -6828266.45745  22609419.6334                   22609418.2154
    961880.37146    756939.51643  24195093.8524                   24195090.5314
 11  8 22  3 10  0.0000000  0 10G18G12G29G26G05G15G25G02G30G21
   2760981.15247   2161855.54743  23948007.6804                   23948005.0594
 -11914323.82747  -9270724.94444  23249439.7734                   23249437.6564
 -16963336.63348 -13207973.96146  20761182.4144                   20761179.6294
 -12310427.60947  -9581714.53945  21605413.3054                   21605410.9884
 -19487223.44948 -15170742.71146  21508259.1414                   21508255.9614
  -7233589.11747  -5625821.89845  22201766.6174                   22201764.0594
 -12411281.12547  -9657719.28945  22231288.4844                   22231289.0554
 -21661759.37947 -16864826.69545  22526135.7344                   22526130.7894
  -8720583.30147  -6782022.12545  22620713.8834                   22620712.0434
    894426.18846    704377.92643  24182257.5234                   24182254.7974
 11  8 22  3 10 30.0000000  0 10G18G12G29G26G05G15G25G02G30G21
   2667674.27746   2089149.05943  23930251.5554                   23930249.6764
 -11831392.17647  -9206102.91444  23265221.8054                   23265219.9964
 -17029497.72348 -13259528.02346  20748592.6254                   20748589.8594
 -12379009.56647  -9635155.00045  21592362.8834                   21592360.5314
 -19423213.71948 -15120865.01246  21520439.8444                   21520437.0594
  -7331127.30547  -5701825.64145  22183205.2814                   22183202.7424
 -12360640.68747  -9618259.21545  22240925.4844                   22240925.7734
 -21622730.49247 -16834414.58245  22533562.5234                   22533557.8954
  -8660944.21947  -6735550.12545  22632062.2894                   22632061.0234
    826952.10546    651800.81644  24169417.8284                   24169415.5004
 11  8 22  3 11  0.0000000  0 10G18G12G29G26G05G15G25G02G30G21
   2574585.36346   2016612.41043  23912535.9384                   23912535.3324
 -11748386.19146  -9141422.92244  23281016.9064                   23281015.5004
 -17095294.46948 -13310798.19146  20736071.2894                   20736068.9344
 -12447071.76247  -9688190.43745  21579410.7734                   21579408.5004
 -19358959.08248 -15070796.48046  21532666.9304                   21532663.8794
  -7428414.52347  -5777633.81645  22164691.9224                   22164689.8444
 -12309644.73047  -9578522.12145  22250629.8834                   22250629.6804
 -21583580.99247 -16803908.48445  22541012.2814                   22541007.0204
  -8601016.79747  -6688853.43745  22643465.8444                   22643464.9574
    759457.21546    599207.49644  24156574.2114                   24156571.9844
 11  8 22  3 11 30.0000000  0 10G18G12G29G26G05G15G25G02G30G21
   2481716.36346   1944247.15643  23894864.0234                   23894862.6724
 -11665308.16847  -9076686.80144  23296826.5314                   23296823.7424
 -17160724.00448 -13361782.21146  20723620.7584                   20723618.3914
 -12514610.34447  -9740817.88345  21566558.6804                   21566556.0394
 -19294461.25848 -15020538.44146  21544940.8754                   21544937.6054
  -7525447.30947  -5853243.74245  22146227.4384                   22146224.9884
 -12258295.50847  -9538509.74245  22260400.9384                   22260401.3594
 -21544309.42247 -16773307.26645  22548485.4844                   22548480.8984
  -8540803.71147  -6641934.17245  22654924.2664                   22654922.9964
    691941.71946    546598.10944  24143726.2034                   24143724.0904
 11  8 22  3 12  0.0000000  0 10G18G12G29G26G05G15G25G02G30G21
   3964490.44146   3099655.73043  24177027.1884                   24177025.3484
 -10006743.89846  -7784299.08644  23612440.3674                   23612438.2854
 -15650362.15248 -12184876.84846  21011032.9614                   21011030.1564
 -11006200.70347  -8565433.69945  21853599.0394                   21853596.8714
 -17654305.11748 -13742494.69946  21857051.7034                   21857048.6094
  -6046799.64847  -4701050.70745  22427604.6024                   22427602.2194
 -10631178.05947  -8270626.02045  22570031.2344                   22570031.4104
 -19929497.01647 -15515011.90245  22855773.7034                   22855769.3404
  -6904890.46147  -5367196.59845  22966228.3444                   22966227.2234
   2199827.22746   1721573.91044  24430667.1884                   24430664.7274
 11  8 22  3 12 30.0000000  0 10G18G12G29G26G05G15G25G02G30G21
   3872062.53546   3027634.14543  24159437.9454                   24159436.4804
  -9923531.48047  -7719458.23044  23628275.3674                   23628274.0904
 -15715051.19948 -12235283.87146  20998723.1414                   20998720.3914
 -11072683.90247  -8617238.74645  21840947.6884                   21840945.2894
 -17589328.89148 -13691863.89546  21869416.7504                   21869414.0824
  -6143314.98047  -4776257.41445  22409238.4454                   22409235.9304
 -10579131.86347  -8230070.56246  22579935.1334                   22579935.8524
 -19889980.91847 -15484220.14545  22863293.4844                   22863289.3164
  -6844116.31247  -5319840.11745  22977793.0944                   22977791.3094
   2132268.59046   1668930.91444  24417811.0394                   24417808.7114
 11  8 22  3 13  0.0000000  0 10G18G12G29G26G05G15G25G02G30G21
   3779857.07046   2955785.94143  24141891.9064                   24141890.8204
  -9840256.03947  -7654568.30144  23644122.4534                   23644120.4494
 -15779366.05148 -12285399.30946  20986484.4924                   20986481.5744
 -11138634.94147  -8668629.14145  21828397.2894                   21828394.9224
 -17524116.67648 -13641049.19146  21881826.2504                   21881823.3054
  -6239566.78547  -4851258.77045  22390922.0314                   22390919.3794
 -10526741.27747  -8189246.73045  22589904.8674                   22589904.8524
 -19850341.50447 -15453332.28545  22870836.8134                   22870831.8094
  -6783066.03547  -5272268.50045  22989410.6884                   22989409.4414
   2064688.17647   1616270.93844  24404950.9304                   24404948.1644
 11  8 22  3 13 30.0000000  0 10G18G12G29G26G05G15G25G02G30G21
   3687873.55147   2884110.65644  24124388.5234                   24124386.7704
  -9756922.46547  -7589633.04744  23659980.4694                   23659978.2034
 -15843306.15648 -12335222.75446  20974317.0394                   20974314.1094
 -11204051.89847  -8719603.35945  21815949.2034                   21815947.3954
 -17458672.50448 -13590053.74646  21894280.0704                   21894276.7424
  -6335553.19547  -4926053.32445  22372656.5864                   22372654.1254
 -10474010.69147  -8148157.96945  22599939.1024                   22599938.9224
 -19810579.91447 -15422349.24245  22878402.7734                   22878398.8754
  -6721744.47747  -5224485.48444  23001079.5864                   23001078.7034
   1997084.00446   1563592.44144  24392086.3834                   24392083.9844
 11  8 22  3 14  0.0000000  0 10G18G12G29G26G05G15G25G02G30G21
   3596113.64147   2812609.60544  24106927.0474                   24106925.7544
  -9673532.62147  -7524653.97344  23675848.7034                   23675846.8714
 -15906868.45348 -12384751.78546  20962221.3444                   20962218.4224
 -11268931.26247  -8770158.65645  21803603.2974                   21803600.7854
 -17392998.30148 -13538879.05546  21906777.2584                   21906773.8834
  -6431270.62547  -5000638.28945  22354442.2814                   22354439.3014
 -10420942.43047  -8106806.09445  22610038.1724                   22610037.8634
 -19770694.87947 -15391270.00444  22885992.9454                   22885988.6174
  -6660154.10247  -5176493.00444  23012799.2664                   23012798.0274
   1929456.60946   1510895.87143  24379217.3524                   24379214.6684
 11  8 22  3 14 30.0000000  0 10G18G12G29G26G05G15G25G02G30G21
   3504578.44947   2741283.62944  24089508.0704                   24089506.6994
  -9590089.42646  -7459633.29744  23691727.0004                   23691725.1174
 -15970050.48448 -12433984.51646  20950198.1484                   20950195.4184
 -11333269.97747  -8820292.69545  21791360.0164                   21791357.1564
 -17327096.06248 -13487526.66846  21919317.7664                   21919315.0434
  -6526715.63347  -5075010.96945  22336279.5314                   22336277.2194
 -10367539.21947  -8065193.21946  22620199.6484                   22620200.2384
 -19730685.93747 -15360094.20344  22893606.0004                   22893601.2664
  -6598297.96147  -5128293.41045  23024571.1644                   23024569.2974
   1861805.48046   1458180.78143  24366343.5634                   24366340.4224
